     2              OBSERVATION DATA    GPS                 RINEX VERSION / TYPE
teqc 2000Feb29 20031025 01:57:31UTC                         PGM / RUN BY / DATE
                                                            COMMENT
L2: 1 -> 1; 150 -> 5; 250 -> 9                              COMMENT
L2: 1 -> 1; 150 -> 5; 250 -> 9                              COMMENT
L2: 1 -> 1; 150 -> 5; 250 -> 9                              COMMENT
L2: 1 -> 1; 150 -> 5; 250 -> 9                              COMMENT
L2: 1 -> 1; 150 -> 5; 250 -> 9                              COMMENT
Original Marker Name: KELL                                  COMMENT
Campaign Name: CSUSB 2002-2003                              COMMENT
4-Character Station Name: KELL                              COMMENT
6-Character Antenna Code: DMRCHT                            COMMENT
Vertical Measurement Point: BCR                             COMMENT
Vertical Offset to Rinex Ref. Point: 0.0348                 COMMENT
Radial Measurement Point: ECF                               COMMENT
Radial Offset to Rinex Ref. Point: 0.1897                   COMMENT
Antenna Height from Field Measurement: 1.1700 m             COMMENT
Additional Antenna Identification Info.:                    COMMENT
Turborogue and Ashtech Choke Ring                           COMMENT
Original XYZ: -2402519.2400 -4705153.1400 3565776.6400      COMMENT
New XYZ position is based on association with SCEC monument COMMENT
E1D0T0M9+0011. Position of that monument is believed to be  COMMENT
valid to within 1 m horizontally; vertical accuracy         COMMENT
should be no worse than 3-times this value.                 COMMENT
                                                            COMMENT
Revised Rinex header created by UCSD GPS archive for        COMMENT
GSAC on 09-Nov-2004 (2004:314) 22:44:24 GMT                 COMMENT
For assistance contact dagnew@ucsd.edu                      COMMENT
or anderson@python.ucsd.edu                                 COMMENT
                                                            COMMENT
KELL                                                        MARKER NAME
___ CAL STATE SAN BERNARDINO                                OBSERVER / AGENCY
1012 ASHTECH Z-XII3 ZE00                                    REC # / TYPE / VERS
___ DORNE-MARGOL. TYPE T                                    ANT # / TYPE
 -2402515.0000 -4705146.0000  3565771.0000                  APPROX POSITION XYZ
        1.1197        0.0000        0.0000                  ANTENNA: DELTA H/E/N
     1     1     0                                          WAVELENGTH FACT L1/2
     7    C1    L1    L2    P1    P2    S1    S2            # / TYPES OF OBSERV
     0                                                      INTERVAL
  2003     7     1    16    22   40.000000                  TIME OF FIRST OBS
  2003     7     1    23    44   40.000000                  TIME OF LAST OBS
                                                            END OF HEADER
 03  7  1 16 22 40.0000000  0  8G23G21G18G 6G16G15G29G26
  22242757.668    15241709.10553  11881437.17952  22242759.750    22242757.087
        49.000          43.000
  20615025.708     -405214.47453   -316135.55052  20615027.530    20615024.152
        47.000          41.000
  20649066.677    15293309.53553  11919153.60252  20649068.341    20649065.526
        56.000          50.000
  21181205.796    15482649.97953  12052192.47152  21181207.298    21181205.795
        56.000          49.000
  23389271.217    15387781.08453  11988382.63152  23389271.941    23389272.839
        44.000          39.000
  21868762.070    15261188.42553  11902362.53952  21868762.016    21868762.799
        50.000          44.000
  23500865.081    15470171.33453  12045369.58752  23500867.964    23500867.897
        49.000          42.000
  21540622.761    15401137.94353  11996717.92352  21540624.955    21540624.526
        52.000          45.000
 03  7  1 16 23  0.0000000  0  8G23G21G18G 6G16G15G29G26
  22234820.671    15200004.13243  11848939.80942  22234822.883    22234821.947
        49.000          43.000
  20614749.946     -406656.97643   -317259.57042  20614753.015    20614748.085
        48.000          41.000
  20645189.253    15272931.68343  11903274.76642  20645190.927    20645188.010
        56.000          50.000
  21189818.761    15527911.84343  12087461.43842  21189820.369    21189819.547
        56.000          49.000
  23391713.029    15400616.14443  11998383.98242  23391713.600    23391714.465
        44.000          39.000
  21861167.120    15221280.49543  11871265.47142  21861168.144    21861169.353
        51.000          45.000
  23508819.302    15511968.34243  12077938.67542  23508821.176    23508822.787
        49.000          42.000
  21543897.023    15418346.38343  12010127.07742  21543899.092    21543898.985
        52.000          45.000
 03  7  1 16 23 20.0000000  0  9G23G21G18G 6G16G15G29G26G17
  22226913.554    15158447.00443  11816557.64142  22226915.436    22226914.330
        50.000          44.000
  20614494.225     -408003.67443   -318308.94142  20614495.662    20614492.046
        48.000          40.000
  20641346.331    15252737.68543  11887539.19442  20641348.002    20641345.250
        56.000          50.000
  21198467.314    15573364.20343  12122878.84442  21198469.444    21198468.123
        55.000          49.000
  23394197.212    15413666.50543  12008553.08342  23394198.467    23394198.559
        45.000          39.000
  21853582.037    15181420.35543  11840205.64042  21853583.555    21853583.234
        52.000          45.000
  23516809.494    15553959.43743  12110659.01642  23516811.652    23516811.277
        49.000          42.000
  21547227.070    15435845.22843  12023762.53142  21547230.008    21547229.481
        52.000          46.000
  21252960.418     -359908.01653   -284646.53052  21252960.387    21252961.477
        53.000          47.000
 03  7  1 16 23 40.0000000  0  9G23G21G18G 6G16G15G29G26G17
  22219034.456    15117040.57743  11784292.90142  22219035.909    22219036.378
        50.000          45.000
  20614255.345     -409251.68543   -319281.42342  20614257.956    20614254.351
        47.000          40.000
  20637538.961    15232729.94043  11871948.75242  20637540.439    20637537.747
        56.000          50.000
  21207153.415    15619009.33943  12158446.46642  21207155.224    21207153.945
        55.000          48.000
  23396723.063    15426934.31643  12018891.62242  23396724.469    23396722.484
        46.000          39.000
  21846007.022    15141610.85843  11809185.26742  21846008.087    21846007.824
        52.000          45.000
  23524837.205    15596146.66043  12143532.17142  23524840.363    23524839.542
        49.000          42.000
  21550612.772    15453636.86943  12037626.14142  21550614.231    21550614.876
        52.000          45.000
  21256356.814     -342055.97843   -270735.87142  21256357.530    21256358.052
        53.000          47.000
 03  7  1 16 24  0.0000000  0  9G23G21G18G 6G16G15G29G26G17
  22211182.148    15075780.31743  11752142.06342  22211184.579    22211184.263
        51.000          45.000
  20614036.120     -410405.03843   -320180.17242  20614038.418    20614037.309
        47.000          40.000
  20633765.948    15212903.69443  11856499.73442  20633767.681    20633765.191
        55.000          49.000
  21215874.355    15664842.03843  12194160.24342  21215876.524    21215875.157
        54.000          48.000
  23399287.895    15440414.21543  12029395.39342  23399289.186    23399287.144
        46.000          40.000
  21838439.303    15101847.45043  11778200.81642  21838442.008    21838441.469
        52.000          45.000
  23532902.072    15638524.81843  12176554.09642  23532903.616    23532905.707
        49.000          42.000
  21554052.148    15471716.26043  12051713.95042  21554054.429    21554054.301
        52.000          45.000
  21259769.962     -324121.87343   -256761.26142  21259770.526    21259771.050
        53.000          48.000
 03  7  1 16 24 20.0000000  0  9G23G21G18G 6G16G15G29G26G17
  22203358.878    15034667.09443  11720105.80442  22203360.266    22203359.784
        51.000          44.000
  20613834.107     -411464.35843   -321005.65342  20613835.876    20613835.842
        47.000          40.000
  20630027.947    15193259.67443  11841192.70542  20630029.343    20630026.332
        55.000          49.000
  21224631.850    15710862.59743  12230020.39842  21224633.273    21224632.617
        54.000          47.000
  23401893.101    15454106.66843  12040064.79842  23401895.522    23401894.230
        47.000          40.000
  21830881.688    15062131.12043  11747253.04842  21830883.568    21830882.677
        52.000          45.000
  23541002.730    15681093.96643  12209724.85542  23541005.480    23541005.247
        49.000          42.000
  21557547.287    15490083.96043  12066026.43542  21557549.936    21557549.997
        52.000          45.000
  21263198.954     -306104.31843   -242721.62342  21263199.553    21263200.142
        54.000          48.000
 03  7  1 16 24 40.0000000  0  9G23G21G18G 6G16G15G29G26G17
  22195565.022    14993708.16343  11688189.76842  22195566.542    22195566.063
        51.000          44.000
  20613652.218     -412421.02543   -321751.13742  20613653.134    20613652.567
        46.000          40.000
  20626325.526    15173804.96143  11826033.19542  20626327.334    20626324.425
        54.000          48.000
  21233426.639    15757077.80043  12266032.21242  21233427.957    21233426.950
        54.000          47.000
  23404539.954    15468018.37543  12050905.05442  23404541.776    23404540.872
        46.000          40.000
  21823333.853    15022469.25443  11716347.71542  21823335.984    21823335.116
        51.000          44.000
  23549141.086    15723860.79443  12243049.64642  23549143.289    23549144.569
        49.000          42.000
  21561099.108    15508746.99243  12080569.03942  21561100.169    21561101.109
        51.000          45.000
  21266644.195     -287996.02443   -228611.28442  21266645.066    21266645.746
        54.000          48.000
 03  7  1 16 25  0.0000000  0  9G23G21G18G 6G16G15G29G26G17
  22187797.968    14952894.98743  11656387.32042  22187800.345    22187798.183
        51.000          44.000
  20613488.540     -413283.74743   -322423.40242  20613489.112    20613486.165
        46.000          40.000
  20622657.678    15154530.79643  11811014.36742  20622659.688    20622656.841
        54.000          48.000
  21242256.498    15803478.65143  12302188.68542  21242258.530    21242257.208
        55.000          47.000
  23407226.989    15482140.31043  12061909.12542  23407229.104    23407230.411
        46.000          40.000
  21815796.492    14982853.52043  11685478.32442  21815797.440    21815795.847
        50.000          44.000
  23557314.621    15766816.08843  12276521.30142  23557318.411    23557317.655
        48.000          42.000
  21564705.230    15527696.54443  12095334.92142  21564706.943    21564707.186
        51.000          45.000
  21270105.622     -269805.24043   -214436.67042  21270106.987    21270107.425
        53.000          48.000
 03  7  1 16 25 20.0000000  0  9G23G21G18G 6G16G15G29G26G17
  22180060.104    14912233.29543  11624702.89942  22180061.557    22180060.065
        51.000          44.000
  20613343.029     -414046.52443   -323017.78342  20613344.177    20613341.867
        47.000          40.000
  20619025.346    15135442.61343  11796140.45042  20619026.415    20619023.858
        53.000          48.000
  21251122.880    15850070.26143  12338493.79942  21251124.895    21251123.614
        55.000          47.000
  23409955.391    15496477.58243  12073081.02342  23409956.081    23409957.634
        46.000          41.000
  21808267.285    14943289.56643  11654649.27242  21808267.153    21808267.607
        49.000          43.000
  23565526.614    15809964.75643  12310143.62442  23565527.394    23565528.881
        49.000          42.000
  21568366.598    15546937.77943  12110328.08642  21568368.653    21568369.446
        51.000          46.000
  21273584.330     -251526.53743   -200193.55142  21273585.415    21273586.091
        54.000          47.000
 03  7  1 16 25 40.0000000  0  9G23G21G18G 6G16G15G29G26G17
  22172350.817    14871716.98943  11593131.77842  22172351.661    22172349.607
        51.000          44.000
  20613216.561     -414715.55643   -323539.09542  20613217.734    20613214.094
        47.000          41.000
  20615426.840    15116534.39943  11781406.78442  20615428.362    20615424.980
        54.000          48.000
  21260024.472    15896845.98043  12374942.36942  21260026.780    21260025.000
        56.000          47.000
  23412724.493    15511023.55343  12084415.51242  23412726.183    23412724.201
        47.000          41.000
  21800746.261    14903771.30643  11623855.81342  21800747.969    21800747.304
        48.000          43.000
  23573772.537    15853300.21243  12343911.48442  23573773.112    23573775.610
        48.000          42.000
  21572082.444    15566464.33443  12125543.56842  21572084.946    21572085.251
        52.000          46.000
  21277078.284     -233166.14243   -185886.77742  21277079.060    21277079.036
        54.000          47.000
 03  7  1 16 26  0.0000000  0  9G23G21G18G 6G16G15G29G26G17
  22164669.155    14831354.27043  11561680.34642  22164670.628    22164668.723
        51.000          44.000
  20613108.617     -415282.32943   -323980.73442  20613110.514    20613106.355
        47.000          41.000
  20611865.220    15097814.15943  11766819.59342  20611866.536    20611863.012
        54.000          48.000
  21268961.984    15943813.50843  12411540.40442  21268963.709    21268961.624
        56.000          48.000
  23415533.084    15525785.88243  12095918.60242  23415535.271    23415533.097
        47.000          41.000
  21793236.672    14864307.22443  11593104.57142  21793238.091    21793237.235
        47.000          43.000
  23582055.309    15896829.98343  12377830.76642  23582056.571    23582059.047
        48.000          42.000
  21575854.378    15586284.05543  12140987.49942  21575856.478    21575857.171
        52.000          46.000
  21280589.364     -214715.34743   -171509.55942  21280590.329    21280590.900
        54.000          47.000
 03  7  1 16 26 20.0000000  0  9G23G21G18G 6G16G15G29G26G17
  22157016.340    14791141.07943  11530345.42642  22157018.404    22157017.106
        51.000          44.000
  20613019.958     -415750.90043   -324345.87942  20613020.913    20613018.197
        48.000          42.000
  20608337.997    15079277.62443  11752375.55042  20608339.470    20608336.113
        55.000          49.000
  21277934.671    15990968.29943  12448284.35742  21277937.353    21277935.229
        55.000          48.000
  23418382.390    15540759.93043  12107586.66542  23418383.815    23418382.049
        47.000          40.000
  21785737.799    14824893.24543  11562392.37042  21785737.702    21785737.847
        48.000          43.000
  23590374.809    15940549.32943  12411897.74942  23590375.014    23590378.034
        48.000          42.000
  21579681.415    15606392.52743  12156656.42842  21579683.366    21579683.776
        53.000          46.000
  21284116.382     -196178.20343   -157065.05542  21284117.503    21284118.027
        54.000          47.000
 03  7  1 16 26 40.0000000  0  9G23G21G18G 6G16G15G29G26G17
  22149392.104    14751075.29543  11499125.34542  22149391.987    22149393.411
        50.000          43.000
  20612948.601     -416123.38843   -324636.15042  20612950.230    20612947.630
        49.000          42.000
  20604844.835    15060922.50443  11738072.86642  20604846.597    20604842.983
        55.000          49.000
  21286943.080    16038307.62843  12485172.11042  21286944.956    21286943.500
        55.000          48.000
  23421271.577    15555942.97743  12119417.58642  23421273.028    23421270.425
        47.000          40.000
  21778247.184    14785527.40743  11531717.68942  21778247.220    21778246.601
        49.000          43.000
  23598730.220    15984455.32443  12446110.20042  23598732.141    23598731.629
        48.000          41.000
  21583562.452    15626787.14143  12172548.32942  21583564.325    21583565.029
        53.000          46.000
  21287660.294     -177557.01843   -142555.06242  21287661.221    21287661.870
        54.000          48.000
 03  7  1 16 27  0.0000000  0  9G23G21G18G 6G16G15G29G26G17
  22141796.854    14711161.32343  11468023.56042  22141798.199    22141798.477
        49.000          43.000
  20612897.946     -416395.44743   -324848.15542  20612899.386    20612896.727
        50.000          43.000
  20601387.491    15042752.81743  11723914.67042  20601389.014    20601385.539
        55.000          49.000
  21295987.321    16085835.25443  12522206.59642  21295988.651    21295987.917
        54.000          48.000
  23424201.069    15571338.75743  12131414.25642  23424202.396    23424200.658
        46.000          39.000
  21770765.268    14746214.02643  11501083.88042  21770765.997    21770766.279
        50.000          44.000
  23607120.896    16028551.48543  12480470.82242  23607122.363    23607125.684
        48.000          41.000
  21587498.619    15647472.03243  12188666.40942  21587500.880    21587501.135
        53.000          46.000
  21291220.215     -158847.67543   -127976.36642  21291221.265    21291222.663
        54.000          48.000
 03  7  1 16 27 20.0000000  0  9G23G21G18G 6G16G15G29G26G17
  22134230.566    14671396.91243  11437038.33142  22134231.037    22134230.252
        49.000          43.000
  20612864.250     -416569.07343   -324983.45042  20612866.934    20612864.435
        50.000          44.000
  20597964.448    15024766.15443  11709899.09542  20597966.476    20597963.000
        55.000          49.000
  21305066.460    16133548.41243  12559385.67442  21305068.641    21305066.984
        54.000          48.000
  23427171.486    15586944.54143  12143574.56342  23427172.658    23427168.232
        46.000          39.000
  21763292.880    14706950.84743  11470489.21142  21763294.885    21763294.290
        50.000          44.000
  23615546.638    16072835.10743  12514977.50542  23615548.367    23615551.057
        47.000          41.000
  21591489.705    15668444.47043  12205008.56042  21591491.755    21591491.409
        53.000          46.000
  21294797.365     -140051.82043   -113330.25942  21294798.387    21294799.455
        55.000          48.000
 03  7  1 16 27 40.0000000  0  9G23G21G18G 6G16G15G29G26G17
  22126691.757    14631781.23843  11406168.96942  22126693.936    22126692.476
        50.000          44.000
  20612849.717     -416644.99943   -325042.60742  20612852.690    20612849.905
        50.000          43.000
  20594575.938    15006961.41643  11696025.28442  20594577.572    20594574.887
        55.000          49.000
  21314182.089    16181445.81043  12596708.30342  21314183.284    21314182.400
        54.000          48.000
  23430179.433    15602758.83643  12155897.34942  23430181.765    23430179.801
        46.000          39.000
  21755830.743    14667737.34443  11439933.22742  21755831.457    21755832.602
        49.000          44.000
  23624009.942    16117304.67143  12549629.08942  23624012.310    23624012.310
        47.000          41.000
  21595535.105    15689703.20343  12221573.80642  21595537.384    21595536.252
        53.000          46.000
  21298390.561     -121170.30643    -98617.39842  21298391.743    21298391.995
        54.000          48.000
 03  7  1 16 28  0.0000000  0  9G23G21G18G 6G16G15G29G26G17
  22119182.079    14592315.53143  11375416.49542  22119183.194    22119182.676
        51.000          44.000
  20612852.992     -416621.86943   -325024.59742  20612855.064    20612854.048
        49.000          42.000
  20591223.371    14989339.80843  11682294.16542  20591224.218    20591222.136
        56.000          49.000
  21323331.659    16229528.15243  12634175.03842  21323333.751    21323333.044
        54.000          48.000
  23433228.651    15618782.26343  12168383.11442  23433230.913    23433228.674
        45.000          38.000
  21748378.848    14628574.83443  11409417.00242  21748380.125    21748379.928
        50.000          44.000
  23632507.753    16161960.55643  12584425.84542  23632509.412    23632510.560
        47.000          41.000
  21599635.621    15711249.22243  12238362.90942  21599637.729    21599637.047
        53.000          46.000
  21302000.046     -102201.69943    -83836.68542  21302001.270    21302002.114
        54.000          48.000
 03  7  1 16 28 20.0000000  0  9G23G21G18G 6G16G15G29G26G17
  22111699.894    14552998.00543  11344779.48642  22111702.042    22111700.698
        51.000          44.000
  20612876.522     -416501.27743   -324930.65142  20612877.935    20612876.490
        48.000          42.000
  20587903.999    14971899.25843  11668704.13342  20587905.379    20587903.408
        56.000          49.000
  21332516.150    16277793.16643  12671784.12442  21332517.695    21332517.610
        54.000          48.000
  23436317.068    15635012.52143  12181030.02942  23436319.983    23436318.462
        44.000          39.000
  21740936.692    14589461.71543  11378939.27042  21740937.914    21740936.383
        51.000          44.000
  23641041.300    16206800.57743  12619366.10342  23641042.628    23641043.470
        48.000          41.000
  21603788.986    15733080.37343  12255374.19342  21603791.412    21603790.439
        53.000          46.000
  21305625.780      -83147.76743    -68989.48342  21305626.617    21305627.374
        53.000          47.000
 03  7  1 16 28 40.0000000  0  9G23G21G18G 6G16G15G29G26G17
  22104247.095    14513833.58543  11314261.78442  22104248.024    22104247.118
        51.000          44.000
  20612920.338     -416278.38343   -324756.98442  20612920.499    20612916.330
        49.000          42.000
  20584620.929    14954644.61143  11655258.96042  20584622.344    20584620.282
        56.000          49.000
  21341735.908    16326245.16343  12709538.90242  21341737.496    21341737.467
        54.000          48.000
  23439445.254    15651454.09043  12193841.62242  23439446.875    23439447.528
        43.000          39.000
  21733503.432    14550402.96643  11348503.89142  21733505.062    21733504.092
        51.000          44.000
  23649609.339    16251828.81343  12654453.01442  23649612.200    23649610.493
        48.000          41.000
  21607998.346    15755201.06843  12272611.08942  21608000.769    21607999.909
        52.000          46.000
  21309268.355      -64003.47443    -54071.87042  21309269.151    21309270.076
        53.000          47.000
 03  7  1 16 29  0.0000000  0  9G23G21G18G 6G16G15G29G26G17
  22096821.800    14474815.80343  11283858.33742  22096824.019    22096823.110
        51.000          44.000
  20612980.381     -415959.40543   -324508.44642  20612982.836    20612977.624
        49.000          41.000
  20581371.714    14937569.16243  11641953.42342  20581373.088    20581370.947
        56.000          49.000
  21350989.604    16374877.15143  12747433.93842  21350991.354    21350991.582
        54.000          47.000
  23442614.147    15668099.87443  12206812.34242  23442615.022    23442613.648
        44.000          39.000
  21726080.178    14511392.22743  11318105.93142  21726080.774    21726080.559
        50.000          44.000
  23658213.509    16297038.25743  12689681.14842  23658216.538    23658212.451
        49.000          41.000
  21612262.022    15777604.40843  12290068.22642  21612264.426    21612263.613
        53.000          46.000
  21312927.592      -44775.11643    -39088.74942  21312928.296    21312929.080
        53.000          47.000
 03  7  1 16 29 20.0000000  0 10G23G 2G21G18G 6G16G15G29G26G17
  22089425.656    14435946.86143  11253570.88142  22089426.826    22089427.401
        51.000          44.000
  24993145.703     -478095.66153   -367296.96352  24993143.944    24993146.921
        44.000          37.000
  20613059.466     -415541.92743   -324183.14842  20613060.425    20613057.018
        49.000          41.000
  20578157.061    14920675.00543  11628789.15042  20578158.401    20578156.379
        56.000          50.000
  21360279.108    16423690.81743  12785470.53742  21360280.419    21360279.715
        54.000          47.000
  23445820.037    15684951.42143  12219943.39442  23445820.717    23445818.454
        44.000          38.000
  21718665.989    14472431.73943  11287747.11442  21718667.153    21718667.405
        50.000          43.000
  23666851.068    16342430.18943  12725051.46542  23666854.184    23666852.864
        49.000          41.000
  21616579.300    15800292.35343  12307747.12542  21616582.300    21616581.255
        52.000          46.000
  21316603.287      -25460.35143    -24038.29942  21316604.120    21316604.712
        53.000          47.000
 03  7  1 16 29 40.0000000  0 10G23G 2G21G18G 6G16G15G29G26G17
  22082057.823    14397227.20443  11223399.74142  22082058.881    22082057.983
        51.000          45.000
  24991427.487     -487130.89243   -374337.40842  24991429.026    24991430.044
        40.000          36.000
  20613157.842     -415025.59943   -323780.82542  20613159.919    20613155.900
        48.000          42.000
  20574976.418    14903962.13143  11615766.14442  20574977.839    20574975.733
        56.000          50.000
  21369602.361    16472685.88643  12823648.47142  21369604.536    21369603.141
        54.000          47.000
  23449065.070    15702008.45543  12233234.57442  23449066.854    23449067.370
        43.000          38.000
  21711261.305    14433522.03243  11257427.88042  21711262.641    21711261.876
        49.000          43.000
  23675523.393    16388004.44843  12760563.86442  23675525.964    23675523.817
        49.000          41.000
  21620950.630    15823264.72743  12325647.66842  21620952.926    21620952.315
        52.000          46.000
  21320295.392       -6059.22243     -8920.55242  21320296.525    21320296.622
        54.000          47.000
 03  7  1 16 30  0.0000000  0 10G23G 2G21G18G 6G16G15G29G26G17
  22074718.641    14358659.69143  11193347.16542  22074719.805    22074718.905
        51.000          45.000
  24989742.592     -495980.00543   -381232.85542  24989744.904    24989743.483
        40.000          35.000
  20613275.760     -414407.07343   -323298.88842  20613277.166    20613274.250
        48.000          41.000
  20571831.347    14887433.39043  11602886.62342  20571832.535    20571830.139
        56.000          50.000
  21378961.250    16521864.66843  12861969.55442  21378962.552    21378961.075
        54.000          47.000
  23452352.224    15719273.28043  12246687.67042  23452351.403    23452352.261
        44.000          39.000
  21703867.162    14394666.17743  11227150.61242  21703868.522    21703867.883
        49.000          42.000
  23684230.446    16433763.13043  12796219.97442  23684232.288    23684232.388
        48.000          41.000
  21625377.566    15846524.01243  12343771.77642  21625379.993    21625379.228
        52.000          46.000
  21324004.845       13431.56943      6267.05642  21324005.557    21324005.357
        54.000          47.000
 03  7  1 16 30 20.0000000  0 10G23G 2G21G18G 6G16G15G29G26G17
  22067408.783    14320241.32643  11163410.80142  22067409.047    22067410.114
        52.000          45.000
  24988094.761     -504646.04643   -387985.66242  24988095.958    24988094.848
        41.000          35.000
  20613412.193     -413689.24343   -322739.54942  20613412.921    20613412.971
        49.000          42.000
  20568720.582    14871085.54443  11590148.05242  20568721.761    20568719.306
        56.000          50.000
  21388354.388    16571223.70843  12900431.09242  21388355.163    21388354.063
        54.000          47.000
  23455676.383    15736742.44443  12260299.97842  23455678.143    23455678.074
        45.000          39.000
  21696483.421    14355861.32343  11196913.07942  21696484.586    21696485.136
        48.000          42.000
  23692973.318    16479702.63143  12832016.97042  23692974.446    23692975.214
        49.000          41.000
  21629857.993    15870066.89443  12362116.87442  21629860.472    21629859.146
        52.000          46.000
  21327730.047       33009.39043     21522.48242  21327731.203    21327731.418
        53.000          47.000
 03  7  1 16 30 40.0000000  0 10G23G 2G21G18G 6G16G15G29G26G17
  22060125.181    14281972.54343  11133590.98942  22060126.758    22060127.018
        51.000          45.000
  24986480.157     -513128.62243   -394595.50942  24986480.494    24986481.533
        41.000          35.000
  20613567.958     -412872.06643   -322102.81542  20613568.675    20613567.736
        50.000          43.000
  20565643.841    14854918.81043  11577550.60442  20565645.766    20565643.030
        56.000          50.000
  21397780.848    16620762.89043  12939033.01442  21397782.696    21397781.806
        54.000          47.000
  23459040.014    15754415.72143  12274071.34042  23459040.516    23459039.698
        45.000          39.000
  21689109.227    14317107.90243  11166715.62042  21689109.415    21689111.522
        48.000          43.000
  23701749.306    16525822.64543  12867954.62942  23701751.096    23701750.935
        48.000          40.000
  21634390.951    15893893.27043  12380682.88242  21634392.934    21634392.229
        52.000          45.000
  21331472.201       52674.63443     36846.02542  21331473.208    21331472.716
        53.000          47.000
 03  7  1 16 31  0.0000000  0 10G23G 2G21G18G 6G16G15G29G26G17
  22052872.138    14243855.81143  11103889.65042  22052872.728    22052873.470
        51.000          45.000
  24984900.735     -521425.51043   -401060.65642  24984903.152    24984904.462
        41.000          35.000
  20613742.751     -411952.68043   -321386.42242  20613744.548    20613742.664
        52.000          44.000
  20562602.316    14838935.51543  11565096.09442  20562604.141    20562601.442
        55.000          50.000
  21407242.994    16670484.17343  12977776.84342  21407244.381    21407243.727
        54.000          47.000
  23462441.560    15772295.04043  12288003.24642  23462442.654    23462442.549
        46.000          39.000
  21681744.930    14278408.52943  11136560.27842  21681745.197    21681746.059
        48.000          43.000
  23710560.407    16572125.15143  12904034.47742  23710562.970    23710558.559
        48.000          40.000
  21638978.906    15918005.33843  12399471.50942  21638981.335    21638980.260
        51.000          45.000
  21335230.973       72429.53843     52239.43942  21335231.844    21335232.515
        53.000          47.000
 03  7  1 16 31 20.0000000  0 10G23G 2G21G18G 6G16G15G29G26G17
  22045647.637    14205890.56143  11074306.33942  22045648.686    22045650.224
        51.000          45.000
  24983358.359     -529537.45743   -407381.68342  24983359.799    24983356.513
        41.000          35.000
  20613936.213     -410931.45643   -320590.66742  20613938.936    20613937.182
        52.000          44.000
  20559595.550    14823134.75143  11552783.80742  20559597.198    20559594.701
        55.000          50.000
  21416738.408    16720386.33743  13016661.63042  21416740.034    21416740.235
        53.000          47.000
  23465883.424    15790379.11843  12302094.71342  23465885.298    23465885.652
        46.000          39.000
  21674390.600    14239762.78543  11106446.71242  21674391.922    21674392.293
        48.000          43.000
  23719405.889    16618608.70243  12940255.41342  23719407.383    23719406.721
        48.000          40.000
  21643621.714    15942402.05443  12418481.93342  21643622.995    21643622.524
        50.000          44.000
  21339007.377       92273.74143     67702.43742  21339008.212    21339008.868
        53.000          47.000
 03  7  1 16 31 40.0000000  0 10G23G 2G21G18G 6G16G15G29G26G17
  22038450.958    14168076.45543  11044840.81442  22038452.350    22038452.751
        50.000          45.000
  24981847.695     -537465.01343   -413559.03642  24981850.866    24981851.461
        41.000          35.000
  20614150.214     -409808.50443   -319715.65242  20614152.522    20614150.147
        52.000          45.000
  20556623.761    14807516.11543  11540613.43642  20556625.676    20556622.608
        55.000          50.000
  21426268.732    16770468.49543  13055686.67242  21426270.387    21426271.304
        53.000          48.000
  23469364.744    15808667.00343  12316344.97442  23469365.495    23469364.428
        47.000          39.000
  21667045.509    14201170.53943  11076374.84042  21667046.835    21667048.724
        47.000          43.000
  23728286.091    16665272.25643  12976616.59542  23728288.137    23728286.787
        48.000          40.000
  21648318.228    15967082.48743  12437713.41642  21648320.203    21648318.909
        50.000          44.000
  21342800.626      112206.96243     83234.80242  21342801.698    21342802.132
        53.000          47.000
 03  7  1 16 32  0.0000000  0 10G23G 2G21G18G 6G16G15G29G26G17
  22031282.885    14130411.05043  11015491.14542  22031284.534    22031284.537
        50.000          44.000
  24980375.485     -545210.60243   -419594.56942  24980374.008    24980376.250
        44.000          34.000
  20614382.752     -408586.17743   -318763.20642  20614384.725    20614384.099
        52.000          45.000
  20553685.502    14792076.90843  11528582.88142  20553687.464    20553684.737
        55.000          50.000
  21435833.684    16820727.80443  13094849.75842  21435835.070    21435835.582
        54.000          48.000
  23472881.756    15827155.72643  12330751.72342  23472883.605    23472883.858
        46.000          39.000
  21659713.175    14162629.64243  11046342.97542  21659713.394    21659713.681
        48.000          42.000
  23737199.259    16712112.88743  13013115.77242  23737202.873    23737199.378
        48.000          40.000
  21653068.316    15992044.01643  12457163.93042  21653069.536    21653069.582
        51.000          44.000
  21346610.298      132227.23043     98835.00442  21346610.955    21346611.561
        54.000          47.000
 03  7  1 16 32 20.0000000  0 10G23G 2G21G18G 6G16G15G29G26G17
  22024146.293    14092897.30743  10986259.65642  22024146.947    22024145.717
        50.000          44.000
  24978935.997     -552771.43643   -425486.25442  24978938.888    24978936.183
        45.000          36.000
  20614634.615     -407261.36743   -317730.89342  20614636.917    20614635.527
        52.000          45.000
  20550782.250    14776819.91843  11516694.31342  20550784.036    20550781.755
        55.000          50.000
  21445432.328    16871166.58443  13134152.68542  21445433.917    21445433.208
        54.000          48.000
  23476437.318    15845847.64643  12345316.83242  23476440.771    23476442.112
        45.000          39.000
  21652389.865    14124142.96243  11016353.37842  21652389.623    21652389.362
        48.000          43.000
  23746146.716    16759132.69343  13049754.55142  23746146.904    23746149.349
        47.000          40.000
  21657872.097    16017289.09043  12476835.38742  21657874.027    21657873.690
        50.000          45.000
  21350437.243      152337.45143    114505.28642  21350438.728    21350437.853
        54.000          47.000
 03  7  1 16 32 40.0000000  0 10G23G 2G21G18G 6G16G15G29G26G17
  22017036.018    14055532.15343  10957143.97442  22017036.885    22017035.465
        51.000          44.000
  24977531.625     -560150.82043   -431236.45742  24977532.948    24977532.693
        45.000          36.000
  20614906.223     -405837.04043   -316621.04542  20614907.505    20614906.220
        52.000          45.000
  20547913.087    14761741.87943  11504945.18542  20547914.857    20547912.632
        55.000          50.000
  21455063.570    16921781.18043  13173592.61042  21455065.758    21455065.241
        54.000          48.000
  23480033.746    15864739.24943  12360037.53242  23480035.529    23480036.692
        45.000          39.000
  21645074.658    14085707.66343  10986403.80542  21645075.487    21645076.393
        49.000          43.000
  23755128.283    16806328.00843  13086530.09642  23755128.972    23755130.958
        48.000          41.000
  21662729.556    16042814.16943  12496725.01342  21662730.907    21662731.516
        50.000          45.000
  21354280.741      172534.30643    130243.07242  21354281.830    21354282.026
        54.000          47.000
 03  7  1 16 33  0.0000000  0 10G23G 2G21G18G 6G16G15G29G26G17
  22009953.394    14018318.82043  10928146.60242  22009954.289    22009953.108
        51.000          44.000
  24976162.816     -567345.48543   -436842.72142  24976163.137    24976162.630
        46.000          36.000
  20615196.237     -404309.71643   -315430.93342  20615197.961    20615196.837
        53.000          46.000
  20545078.024    14746845.74243  11493337.80442  20545079.732    20545077.760
        55.000          50.000
  21464729.038    16972574.34843  13213171.67642  21464730.921    21464730.376
        55.000          47.000
  23483666.883    15883833.00043  12374915.74942  23483667.706    23483669.184
        45.000          38.000
  21637770.273    14047327.03443  10956496.83842  21637771.506    21637772.379
        48.000          43.000
  23764142.306    16853701.19443  13123444.23542  23764144.022    23764145.484
        48.000          41.000
  21667640.981    16068621.98543  12516834.96942  21667642.782    21667642.687
        51.000          45.000
  21358141.457      192821.69243    146051.39442  21358141.974    21358142.567
        54.000          47.000
 03  7  1 16 33 20.0000000  0 10G23G 2G21G18G 6G16G15G29G26G17
  22002900.920    13981256.45743  10899266.86542  22002902.289    22002901.162
        51.000          44.000
  24974828.190     -574356.56143   -442305.94142  24974829.112    24974828.526
        46.000          37.000
  20615506.629     -402680.20743   -314161.19142  20615508.240    20615507.001
        53.000          46.000
  20542277.741    14732130.50743  11481871.38442  20542279.395    20542277.482
        54.000          50.000
  21474427.969    17023544.68343  13252888.78442  21474429.752    21474428.579
        54.000          47.000
  23487339.193    15903127.43143  12389950.34542  23487341.084    23487339.173
        45.000          38.000
  21630477.122    14009000.52543  10926632.02542  21630478.066    21630479.546
        47.000          43.000
  23773191.280    16901251.00343  13160496.01142  23773191.655    23773194.802
        48.000          41.000
  21672606.126    16094711.32343  12537164.30342  21672607.896    21672608.179
        51.000          45.000
  21362018.863      213198.53743    161929.41842  21362020.233    21362020.417
        54.000          47.000
 03  7  1 16 33 40.0000000  0 10G23G 2G21G18G 6G16G15G29G26G17
  21995877.200    13944345.91343  10870505.43342  21995878.278    21995878.502
        52.000          45.000
  24973528.998     -581183.31643   -447625.52142  24973530.605    24973531.891
        46.000          37.000
  20615836.482     -400947.33543   -312810.91142  20615838.795    20615836.020
        54.000          46.000
  20539511.709    14717596.92743  11470546.50642  20539513.604    20539511.721
        54.000          50.000
  21484161.249    17074692.43643  13292744.15342  21484162.951    21484161.378
        54.000          47.000
  23491048.651    15922622.94143  12405141.61942  23491050.660    23491047.318
        44.000          38.000
  21623194.935    13970729.27843  10896810.28442  21623195.108    21623196.441
        48.000          43.000
  23782272.680    16948977.39843  13197685.38642  23782274.495    23782275.484
        47.000          41.000
  21677624.320    16121082.61843  12557713.35142  21677625.804    21677626.378
        51.000          45.000
  21365913.789      233665.96743    177878.02842  21365914.615    21365915.220
        54.000          47.000
 03  7  1 16 34  0.0000000  0 10G23G 2G21G18G 6G16G15G29G26G17
  21988880.666    13907581.38243  10841857.77342  21988882.076    21988883.429
        52.000          45.000
  24972264.019     -587831.73043   -452806.14842  24972264.887    24972263.838
        46.000          37.000
  20616185.214     -399116.86343   -311384.58842  20616187.533    20616184.419
        54.000          46.000
  20536780.095    14703239.03543  11459358.53242  20536781.395    20536779.529
        54.000          50.000
  21493927.298    17126011.29843  13332732.84742  21493928.410    21493927.212
        54.000          47.000
  23494795.537    15942313.03143  12420484.51742  23494795.994    23494795.044
        45.000          38.000
  21615921.820    13932507.58443  10867027.16442  21615922.501    21615921.982
        48.000          43.000
  23791387.441    16996874.06843  13235007.43742  23791388.135    23791390.403
        48.000          41.000
  21682694.572    16147729.61343  12578477.22842  21682697.030    21682696.264
        51.000          45.000
  21369824.464      254218.37043    193892.85942  21369824.970    21369826.121
        53.000          47.000
 03  7  1 16 34 20.0000000  0 10G23G 2G21G18G 6G16G15G29G26G17
  21981914.782    13870972.58143  10813331.46342  21981915.526    21981916.240
        52.000          45.000
  24971033.946     -594292.25343   -457840.34842  24971034.279    24971034.345
        46.000          37.000
  20616553.941     -397178.95743   -309874.56142  20616556.255    20616553.273
        55.000          46.000
  20534082.903    14689066.33543  11448314.86642  20534084.298    20534082.340
        54.000          50.000
  21503727.181    17177510.37743  13372861.96642  21503728.715    21503726.892
        53.000          46.000
  23498582.742    15962206.79443  12435986.12542  23498583.933    23498581.041
        46.000          39.000
  21608659.794    13894345.26743  10837290.31242  21608660.983    21608660.692
        49.000          43.000
  23800535.629    17044950.00643  13272469.17542  23800536.722    23800538.910
        47.000          41.000
  21687819.239    16174661.46843  12599463.07642  21687821.592    21687822.477
        51.000          45.000
  21373753.121      274865.29043    209981.33742  21373754.351    21373754.885
        53.000          47.000
 03  7  1 16 34 40.0000000  0 10G23G 2G21G18G 6G16G15G29G26G17
  21974976.524    13834510.84143  10784919.74542  21974977.672    21974978.156
        52.000          44.000
  24969838.449     -600573.65443   -462734.96242  24969837.882    24969840.752
        45.000          37.000
  20616941.912     -395141.98243   -308287.34242  20616944.154    20616940.583
        56.000          46.000
  20531419.497    14675070.07443  11437408.68242  20531421.004    20531418.711
        54.000          50.000
  21513559.796    17229180.52443  13413124.38142  21513561.147    21513558.640
        53.000          46.000
  23502405.512    15982294.98843  12451639.22042  23502406.186    23502404.154
        47.000          39.000
  21601407.315    13856233.87843  10807593.12942  21601408.565    21601408.196
        49.000          43.000
  23809716.844    17093195.72943  13310063.23342  23809718.216    23809719.132
        47.000          40.000
  21692996.745    16201869.16443  12620663.86742  21692998.246    21692999.780
        51.000          45.000
  21377698.582      295598.58843    226137.12842  21377699.562    21377700.985
        52.000          46.000
 03  7  1 16 35  0.0000000  0 10G23G 2G21G18G 6G16G15G29G26G17
  21968066.616    13798202.03743  10756627.20042  21968068.658    21968067.456
        51.000          44.000
  24968678.847     -606670.27543   -467485.60642  24968680.231    24968680.245
        45.000          37.000
  20617348.976     -393000.21943   -306618.45942  20617351.845    20617348.236
        56.000          46.000
  20528790.650    14661255.57543  11426644.12842  20528792.386    20528789.819
        54.000          50.000
  21523425.148    17281027.05243  13453524.24342  21523426.876    21523425.028
        53.000          46.000
  23506264.561    16002582.89643  12467447.95442  23506267.247    23506264.905
        47.000          40.000
  21594165.958    13818179.64843  10777940.49642  21594166.522    21594166.771
        49.000          43.000
  23818931.190    17141616.50243  13347793.67942  23818932.775    23818932.620
        47.000          40.000
  21698227.870    16229358.10643  12642083.78942  21698228.839    21698230.115
        50.000          45.000
  21381661.888      316424.23843    242364.88042  21381662.789    21381663.684
        53.000          47.000
 03  7  1 16 35 20.0000000  0 10G23G 2G21G18G 6G16G15G29G26G17
  21961185.642    13762043.09243  10728451.41642  21961187.304    21961185.444
        51.000          44.000
  24967553.045     -612585.43843   -472094.84742  24967552.848    24967554.771
        45.000          36.000
  20617775.743     -390756.06943   -304869.78842  20617778.221    20617774.670
        55.000          46.000
  20526195.920    14647619.74943  11416018.80542  20526197.269    20526195.327
        55.000          50.000
  21533323.173    17333046.25643  13494058.66542  21533324.985    21533323.735
        52.000          45.000
  23510162.904    16023066.67843  12483409.31842  23510164.693    23510162.939
        47.000          40.000
  21586934.976    13780179.51643  10748330.01742  21586936.019    21586934.167
        49.000          43.000
  23828178.012    17190208.65043  13385657.67142  23828179.954    23828178.580
        47.000          40.000
  21703510.348    16257124.80043  12663720.14342  21703511.939    21703513.872
        49.000          44.000
  21385642.138      337338.56643    258661.73142  21385642.729    21385643.713
        53.000          47.000
 03  7  1 16 35 40.0000000  0 10G23G 2G21G18G 6G16G15G29G26G17
  21954333.848    13726034.93143  10700393.12442  21954335.103    21954333.730
        51.000          44.000
  24966462.410     -618318.33943   -476562.09942  24966463.475    24966461.955
        45.000          36.000
  20618222.345     -388408.70843   -303040.69042  20618224.939    20618220.921
        55.000          46.000
  20523635.461    14634163.30143  11405533.26642  20523636.996    20523634.184
        55.000          50.000
  21543254.967    17385238.52143  13534727.93842  21543256.426    21543256.552
        52.000          45.000
  23514097.978    16043746.65743  12499523.56342  23514100.306    23514100.159
        47.000          41.000
  21579713.924    13742234.48243  10718762.47742  21579714.566    21579714.536
        49.000          42.000
  23837456.923    17238972.30343  13423655.29842  23837458.821    23837460.032
        47.000          40.000
  21708847.938    16285169.52943  12685573.13642  21708849.109    21708850.334
        49.000          44.000
  21389638.883      358343.47743    275029.16842  21389639.865    21389640.479
        53.000          47.000
 03  7  1 16 36  0.0000000  0 10G23G 2G21G18G 6G16G15G29G26G17
  21947510.986    13690181.35243  10672455.29042  21947511.926    21947511.096
        51.000          45.000
  24965405.484     -623865.25643   -480884.37442  24965409.450    24965406.460
        41.000          34.000
  20618689.834     -385954.09143   -301128.01242  20618692.165    20618688.874
        55.000          47.000
  20521109.927    14620889.88443  11395190.34642  20521111.324    20521108.013
        56.000          50.000
  21553221.090    17437607.10243  13575534.60842  21553222.329    21553221.676
        52.000          45.000
  23518072.103    16064626.18043  12515793.30742  23518072.857    23518073.109
        46.000          41.000
  21572502.825    13704348.50143  10689240.95542  21572503.294    21572506.057
        47.000          42.000
  23846769.586    17287910.47143  13461788.89742  23846771.698    23846772.406
        47.000          40.000
  21714237.795    16313495.75743  12707645.49942  21714239.564    21714240.641
        50.000          44.000
  21393654.476      379442.47843    291469.93042  21393655.465    21393655.649
        54.000          47.000
 03  7  1 16 36 20.0000000  0 10G23G 2G21G18G 6G16G15G29G26G17
  21940716.441    13654473.36843  10644630.91142  21940718.231    21940717.406
        52.000          45.000
  24964384.283     -629235.42943   -485068.98742  24964383.670    24964386.909
        40.000          34.000
  20619175.933     -383400.83443   -299138.48342  20619177.542    20619174.694
        55.000          48.000
  20518617.089    14607790.33243  11384982.91442  20518618.702    20518615.422
        56.000          50.000
  21563219.393    17490142.49043  13616471.23942  21563221.265    21563219.388
        53.000          46.000
  23522081.323    16085695.68643  12532211.09142  23522081.765    23522082.713
        46.000          41.000
  21565304.117    13666512.71543  10659758.53542  21565306.134    21565306.454
        47.000          41.000
  23856113.826    17337013.70543  13500051.13242  23856115.080    23856117.781
        47.000          40.000
  21719680.929    16342094.06243  12729929.86042  21719682.029    21719683.050
        50.000          44.000
  21397685.958      400626.96243    307977.29842  21397686.712    21397686.757
        54.000          47.000
 03  7  1 16 36 40.0000000  0 10G23G 2G21G18G 6G16G15G29G26G17
  21933950.614    13618918.05643  10616925.48742  21933952.344    21933951.078
        52.000          46.000
  24963397.743     -634421.96943   -489110.48042  24963402.460    24963399.438
        40.000          33.000
  20619681.733     -380741.88843   -297066.60042  20619683.849    20619681.473
        56.000          48.000
  20516158.339    14594871.40743  11374916.22842  20516160.240    20516156.996
        56.000          49.000
  21573249.980    17542851.19443  13657542.91242  21573251.111    21573250.376
        54.000          47.000
  23526127.302    16106961.53343  12548781.87042  23526128.512    23526130.474
        45.000          40.000
  21558116.804    13628734.56543  10630321.02642  21558115.896    21558117.384
        47.000          41.000
  23865491.029    17386288.29743  13538446.89442  23865492.746    23865493.635
        47.000          40.000
  21725175.423    16370970.94543  12752431.29542  21725177.256    21725178.025
        50.000          44.000
  21401734.319      421904.08143    324556.85242  21401734.766    21401735.746
        53.000          47.000
 03  7  1 16 37  0.0000000  0 10G23G 2G21G18G 6G16G15G29G26G17
  21927212.752    13583512.91343  10589337.08042  21927215.313    21927214.129
        52.000          46.000
  24962444.999     -639427.49543   -493010.95042  24962445.569    24962442.711
        40.000          33.000
  20620207.636     -377979.60543   -294914.19242  20620209.719    20620207.899
        56.000          49.000
  20513733.739    14582130.49843  11364988.25542  20513735.538    20513732.407
        56.000          49.000
  21583312.793    17595730.23343  13698747.32042  21583314.119    21583312.342
        54.000          47.000
  23530211.544    16128420.71143  12565503.29742  23530212.371    23530213.640
        45.000          40.000
  21550936.820    13591011.84343  10600926.71942  21550937.260    21550938.530
        46.000          40.000
  23874899.688    17435731.06543  13576973.70042  23874901.717    23874904.094
        46.000          40.000
  21730723.052    16400123.49543  12775147.53642  21730725.198    21730725.442
        50.000          44.000
  21405800.236      443271.52643    341206.78742  21405801.379    21405801.460
        53.000          47.000
 03  7  1 16 37 20.0000000  0 10G23G 2G21G18G 6G16G15G29G26G17
  21920503.827    13548257.54343  10561865.37442  21920505.386    21920505.275
        52.000          46.000
  24961528.075     -644252.57743   -496770.81942  24961527.931    24961530.665
        41.000          34.000
  20620752.783     -375114.47043   -292681.63242  20620754.736    20620752.597
        56.000          49.000
  20511343.015    14569567.00843  11355198.53842  20511344.628    20511341.611
        56.000          49.000
  21593406.665    17648778.60943  13740083.68242  21593408.581    21593407.449
        54.000          47.000
  23534330.932    16150071.94243  12582374.39042  23534332.787    23534333.962
        45.000          39.000
  21543769.897    13553344.30143  10571575.40942  21543770.945    21543768.584
        46.000          40.000
  23884339.728    17485340.91943  13615630.70842  23884341.317    23884342.765
        46.000          40.000
  21736323.416    16429550.84043  12798077.89942  21736325.192    21736325.551
        50.000          44.000
  21409883.699      464728.95343    357926.84042  21409884.427    21409885.214
        53.000          47.000
 03  7  1 16 37 40.0000000  0 11G23G 2G 3G21G18G 6G16G15G29G26G17
  21913823.201    13513151.16843  10534509.77042  21913824.647    21913824.480
        52.000          46.000
  24960643.089     -648898.10443   -500390.74442  24960645.647    24960644.918
        41.000          34.000
  24612795.486    -2016144.35553  -1532335.31452  24612796.443    24612794.165
        46.000          38.000
  20621317.385     -372146.38143   -290368.84342  20621319.276    20621317.701
        56.000          49.000
  20508985.786    14557179.97043  11345546.31942  20508987.633    20508985.010
        56.000          49.000
  21603533.687    17701994.99443  13781550.95842  21603535.467    21603534.285
        54.000          47.000
  23538487.069    16171914.03543  12599394.18142  23538486.838    23538488.402
        44.000          39.000
  21536613.313    13515731.36243  10542266.65842  21536613.639    21536614.062
        46.000          39.000
  23893812.362    17535116.44643  13654416.80842  23893814.684    23893814.481
        46.000          39.000
  21741975.246    16459251.67043  12821221.38042  21741976.848    21741976.340
        51.000          44.000
  21413984.277      486275.57343    374716.41042  21413984.895    21413985.641
        52.000          47.000
 03  7  1 16 38  0.0000000  0 11G23G 2G 3G21G18G 6G16G15G29G26G17
  21907172.130    13478198.38843  10507273.84742  21907173.262    21907173.797
        52.000          46.000
  24959794.071     -653359.66343   -503867.29442  24959794.411    24959798.095
        40.000          35.000
  24600232.561    -2082157.01343  -1583773.71042  24600235.024    24600234.181
        45.000          38.000
  20621902.528     -369070.89243   -287972.35642  20621904.548    20621902.750
        56.000          49.000
  20506662.990    14544973.75743  11336035.00042  20506664.551    20506662.139
        56.000          49.000
  21613692.680    17755383.36943  13823152.25542  21613694.923    21613693.870
        53.000          46.000
  23542680.851    16193950.83643  12616565.70642  23542683.500    23542682.361
        44.000          38.000
  21529465.643    13478177.90443  10513004.22642  21529465.196    21529468.045
        44.000          39.000
  23903317.546    17585061.62543  13693335.12642  23903319.442    23903317.541
        45.000          39.000
  21747679.793    16489230.09143  12844581.16442  21747681.162    21747681.118
        51.000          44.000
  21418102.183      507916.20043    391579.21442  21418102.652    21418103.339
        52.000          47.000
 03  7  1 16 38 20.0000000  0 11G23G 2G 3G21G18G 6G16G15G29G26G17
  21900549.309    13443396.24843  10480155.31442  21900550.607    21900550.667
        51.000          45.000
  24958979.287     -657640.44743   -507202.97342  24958983.284    24958984.708
        41.000          35.000
  24587684.905    -2148098.53443  -1635156.66642  24587686.251    24587685.617
        46.000          38.000
  20622508.123     -365890.77644   -285494.34942  20622509.774    20622507.772
        57.000          49.000
  20504374.243    14532945.26443  11326662.15742  20504375.494    20504373.159
        56.000          49.000
  21623883.101    17808940.30043  13864884.90242  21623885.450    21623884.531
        52.000          46.000
  23546910.709    16216178.84143  12633886.21642  23546913.461    23546911.379
        44.000          38.000
  21522330.394    13440681.10843  10483785.93042  21522329.893    21522330.862
        44.000          39.000
  23912853.368    17635172.70943  13732382.71342  23912856.231    23912854.951
        46.000          39.000
  21753436.019    16519482.67343  12868154.60742  21753438.713    21753438.355
        51.000          44.000
  21422237.778      529647.97043    408513.04542  21422237.973    21422239.376
        52.000          47.000
 03  7  1 16 38 40.0000000  0 11G23G 2G 3G21G18G 6G16G15G29G26G17
  21893955.036    13408746.57043  10453155.57842  21893956.521    21893956.146
        51.000          44.000
  24958200.511     -661738.64343   -510396.40342  24958201.449    24958201.733
        42.000          36.000
  24575150.398    -2213966.25443  -1686482.13942  24575151.312    24575153.104
        46.000          39.000
  20623133.518     -362603.86344   -282933.12042  20623135.384    20623133.176
        57.000          49.000
  20502119.085    14521095.95843  11317428.93842  20502120.903    20502118.505
        56.000          49.000
  21634107.591    17862667.09743  13906749.91542  21634109.782    21634109.208
        52.000          46.000
  23551175.828    16238599.34143  12651356.73942  23551177.204    23551179.359
        43.000          36.000
  21515207.248    13403243.07443  10454613.44242  21515207.131    21515205.854
        44.000          39.000
  23922419.823    17685450.85143  13771560.46542  23922421.905    23922420.973
        45.000          38.000
  21759246.763    16550010.85443  12891942.79142  21759247.556    21759246.794
        51.000          44.000
  21426391.147      551473.26743    425519.74942  21426391.863    21426392.425
        53.000          47.000
 03  7  1 16 39  0.0000000  0 11G23G 2G 3G21G18G 6G16G15G29G26G17
  21887390.415    13374247.08743  10426272.88242  21887392.179    21887390.208
        51.000          44.000
  24957454.791     -665656.73043   -513449.49042  24957456.973    24957457.631
        42.000          36.000
  24562629.717    -2279761.70543  -1737751.28342  24562631.740    24562631.222
        46.000          39.000
  20623778.759     -359212.57444   -280290.57242  20623781.013    20623778.644
        57.000          49.000
  20499897.990    14509423.52943  11308333.54542  20499899.347    20499897.478
        56.000          50.000
  21644362.893    17916560.84743  13948745.01242  21644364.645    21644364.015
        52.000          45.000
  23555479.256    16261209.45443  12668974.97742  23555479.893    23555478.236
        43.000          36.000
  21508094.081    13365861.75543  10425485.15242  21508094.660    21508092.834
        45.000          39.000
  23932019.979    17735893.22543  13810866.18242  23932021.210    23932021.188
        45.000          38.000
  21765107.772    16580811.77443  12915943.50042  21765109.432    21765109.996
        51.000          44.000
  21430561.316      573389.93543    442597.65342  21430561.834    21430562.362
        53.000          47.000
 03  7  1 16 39 20.0000000  0 11G23G 2G 3G21G18G 6G16G15G29G26G17
  21880853.230    13339898.03543  10399507.41142  21880855.337    21880853.562
        51.000          44.000
  24956742.886     -669394.77343   -516362.29942  24956745.276    24956747.670
        43.000          37.000
  24550122.984    -2345483.94943  -1788963.39442  24550124.865    24550126.077
        46.000          40.000
  20624444.524     -355716.51944   -277566.39242  20624446.583    20624443.497
        58.000          49.000
  20497710.923    14497928.09143  11299376.06142  20497712.350    20497709.969
        56.000          50.000
  21654650.009    17970621.12343  13990869.87942  21654651.617    21654651.816
        52.000          45.000
  23559818.236    16284008.65743  12686740.53542  23559821.081    23559817.613
        45.000          36.000
  21500990.999    13328537.50943  10396401.33642  21500992.085    21500992.653
        45.000          40.000
  23941650.010    17786499.29643  13850299.46342  23941652.286    23941650.018
        45.000          38.000
  21771020.969    16611885.21243  12940156.55842  21771023.017    21771023.245
        52.000          45.000
  21434749.272      595398.07743    459746.83542  21434750.056    21434750.617
        53.000          47.000
 03  7  1 16 39 40.0000000  0 11G23G 2G 3G21G18G 6G16G15G29G26G17
  21874345.768    13305699.05643  10372858.86842  21874347.505    21874344.846
        52.000          44.000
  24956066.305     -672953.37743   -519135.26942  24956067.128    24956068.697
        42.000          37.000
  24537629.926    -2411132.46843  -1840118.05242  24537631.428    24537633.371
        45.000          40.000
  20625129.827     -352115.14444   -274760.14642  20625131.791    20625128.704
        58.000          50.000
  20495556.652    14486608.94843  11290555.94842  20495558.580    20495556.018
        56.000          50.000
  21664969.412    18024847.21743  14033123.95542  21664970.734    21664971.867
        52.000          45.000
  23564193.446    16306996.09743  12704652.78442  23564195.158    23564191.835
        45.000          37.000
  21493898.894    13291270.33543  10367361.97742  21493900.176    21493900.937
        45.000          40.000
  23951310.856    17837268.15643  13889859.57642  23951313.786    23951310.776
        45.000          37.000
  21776985.364    16643230.25443  12964581.24742  21776987.719    21776988.855
        51.000          45.000
  21438954.628      617497.65543    476967.26442  21438955.272    21438956.269
        52.000          47.000
 03  7  1 16 40  0.0000000  0 11G23G 2G 3G21G18G 6G16G15G29G26G17
  21867867.317    13271650.38543  10346327.46342  21867868.799    21867867.475
        53.000          44.000
  24955423.674     -676332.29343   -521768.20942  24955424.862    24955425.429
        41.000          36.000
  24525151.727    -2476706.31443  -1891214.52142  24525153.246    24525155.077
        44.000          40.000
  20625835.384     -348408.20944   -271871.64542  20625837.376    20625834.129
        58.000          50.000
  20493436.324    14475466.20443  11281873.29142  20493437.717    20493435.891
        56.000          50.000
  21675319.901    18079238.83943  14075507.00842  21675322.286    21675321.967
        52.000          46.000
  23568602.606    16330171.40243  12722711.43842  23568604.590    23568604.359
        44.000          37.000
  21486816.117    13254060.73343  10338367.52142  21486817.907    21486820.813
        44.000          40.000
  23961002.889    17888199.26243  13929546.13742  23961003.092    23961002.429
        45.000          37.000
  21783002.574    16674846.78243  12989217.48142  21783004.285    21783004.788
        51.000          45.000
  21443177.556      639688.95743    494259.17142  21443177.940    21443179.403
        52.000          47.000
 03  7  1 16 40 20.0000000  0 11G23G 2G 3G21G18G 6G16G15G29G26G17
  21861417.992    13237760.18843  10319919.55742  21861420.146    21861417.744
        53.000          45.000
  24954814.678     -679523.53243   -524254.90942  24954816.951    24954820.501
        40.000          36.000
  24512689.388    -2542196.50043  -1942245.81742  24512690.901    24512694.171
        45.000          40.000
  20626562.061     -344587.40544   -268894.41542  20626564.311    20626561.008
        58.000          50.000
  20491350.850    14464507.97243  11273334.41442  20491352.744    20491350.391
        56.000          50.000
  21685704.316    18133803.55243  14118024.93742  21685705.303    21685704.700
        53.000          46.000
  23573049.846    16353542.12643  12740922.37042  23573051.420    23573051.175
        45.000          38.000
  21479746.843    13216917.05943  10309424.40242  21479749.029    21479753.383
        44.000          40.000
  23970726.782    17939300.14043  13969364.99542  23970728.481    23970723.666
        44.000          36.000
  21789072.201    16706742.44343  13014071.20742  21789074.306    21789074.628
        51.000          45.000
  21447419.178      661980.41343    511629.11942  21447419.877    21447421.159
        52.000          46.000
 03  7  1 16 40 40.0000000  0 11G23G 2G 3G21G18G 6G16G15G29G26G17
  21854994.700    13204005.31943  10293617.09542  21854996.114    21854994.755
        53.000          45.000
  24954239.643     -682550.40743   -526613.55142  24954238.498    24954241.386
        41.000          36.000
  24500238.399    -2607625.73143  -1993229.61842  24500240.649    24500243.006
        45.000          40.000
  20627306.711     -340675.76944   -265846.40342  20627308.891    20627305.908
        58.000          50.000
  20489296.203    14453710.81143  11264921.04642  20489297.683    20489295.591
        56.000          49.000
  21696116.480    18188517.68443  14160659.28142  21696118.457    21696115.171
        54.000          46.000
  23577529.866    16377084.49843  12759267.06342  23577531.903    23577531.096
        45.000          38.000
  21472690.983    13179816.39343  10280514.79342  21472689.709    21472692.218
        45.000          39.000
  23980480.027    17990547.06643  14009297.66342  23980480.447    23980476.723
        44.000          35.000
  21795189.945    16738893.60943  13039124.03342  21795192.626    21795193.456
        51.000          45.000
  21451675.580      684349.40643    529059.48942  21451676.668    21451678.515
        52.000          46.000
 03  7  1 16 41  0.0000000  0 11G23G 2G 3G21G18G 6G16G15G29G26G17
  21848601.665    13170407.92843  10267437.35242  21848602.510    21848600.553
        53.000          45.000
  24953698.737     -685391.03943   -528827.05542  24953699.151    24953702.873
        39.000          35.000
  24487804.340    -2672970.97643  -2044147.98842  24487805.547    24487808.377
        45.000          40.000
  20628072.843     -336651.00644   -262710.23842  20628074.804    20628071.873
        58.000          50.000
  20487276.328    14443096.72443  11256650.33942  20487278.248    20487275.579
        56.000          49.000
  21706560.527    18243402.73743  14203426.81642  21706562.960    21706559.629
        54.000          46.000
  23582047.091    16400819.97643  12777762.22942  23582047.895    23582047.115
        46.000          38.000
  21465642.546    13142781.20843  10251656.23742  21465641.776    21465645.030
        46.000          39.000
  23990263.268    18041961.47143  14049360.87842  23990262.851    23990264.121
        44.000          35.000
  21801360.583    16771321.81643  13064392.72442  21801362.887    21801363.663
        51.000          45.000
  21455951.836      706818.36843    546567.75142  21455952.956    21455954.296
        52.000          46.000
 03  7  1 16 41 20.0000000  0 11G23G 2G 3G21G18G 6G16G15G29G26G17
  21842237.672    13136965.16943  10241378.10642  21842238.727    21842237.367
        53.000          45.000
  24953190.728     -688048.36643   -530897.72142  24953190.080    24953197.130
        38.000          34.000
  24475384.660    -2738234.32043  -2095002.51542  24475387.028    24475388.953
        46.000          40.000
  20628859.539     -332515.76444   -259487.98042  20628861.485    20628858.509
        58.000          50.000
  20485291.349    14432662.50843  11248519.79342  20485292.542    20485290.117
        56.000          49.000
  21717038.077    18298455.36843  14246324.92142  21717039.012    21717035.521
        54.000          46.000
  23586600.437    16424745.02643  12796405.10542  23586600.532    23586601.047
        45.000          38.000
  21458606.015    13105808.81743  10222846.61642  21458608.151    21458608.273
        47.000          39.000
  24000078.077    18093539.65443  14089551.65342  24000079.388    24000078.784
        44.000          35.000
  21807583.132    16804023.63843  13089874.63242  21807585.206    21807586.799
        50.000          45.000
  21460246.072      729384.27643    564151.55542  21460246.979    21460248.178
        53.000          47.000
 03  7  1 16 41 40.0000000  0 11G23G 2G 3G21G18G 6G16G15G29G26G17
  21835901.387    13103669.69743  10215433.61542  21835903.189    21835901.952
        52.000          45.000
  24952720.276     -690529.95443   -532831.41242  24952721.465    24952727.364
        40.000          35.000
  24462979.372    -2803422.32943  -2145798.34442  24462981.260    24462983.909
        44.000          40.000
  20629666.343     -328277.24544   -256185.24442  20629668.100    20629665.300
        57.000          50.000
  20483338.487    14422400.74843  11240523.62542  20483340.024    20483337.552
        56.000          49.000
  21727543.849    18353667.56343  14289347.35642  21727546.039    21727541.845
        54.000          46.000
  23591186.369    16448851.72443  12815189.50942  23591187.222    23591187.196
        47.000          38.000
  21451580.660    13068892.20443  10194080.46842  21451580.921    21451581.852
        46.000          38.000
  24009923.960    18145273.87743  14129864.02942  24009926.372    24009921.676
        44.000          36.000
  21813857.689    16836991.32443  13115563.71542  21813858.802    21813860.244
        51.000          44.000
  21464557.404      752039.84343    581805.22342  21464558.287    21464560.011
        53.000          47.000
 03  7  1 16 42  0.0000000  0 11G23G 2G 3G21G18G 6G16G15G29G26G17
  21829593.990    13070523.80443  10189605.67042  21829595.635    21829593.935
        52.000          45.000
  24952282.627     -692833.62743   -534626.52542  24952282.889    24952283.835
        40.000          35.000
  24450589.195    -2868531.97343  -2196533.10742  24450591.127    24450593.448
        45.000          40.000
  20630493.110     -323932.42244   -252799.67242  20630494.942    20630491.833
        57.000          50.000
  20481418.872    14412313.64743  11232663.55642  20481420.625    20481418.510
        55.000          49.000
  21738080.525    18409041.03443  14332495.46942  21738082.508    21738078.788
        54.000          46.000
  23595810.856    16473141.86243  12834116.85142  23595812.050    23595808.920
        46.000          39.000
  21444567.695    13032033.89743  10165359.73742  21444570.041    21444568.942
        45.000          38.000
  24019798.103    18197165.65743  14170299.17342  24019797.622    24019800.638
        43.000          35.000
  21820181.376    16870226.81843  13141461.48842  21820183.650    21820183.767
        51.000          45.000
  21468886.309      774787.21743    599530.43242  21468886.784    21468888.242
        54.000          47.000
 03  7  1 16 42 20.0000000  0 11G23G 2G 3G21G18G 6G16G15G29G26G17
  21823315.747    13037531.74543  10163897.59242  21823317.251    21823316.882
        51.000          45.000
  24951878.388     -694955.45843   -536279.91442  24951880.190    24951881.963
        43.000          35.000
  24438215.172    -2933558.27443  -2247202.92642  24438216.842    24438218.786
        44.000          40.000
  20631340.665     -319477.19344   -249328.06342  20631342.468    20631339.825
        57.000          50.000
  20479533.222    14402405.02243  11224942.55442  20479534.463    20479532.926
        55.000          49.000
  21748648.506    18464579.57043  14375772.19842  21748650.669    21748647.196
        53.000          45.000
  23600467.412    16497618.88243  12853189.82442  23600470.042    23600467.795
        46.000          39.000
  21437565.656    12995238.46343  10136687.99942  21437567.554    21437567.035
        45.000          38.000
  24029701.829    18249218.66843  14210859.95142  24029701.169    24029705.592
        42.000          35.000
  21826557.522    16903733.57243  13167570.63542  21826559.836    21826558.905
        51.000          45.000
  21473232.551      797631.33443    617331.02642  21473233.770    21473234.529
        53.000          47.000
 03  7  1 16 42 40.0000000  0 11G23G 2G 3G21G18G 6G16G15G29G26G17
  21817066.398    13004689.50043  10138306.23442  21817067.933    21817066.257
        51.000          45.000
  24951509.428     -696899.64343   -537794.89842  24951511.509    24951514.805
        43.000          36.000
  24425856.886    -2998504.61943  -2297810.44842  24425858.262    24425859.437
        46.000          40.000
  20632208.688     -314915.36344   -245773.39342  20632210.457    20632208.218
        57.000          50.000
  20477680.759    14392670.77043  11217357.42842  20477682.510    20477679.892
        54.000          49.000
  21759247.159    18520278.56743  14419173.97742  21759248.557    21759247.764
        52.000          45.000
  23605159.759    16522278.32543  12872404.95942  23605161.476    23605159.727
        47.000          39.000
  21430573.941    12958502.16443  10108062.34342  21430574.421    21430574.550
        44.000          38.000
  24039638.346    18301427.96943  14251542.47542  24039639.087    24039639.471
        43.000          35.000
  21832985.609    16937507.19443  13193887.72842  21832987.308    21832986.272
        52.000          45.000
  21477597.647      820568.79843    635204.35542  21477599.034    21477599.803
        53.000          46.000
 03  7  1 16 43  0.0000000  0 11G23G 2G 3G21G18G 6G16G15G29G26G17
  21810844.599    12971996.46043  10112831.13242  21810845.565    21810845.032
        50.000          45.000
  24951174.528     -698666.77043   -539171.93542  24951175.626    24951177.695
        45.000          37.000
  24413513.440    -3063370.60143  -2348355.33342  24413514.558    24413516.005
        46.000          40.000
  20633097.104     -310246.94044   -242135.66042  20633098.620    20633096.740
        57.000          51.000
  20475861.606    14383110.11243  11209907.57342  20475862.829    20475860.626
        54.000          48.000
  21769876.101    18576136.96443  14462699.97142  21769878.134    21769876.405
        51.000          45.000
  23609887.659    16547118.81243  12891761.14842  23609889.176    23609885.373
        47.000          39.000
  21423597.624    12921824.57943  10079482.40842  21423596.016    21423596.628
        44.000          38.000
  24049602.719    18353792.56143  14292346.01842  24049604.812    24049605.353
        43.000          35.000
  21839462.356    16971546.58243  13220411.91442  21839464.439    21839463.285
        52.000          45.000
  21481979.806      843598.06043    653149.22142  21481980.965    21481981.819
        53.000          46.000
 03  7  1 16 43 20.0000000  0 11G23G 2G 3G21G18G 6G16G15G29G26G17
  21804651.522    12939453.82143  10087473.23142  21804653.516    21804653.545
        50.000          45.000
  24950871.538     -700255.89643   -540410.25942  24950873.786    24950874.687
        45.000          37.000
  24401184.460    -3128154.33843  -2398836.15842  24401186.637    24401188.609
        45.000          39.000
  20634005.856     -305470.54344   -238413.79542  20634007.511    20634005.873
        57.000          51.000
  20474075.319    14373723.97643  11202593.70142  20474077.020    20474074.701
        54.000          48.000
  21780537.107    18632155.42943  14506350.69742  21780538.044    21780537.810
        51.000          45.000
  23614648.502    16572140.99743  12911258.93242  23614651.708    23614649.613
        46.000          39.000
  21416628.408    12885207.23143  10050949.43042  21416628.154    21416630.499
        43.000          37.000
  24059597.467    18406312.79843  14333270.84742  24059597.413    24059601.044
        42.000          35.000
  21845990.784    17005852.41343  13247143.71142  21845992.770    21845991.739
        52.000          45.000
  21486380.096      866720.87043    671166.97542  21486380.847    21486381.897
        53.000          46.000
 03  7  1 16 43 40.0000000  0 11G23G 2G 3G21G18G 6G16G15G29G26G17
  21798488.254    12907063.78043  10062234.24542  21798489.895    21798489.985
        51.000          46.000
  24950603.788     -701665.13943   -541508.42842  24950605.236    24950607.120
        44.000          37.000
  24388873.707    -3192852.94743  -2449250.60642  24388873.611    24388876.091
        45.000          39.000
  20634935.999     -300583.90444   -234606.02042  20634937.218    20634935.902
        57.000          51.000
  20472322.608    14364514.50043  11195417.48542  20472323.921    20472321.963
        53.000          48.000
  21791227.949    18688335.55043  14550127.36642  21791230.082    21791228.217
        52.000          45.000
  23619445.144    16597346.44443  12930899.49842  23619447.039    23619447.851
        45.000          39.000
  21409670.919    12848652.63443  10022465.31842  21409671.925    21409671.630
        40.000          37.000
  24069621.583    18458990.42143  14374318.31742  24069624.660    24069626.994
        41.000          34.000
  21852570.066    17040426.30743  13274084.38742  21852571.809    21852571.802
        52.000          45.000
  21490799.296      889940.33543    689260.04742  21490800.454    21490801.111
        53.000          46.000
 03  7  1 16 44  0.0000000  0 11G23G 2G 3G21G18G 6G16G15G29G26G17
  21792353.122    12874822.47043  10037111.15742  21792354.930    21792353.878
        53.000          46.000
  24950368.347     -702898.49043   -542469.51242  24950370.551    24950372.173
        44.000          37.000
  24376576.596    -3257469.67443  -2499601.29142  24376578.768    24376579.458
        46.000          39.000
  20635886.488     -295590.65244   -230715.17242  20635887.722    20635885.971
        57.000          51.000
  20470602.663    14355477.42143  11188375.60842  20470604.719    20470602.473
        53.000          48.000
  21801949.352    18744672.81343  14594026.48842  21801951.091    21801949.975
        53.000          46.000
  23624274.691    16622730.66243  12950679.41042  23624276.650    23624278.110
        45.000          39.000
  21402725.248    12812157.21043   9994027.30042  21402726.208    21402728.434
        38.000          37.000
  24079673.354    18511820.56643  14415484.65742  24079675.169    24079681.924
        38.000          33.000
  21859198.901    17075263.74743  13301230.42042  21859200.365    21859200.937
        52.000          45.000
  21495235.374      913252.39243    707425.27642  21495236.428    21495236.875
        53.000          46.000
 03  7  1 16 44 20.0000000  0 10G23G 2G 3G21G18G 6G16G15G26G17
  21786247.272    12842733.40343  10012106.71642  21786248.144    21786248.169
        54.000          47.000
  24950165.961     -703952.57443   -543290.90442  24950169.273    24950172.383
        42.000          37.000
  24364297.531    -3322000.07743  -2549884.68642  24364298.926    24364300.116
        46.000          39.000
  20636857.643     -290486.76344   -226738.11042  20636859.057    20636857.021
        57.000          51.000
  20468916.301    14346616.33143  11181470.85742  20468917.800    20468916.195
        53.000          48.000
  21812700.311    18801170.32943  14638050.47842  21812701.835    21812701.847
        53.000          46.000
  23629140.978    16648296.36043  12970600.73742  23629140.845    23629141.027
        44.000          39.000
  21395795.995    12775724.65843   9965638.29542  21395795.396    21395795.002
        38.000          37.000
  21865879.129    17110367.92343  13328584.28442  21865881.727    21865881.396
        52.000          45.000
  21499689.187      936660.57643    725665.40642  21499690.376    21499691.199
        53.000          46.000
 03  7  1 16 44 40.0000000  0 10G23G 2G 3G21G18G 6G16G15G26G17
  21780169.552    12810794.98943   9987219.66742  21780171.298    21780170.560
        54.000          46.000
  24949999.879     -704829.21443   -543974.01442  24949999.404    24950004.286
        39.000          36.000
  24352034.379    -3386444.88443  -2600101.35842  24352034.689    24352036.655
        46.000          38.000
  20637849.439     -285273.80444   -222676.07042  20637850.833    20637848.990
        57.000          51.000
  20467263.255    14337929.34043  11174701.77242  20467264.595    20467263.139
        53.000          48.000
  21823481.517    18857825.94043  14682197.66042  21823483.202    21823482.609
        53.000          46.000
  23634039.413    16674041.39843  12990661.80542  23634041.751    23634041.891
        44.000          39.000
  21388875.605    12739353.64643   9937297.27742  21388875.720    21388875.257
        41.000          37.000
  21872609.430    17145736.58743  13356144.26442  21872611.472    21872611.441
        52.000          45.000
  21504161.863      960163.39943    743979.28342  21504163.153    21504163.288
        53.000          46.000
 03  7  1 16 45  0.0000000  0 10G23G 2G 3G21G18G 6G16G15G26G17
  21774119.831    12779003.85043   9962447.38642  21774120.828    21774120.507
        54.000          46.000
  24949866.300     -705532.09743   -544521.72442  24949866.936    24949870.602
        39.000          35.000
  24339786.052    -3450806.99343  -2650253.58942  24339789.078    24339786.985
        47.000          38.000
  20638861.370     -279955.29744   -218531.78442  20638862.817    20638860.942
        57.000          51.000
  20465643.314    14329412.86543  11168065.55742  20465644.250    20465641.802
        53.000          49.000
  21834293.258    18914635.71443  14726464.97342  21834294.667    21834292.778
        54.000          47.000
  23638971.546    16699961.81443  13010859.51342  23638972.320    23638974.761
        45.000          39.000
  21381964.610    12703041.21343   9909001.86842  21381965.053    21381964.147
        38.000          36.000
  21879389.579    17181365.93643  13383907.35842  21879391.374    21879391.790
        52.000          45.000
  21508651.844      983757.92243    762364.61542  21508652.836    21508653.504
        52.000          46.000
 03  7  1 16 45 20.0000000  0 10G23G 2G 3G21G18G 6G16G15G26G17
  21768098.822    12747362.67643   9937791.96442  21768100.495    21768099.053
        54.000          46.000
  24949766.131     -706058.63543   -544932.02542  24949765.578    24949772.390
        38.000          35.000
  24327555.382    -3515082.71743  -2700338.50842  24327556.843    24327556.740
        47.000          38.000
  20639894.157     -274527.85744   -214302.61642  20639895.584    20639893.757
        57.000          51.000
  20464055.407    14321069.34943  11161564.12242  20464056.911    20464054.481
        53.000          49.000
  21845133.241    18971601.71143  14770854.01442  21845135.029    21845133.397
        54.000          47.000
  23643938.899    16726059.62343  13031195.44942  23643940.277    23643939.577
        45.000          39.000
  21375067.407    -3087409.80143  -2395245.68042  21375067.634    21375066.723
        38.000          36.000
  21886219.650    17217257.98943  13411875.16342  21886221.882    21886221.882
        53.000          45.000
  21513160.130     1007447.33343    780823.88542  21513160.610    21513160.785
        52.000          46.000
 03  7  1 16 45 40.0000000  0 10G23G 2G 3G21G18G 6G16G15G26G17
  21762106.086    12715873.06043   9913254.64442  21762107.215    21762106.432
        53.000          45.000
  24949696.685     -706407.50953   -545203.84552  24949698.356    24949704.211
        37.000          35.000
  24315341.381    -3579269.61143  -2750354.23142  24315341.871    24315343.903
        48.000          39.000
  20640947.991     -268989.67044   -209987.15342  20640949.472    20640947.900
        57.000          51.000
  20462501.322    14312900.13543  11155198.50742  20462502.894    20462500.027
        54.000          49.000
  21856003.038    19028724.96243  14815365.59342  21856004.902    21856004.437
        53.000          46.000
  23648937.898    16752335.84343  13051670.42042  23648940.823    23648939.705
        45.000          39.000
  21368179.487    -3123597.25953  -2423443.70652  21368180.723    21368177.366
        39.000          36.000
  21893099.675    17253413.78843  13440048.48842  21893101.714    21893101.773
        52.000          45.000
  21517686.608     1031233.18543    799358.30842  21517687.675    21517687.452
        52.000          46.000
 03  7  1 16 46  0.0000000  0 10G23G 2G 3G21G18G 6G16G15G26G17
  21756142.421    12684534.50643   9888835.03942  21756143.711    21756141.671
        53.000          45.000
  24949663.869     -706579.29753   -545337.67152  24949666.214    24949672.199
        37.000          35.000
  24303143.933    -3643367.49543  -2800300.59042  24303145.493    24303146.240
        48.000          40.000
  20642022.864     -263340.98644   -205585.58342  20642024.367    20642022.632
        57.000          51.000
  20460979.381    14304904.51143  11148968.15442  20460981.286    20460978.177
        54.000          49.000
  21866902.610    19086004.42543  14859998.89342  21866904.002    21866904.110
        52.000          46.000
  23653971.455    16778789.35743  13072283.51942  23653973.251    23653973.110
        44.000          38.000
  21361306.932    -3159721.47053  -2451592.43952  21361301.759    21361304.417
        36.000          35.000
  21900030.292    17289832.44943  13468426.63642  21900031.557    21900031.367
        53.000          45.000
  21522230.982     1055115.32943    817967.75942  21522232.184    21522232.899
        52.000          46.000
 03  7  1 16 46 20.0000000  0  9G23G 2G 3G21G18G 6G16G26G17
  21750206.587    12653345.53343   9864531.98742  21750207.919    21750206.171
        52.000          44.000
  24949668.237     -706575.59443   -545334.78942  24949669.597    24949671.410
        42.000          37.000
  24290962.744    -3707376.98243  -2850178.03942  24290965.106    24290964.114
        49.000          39.000
  20643118.954     -257582.98344   -201098.83142  20643120.256    20643118.261
        57.000          51.000
  20459490.664    14297081.07943  11142871.98142  20459491.983    20459489.396
        54.000          50.000
  21877831.333    19143438.07743  14904752.35242  21877832.992    21877832.148
        52.000          45.000
  23659039.659    16805417.97343  13093033.06042  23659040.359    23659041.087
        44.000          38.000
  21907010.055    17326511.77643  13497007.91342  21907012.351    21907011.618
        52.000          45.000
  21526793.628     1079092.00943    836650.87342  21526794.977    21526795.733
        52.000          46.000
 03  7  1 16 46 40.0000000  0  9G23G 2G 3G21G18G 6G16G26G17
  21744300.342    12622305.46943   9840344.96642  21744301.778    21744300.337
        52.000          45.000
  24949702.876     -706397.39243   -545195.96042  24949705.922    24949706.156
        45.000          38.000
  24278799.158    -3771298.06443  -2899986.61742  24278801.507    24278798.897
        49.000          40.000
  20644235.113     -251716.01044   -196527.16642  20644236.690    20644234.725
        57.000          50.000
  20458033.982    14289428.78043  11136909.15442  20458036.010    20458033.222
        54.000          50.000
  21888789.677    19201024.74343  14949625.04542  21888791.318    21888789.785
        52.000          45.000
  23664139.385    16832220.28743  13113917.95742  23664140.915    23664142.231
        45.000          38.000
  21914039.507    17363450.64443  13525791.43242  21914042.260    21914040.680
        53.000          45.000
  21531374.080     1103163.18643    855407.61042  21531375.470    21531375.729
        52.000          46.000
 03  7  1 16 47  0.0000000  0  9G23G 2G 3G21G18G 6G16G26G17
  21738422.423    12591414.90943   9816274.42242  21738423.873    21738422.706
        52.000          45.000
  24949770.284     -706044.20443   -544920.79442  24949771.739    24949772.903
        46.000          38.000
  24266653.026    -3835129.23643  -2949725.15142  24266653.530    24266654.429
        49.000          40.000
  20645372.587     -245739.30944   -191870.00542  20645373.930    20645371.981
        57.000          50.000
  20456610.935    14281948.14343  11131080.09042  20456612.329    20456609.993
        55.000          50.000
  21899777.753    19258764.47943  14994616.99342  21899779.634    21899776.248
        52.000          45.000
  23669273.019    16859196.52143  13134938.38742  23669274.539    23669272.737
        45.000          38.000
  21921118.680    17400649.05243  13554777.19442  21921120.287    21921119.806
        52.000          45.000
  21535973.003     1127329.53743    874238.51942  21535973.936    21535975.326
        52.000          46.000
 03  7  1 16 47 20.0000000  0  9G23G 2G 3G21G18G 6G16G26G17
  21732572.690    12560674.44343   9792320.83442  21732573.959    21732573.597
        52.000          46.000
  24949871.157     -705515.62643   -544508.93642  24949872.039    24949873.760
        45.000          38.000
  24254522.960    -3898869.14543  -2999392.59442  24254525.612    24254526.345
        48.000          40.000
  20646530.554     -239651.98044   -187126.63442  20646532.437    20646530.480
        57.000          50.000
  20455220.245    14274639.64543  11125385.16242  20455221.815    20455219.536
        55.000          50.000
  21910794.716    19316657.35543  15039728.26942  21910796.990    21910793.915
        53.000          45.000
  23674439.342    16886346.54943  13156094.23442  23674442.151    23674440.154
        44.000          38.000
  21928246.278    17438107.17743  13583965.31942  21928248.395    21928247.507
        52.000          45.000
  21540589.083     1151591.54943    893143.96842  21540590.477    21540592.096
        52.000          46.000
 03  7  1 16 47 40.0000000  0  9G23G 2G 3G21G18G 6G16G26G17
  21726751.148    12530085.15043   9768485.02242  21726753.395    21726753.235
        51.000          46.000
  24950004.490     -704810.76343   -543959.73642  24950005.941    24950007.508
        46.000          38.000
  24242411.934    -3962515.92543  -3048987.40942  24242413.279    24242415.257
        49.000          39.000
  20647710.645     -233452.52843   -182295.89442  20647711.724    20647710.053
        56.000          50.000
  20453862.495    14267503.97443  11119824.90742  20453863.904    20453861.711
        55.000          51.000
  21921840.428    19374703.96843  15084959.34342  21921842.355    21921839.783
        53.000          45.000
  23679640.319    16913670.83243  13177385.85242  23679642.100    23679641.315
        46.000          38.000
  21935423.469    17475825.53643  13613356.23742  21935425.496    21935426.007
        52.000          45.000
  21545224.517     1175951.25143    912125.53842  21545225.264    21545227.099
        52.000          46.000
 03  7  1 16 48  0.0000000  0  9G23G 2G 3G21G18G 6G16G26G17
  21720957.715    12499642.91343   9744763.79842  21720959.215    21720960.049
        51.000          46.000
  24950172.091     -703933.96743   -543276.56642  24950172.799    24950172.725
        46.000          38.000
  24230316.501    -4026072.94743  -3098512.31742  24230318.792    24230318.418
        48.000          39.000
  20648910.783     -227144.96844   -177380.90742  20648912.133    20648910.368
        57.000          50.000
  20452536.421    14260536.88543  11114396.01142  20452537.873    20452535.690
        55.000          51.000
  21932914.616    19432899.57943  15130306.50342  21932916.330    21932915.353
        52.000          45.000
  23684872.605    16941164.65343  13198809.58442  23684874.349    23684872.666
        46.000          39.000
  21942650.084    17513799.44943  13642946.27742  21942653.014    21942652.622
        52.000          45.000
  21549878.093     1200404.44143    931179.96642  21549878.637    21549880.136
        52.000          46.000
 03  7  1 16 48 20.0000000  0  9G23G 2G 3G21G18G 6G16G26G17
  21715193.371    12469352.03343   9721160.49942  21715194.253    21715196.190
        51.000          46.000
  24950371.887     -702881.13543   -542456.23242  24950373.436    24950373.207
        46.000          38.000
  24218240.594    -4089535.10643  -3147963.31642  24218241.185    24218243.305
        48.000          39.000
  20650132.752     -220724.61444   -172378.03042  20650133.778    20650132.040
        57.000          50.000
  20451243.385    14253742.49343  11109101.68542  20451245.197    20451242.884
        55.000          51.000
  21944017.101    19491247.92343  15175772.69442  21944020.249    21944018.400
        52.000          44.000
  23690135.783    16968831.68843  13220368.29842  23690137.338    23690136.460
        45.000          39.000
  21949925.634    17552032.65543  13672738.37142  21949927.925    21949928.245
        52.000          45.000
  21554550.691     1224955.42443    950310.59342  21554550.890    21554552.680
        52.000          47.000
 03  7  1 16 48 40.0000000  0  9G23G 2G 3G21G18G 6G16G26G17
  21709457.652    12439207.64943   9697671.36642  21709459.174    21709458.930
        51.000          46.000
  24950604.330     -701657.33543   -541502.68942  24950605.930    24950605.950
        44.000          37.000
  24206180.831    -4152906.34343  -3197343.46542  24206182.869    24206182.761
        47.000          39.000
  20651374.970     -214196.14743   -167290.90742  20651376.095    20651374.517
        56.000          50.000
  20449982.433    14247115.86543  11103938.08242  20449983.870    20449982.316
        55.000          51.000
  21955148.858    19549743.56743  15221353.67542  21955150.826    21955148.945
        52.000          44.000
  23695432.896    16996666.28943  13242057.55642  23695435.138    23695435.162
        45.000          38.000
  21957249.803    17590519.77643  13702728.31842  21957251.724    21957252.373
        53.000          45.000
  21559239.731     1249600.15443    969514.25942  21559241.154    21559242.574
        53.000          47.000
 03  7  1 16 49  0.0000000  0 10G23G 2G 3G21G18G 6G16G15G26G17
  21703751.798    12409217.12243   9674302.13242  21703752.999    21703751.609
        53.000          46.000
  24950870.417     -700255.49243   -540410.36642  24950873.210    24950873.490
        44.000          37.000
  24194139.769    -4216178.56343  -3246646.44342  24194139.178    24194142.325
        45.000          39.000
  20652639.656     -207551.73244   -162113.44542  20652640.786    20652638.831
        57.000          50.000
  20448754.542    14240664.19543  11098910.80642  20448756.319    20448754.429
        55.000          51.000
  21966310.154    19608393.29143  15267054.71542  21966311.884    21966309.889
        52.000          44.000
  23700764.328    17024675.21943  13263882.67342  23700766.069    23700763.634
        46.000          38.000
  21299974.298
        42.000
  21964622.997    17629267.51543  13732921.34842  21964625.655    21964626.145
        52.000          45.000
  21563949.023     1274346.00943    988796.72542  21563949.918    21563950.863
        53.000          47.000
 03  7  1 16 49 20.0000000  0  9G23G 2G 3G21G18G 6G16G26G17
  21698073.502    12379376.15143   9651049.45142  21698074.955    21698073.279
        54.000          47.000
  24951170.126     -698680.06343   -539182.77642  24951170.130    24951172.746
        43.000          36.000
  24182118.609    -4279355.26143  -3295875.00242  24182118.440    24182119.418
        46.000          38.000
  20653925.272     -200795.48444   -156848.84442  20653926.645    20653924.402
        57.000          50.000
  20447559.491    14234382.92543  11094016.31042  20447560.905    20447558.975
        55.000          51.000
  21977499.281    19667192.31243  15312872.07242  21977500.714    21977498.258
        52.000          44.000
  23706124.955    17052853.59343  13285839.82742  23706126.645    23706124.493
        45.000          38.000
  21972045.610    17668271.00543  13763313.67042  21972047.708    21972047.035
        53.000          45.000
  21568675.890     1299188.92043   1008154.81442  21568676.760    21568678.707
        53.000          47.000
 03  7  1 16 49 40.0000000  0  9G23G 2G 3G21G18G 6G16G26G17
  21692422.312    12349681.09643   9627910.47342  21692424.187    21692421.825
        54.000          47.000
  24951502.187     -696934.86043   -537822.89542  24951499.929    24951507.543
        44.000          36.000
  24170112.647    -4342439.17843  -3345031.26342  24170112.095    24170115.030
        45.000          38.000
  20655231.890     -193930.95244   -151499.86342  20655232.881    20655230.657
        57.000          50.000
  20446395.861    14228268.20943  11089251.59742  20446397.236    20446394.837
        54.000          50.000
  21988716.101    19726136.42943  15358802.49242  21988715.895    21988713.997
        52.000          44.000
  23711518.072    17081197.24443  13307925.77342  23711519.964    23711519.900
        45.000          38.000
  21979514.642    17707526.16343  13793902.09342  21979517.084    21979517.483
        52.000          45.000
  21573421.791     1324125.41143   1027585.81342  21573422.257    21573423.188
        53.000          47.000
 03  7  1 16 50  0.0000000  0 10G23G 2G 3G21G18G 6G16G15G26G17
  21686799.998    12320138.97743   9604890.66242  21686801.924    21686800.506
        54.000          47.000
  24951867.853     -695013.07743   -536325.45242  24951869.625    24951871.294
        43.000          36.000
  24158128.497    -4405422.65943  -3394109.27642  24158130.557    24158130.915
        45.000          38.000
  20656559.890     -186950.36044   -146060.43842  20656561.232    20656559.291
        57.000          50.000
  20445265.133    14222326.94643  11084622.04042  20445266.840    20445264.384
        55.000          50.000
  21999960.324    19785232.02543  15404850.94442  21999962.312    21999960.006
        51.000          44.000
  23716944.951    17109712.29543  13330145.24242  23716946.179    23716946.314
        45.000          38.000
  21279755.440
        42.000
  21987033.440    17747039.26343  13824691.50642  21987034.894    21987036.443
        52.000          45.000
  21578186.445     1349162.54043   1047095.24442  21578187.420    21578188.099
        53.000          47.000
 03  7  1 16 50 20.0000000  0 10G23G 2G 3G21G18G 6G16G15G26G17
  21681206.400    12290743.33043   9581984.98442  21681207.325    21681206.602
        54.000          47.000
  24952265.784     -692921.47143   -534695.66242  24952265.484    24952267.498
        43.000          36.000
  24146160.753    -4468311.24143  -3443113.32042  24146161.431    24146165.315
        45.000          38.000
  20657909.299     -179860.14144   -140535.59042  20657910.267    20657908.354
        57.000          50.000
  20444166.451    14216552.48343  11080122.45442  20444168.085    20444165.195
        55.000          50.000
  22011233.231    19844472.09243  15451011.99342  22011235.096    22011233.148
        51.000          44.000
  23722403.396    17138391.68443  13352492.77842  23722403.994    23722404.064
        44.000          38.000
  21273038.470
        42.000
  21994600.108    17786803.35143  13855676.49142  21994602.520    21994602.183
        51.000          45.000
  21582968.991     1374294.31543   1066678.42242  21582970.466    21582970.218
        53.000          47.000
 03  7  1 16 50 40.0000000  0 10G23G 2G 3G21G18G 6G16G15G26G17
  21675641.479    12261498.11843   9559196.52142  21675642.658    21675641.568
        54.000          46.000
  24952696.480     -690656.23943   -532930.56242  24952698.016    24952699.134
        43.000          36.000
  24134213.518    -4531100.18943  -3492039.73942  24134214.985    24134215.798
        45.000          38.000
  20659279.937     -172656.20843   -134922.13142  20659280.996    20659279.375
        56.000          50.000
  20443099.987    14210948.57643  11075755.77142  20443101.528    20443098.687
        55.000          50.000
  22022534.952    19903860.04643  15497288.27442  22022536.145    22022536.687
        50.000          44.000
  23727893.215    17167238.90143  13374971.09742  23727895.150    23727891.458
        44.000          38.000
  21266332.759     -726864.85553   -439523.09252  21266331.462    21266335.591
        40.000          34.000
  22002216.070    17826821.83843  13886859.71142  22002216.897    22002218.252
        52.000          44.000
  21587770.297     1399524.98343   1086338.66642  21587771.558    21587770.952
        53.000          46.000
 03  7  1 16 51  0.0000000  0 10G23G 2G 3G21G18G 6G16G15G26G17
  21670104.396    12232401.20843   9536523.63642  21670105.591    21670104.695
        54.000          46.000
  24953159.670     -688219.59843   -531031.91442  24953160.966    24953162.925
        43.000          36.000
  24122283.442    -4593790.53943  -3540889.32442  24122286.544    24122283.462
        45.000          38.000
  20660672.006     -165340.01743   -129221.19442  20660673.044    20660671.777
        56.000          50.000
  20442065.474    14205512.97043  11071520.23342  20442067.066    20442064.853
        55.000          50.000
  22033864.536    19963393.42143  15543677.88642  22033865.076    22033866.057
        51.000          44.000
  23733412.465    17196251.18143  13397578.06242  23733411.872    23733413.044
        43.000          37.000
  21259642.901     -762024.67543   -466920.36242  21259645.824    21259646.658
        41.000          33.000
  22009879.721    17867092.12443  13918239.14542  22009881.666    22009880.232
        52.000          44.000
  21592589.541     1424852.87843   1106074.66942  21592591.245    21592591.253
        52.000          46.000
 03  7  1 16 51 20.0000000  0 10G23G 2G 3G21G18G 6G16G15G26G17
  21664595.875    12203454.22343   9513967.58542  21664596.387    21664595.248
        54.000          46.000
  24953656.952     -685610.34443   -528998.76642  24953656.588    24953659.889
        42.000          36.000
  24110373.421    -4656380.16243  -3589660.39942  24110375.150    24110375.025
        44.000          38.000
  20662085.732     -157909.82343   -123431.41942  20662086.958    20662085.651
        56.000          50.000
  20441063.627    14200247.00943  11067416.89042  20441064.902    20441062.808
        55.000          50.000
  22045221.243    20023073.05643  15590181.45542  22045222.896    22045222.655
        51.000          44.000
  23738963.223    17225429.39543  13420314.31242  23738964.022    23738966.988
        43.000          37.000
  21252966.677     -797117.07943   -494265.07442  21252968.555    21252967.131
        43.000          34.000
  22017590.279    17907615.14143  13949815.51242  22017592.111    22017591.606
        51.000          44.000
  21597428.504     1450279.44543   1125887.56742  21597429.510    21597430.711
        52.000          46.000
 03  7  1 16 51 40.0000000  0 10G23G 2G 3G21G18G 6G16G15G26G17
  21659114.576    12174652.99343   9491525.10442  21659115.816    21659114.493
        54.000          46.000
  24954187.091     -682832.66843   -526834.39442  24954186.896    24954188.852
        44.000          36.000
  24098480.593    -4718872.31943  -3638355.57042  24098483.682    24098484.318
        43.000          38.000
  20663520.907     -150369.48043   -117555.81842  20663521.958    20663520.597
        56.000          50.000
  20440092.966    14195146.34743  11063442.35142  20440094.448    20440092.273
        55.000          51.000
  22056605.063    20082894.39243  15636795.43942  22056606.449    22056606.205
        51.000          44.000
  23744548.923    17254768.82543  13443176.17542  23744548.236    23744549.796
        44.000          37.000
  21246298.063     -832145.71143   -521560.12742  21246302.498    21246299.888
        43.000          34.000
  22025348.702    17948386.24343  13981585.18442  22025350.874    22025350.481
        51.000          43.000
  21602284.837     1475800.70143   1145774.25042  21602285.717    21602287.310
        52.000          46.000
 03  7  1 16 52  0.0000000  0 10G23G 2G 3G21G18G 6G16G15G26G17
  21653662.558    12146002.32143   9469199.94242  21653663.862    21653662.783
        53.000          46.000
  24954748.172     -679882.08443   -524535.25842  24954748.016    24954749.122
        43.000          36.000
  24086608.293    -4781261.37443  -3686970.37642  24086611.193    24086612.728
        42.000          37.000
  20664977.820     -142713.88243   -111590.41942  20664978.707    20664977.110
        56.000          50.000
  20439154.590    14190215.58943  11059600.20342  20439155.906    20439153.977
        56.000          51.000
  22068015.695    20142861.58343  15683523.06942  22068018.144    22068017.774
        51.000          44.000
  23750164.054    17284273.52843  13466166.84742  23750166.469    23750163.695
        45.000          38.000
  21239645.646     -867105.24943   -548801.27742  21239653.970    21239646.041
        42.000          33.000
  22033154.607    17989409.54843  14013551.39642  22033157.067    22033155.712
        51.000          43.000
  21607159.983     1501421.75343   1165738.69642  21607161.123    21607162.744
        52.000          46.000
 03  7  1 16 52 20.0000000  0 10G23G 2G 3G21G18G 6G16G15G26G17
  21648239.794    12117501.68743   9446991.69242  21648240.613    21648239.762
        53.000          46.000
  24955341.362     -676759.21243   -522101.88442  24955339.939    24955344.462
        43.000          36.000
  24074754.801    -4843546.92143  -3735504.54042  24074756.709    24074759.193
        41.000          37.000
  20666456.591     -134943.31343   -105535.43542  20666457.540    20666455.556
        56.000          49.000
  20438248.334    14185454.01143  11055889.88642  20438249.815    20438247.799
        56.000          51.000
  22079454.999    20202973.61643  15730363.57142  22079456.710    22079455.145
        51.000          44.000
  23755809.542    17313942.45643  13489285.45542  23755811.396    23755807.609
        45.000          38.000
  21233005.713     -901996.00443   -575988.89742  21233003.888    21233003.862
        40.000          33.000
  22041009.640    18030684.11643  14045713.38942  22041010.616    22041010.648
        51.000          43.000
  21612054.338     1527142.49243   1185780.81642  21612055.443    21612056.755
        52.000          46.000
 03  7  1 16 52 40.0000000  0 10G23G 2G 3G21G18G 6G16G15G26G17
  21642843.885    12089147.75843   9424897.73842  21642844.834    21642844.757
        52.000          46.000
  24955966.285     -673467.66143   -519537.06542  24955968.504    24955971.750
        42.000          36.000
  24062921.958    -4905731.57543  -3783960.06442  24062925.133    24062925.054
        41.000          37.000
  20667956.900     -127060.77243    -99393.19542  20667958.232    20667955.506
        55.000          49.000
  20437374.180    14180858.23243  11052308.76542  20437375.666    20437373.389
        56.000          51.000
  22090920.458    20263226.64743  15777313.93642  22090921.443    22090922.239
        51.000          45.000
  23761486.065    17343771.69343  13512528.97242  23761487.154    23761485.051
        46.000          38.000
  21226379.054     -936820.85943   -603125.18742  21226382.887    21226380.059
        40.000          33.000
  22048910.686    18072205.82343  14078067.96442  22048912.959    22048912.211
        51.000          43.000
  21616967.331     1552959.66843   1205898.07942  21616967.934    21616970.467
        52.000          46.000
 03  7  1 16 53  0.0000000  0 10G23G 2G 3G21G18G 6G16G15G26G17
  21637476.465    12060943.06243   9402920.06242  21637477.524    21637478.750
        51.000          46.000
  24956627.262     -670005.20743   -516839.08042  24956628.096    24956631.803
        43.000          37.000
  24051107.828    -4967812.10643  -3832334.48442  24051108.977    24051111.314
        41.000          36.000
  20669478.694     -119063.36143    -93161.44542  20669480.007    20669477.770
        55.000          49.000
  20436531.739    14176430.53543  11048858.61842  20436533.062    20436530.981
        56.000          51.000
  22102414.950    20323622.57943  15824375.63742  22102415.754    22102414.825
        52.000          45.000
  23767193.449    17373762.94043  13535898.72542  23767196.170    23767192.609
        46.000          39.000
  21219766.030                     -630207.92642                  21219763.671
        40.000          31.000
  22056859.792    18113976.71943  14110616.71742  22056861.457    22056862.212
        51.000          43.000
  21621898.787     1578875.98343   1226092.59442  21621899.265    21621901.752
        51.000          46.000
 03  7  1 16 53 20.0000000  0 10G23G 2G 3G21G18G 6G16G15G26G17
  21632136.606    12032884.57043   9381056.30042  21632137.619    21632139.535
        51.000          46.000
  24957318.169     -666374.99343   -514010.36742  24957319.417    24957323.355
        43.000          37.000
  24039313.234    -5029790.42743  -3880629.25942  24039314.391    24039320.137
        39.000          36.000
  20671021.883     -110953.72543    -86842.23942  20671023.009    20671020.707
        55.000          49.000
  20435720.446    14172167.73943  11045536.96142  20435721.906    20435720.134
        56.000          51.000
  22113934.648    20384157.88843  15871545.94942  22113936.305    22113935.136
        53.000          45.000
  23772931.107    17403912.43543  13559391.79442  23772931.397    23772931.007
        46.000          39.000
  21213163.327    -1006266.90753   -657239.10752  21213165.209    21213162.539
        36.000          32.000
  22064855.305    18155993.29243  14143356.90442  22064857.688    22064857.008
        51.000          44.000
  21626848.560     1604888.91943   1246362.39742  21626849.676    21626851.248
        51.000          45.000
 03  7  1 16 53 40.0000000  0  9G23G 2G 3G21G18G 6G16G26G17
  21626825.628    12004975.98643   9359309.33542  21626827.036    21626828.035
        50.000          45.000
  24958040.820     -662573.59743   -511048.25942  24958041.931    24958045.491
        44.000          38.000
  24027540.453    -5091662.05343  -3928840.88542  24027542.830    24027544.225
        39.000          36.000
  20672587.178     -102728.07543    -80432.63442  20672587.809    20672585.786
        54.000          49.000
  20434941.437    14168073.31243  11042346.50142  20434942.980    20434940.790
        56.000          51.000
  22125480.720    20444835.64343  15918827.24642  22125482.399    22125482.278
        52.000          45.000
  23778697.418    17434223.34443  13583010.63942  23778700.281    23778698.801
        45.000          39.000
  22072898.249    18198258.43343  14176290.78342  22072900.824    22072899.949
        52.000          44.000
  21631818.334     1631002.60143   1266710.69842  21631819.064    21631821.511
        51.000          45.000
 03  7  1 16 54  0.0000000  0  9G23G 2G 3G21G18G 6G16G26G17
  21621542.566    11977213.11143   9337675.92842  21621544.420    21621544.836
        51.000          46.000
  24958797.265     -658605.32143   -507956.12642  24958796.465    24958801.302
        43.000          38.000
  24015787.144    -5153430.12243  -3976971.85642  24015788.380    24015789.645
        39.000          36.000
  20674173.691      -94390.01143    -73935.43342  20674174.286    20674172.340
        54.000          49.000
  20434193.253    14164143.03243  11039283.95042  20434195.113    20434192.872
        56.000          51.000
  22137053.910    20505651.33043  15966216.02242  22137055.040    22137055.383
        52.000          45.000
  23784495.630    17464691.12543  13606751.74242  23784496.497    23784497.931
        44.000          38.000
  22080987.755    18240767.68943  14209414.87542  22080989.485    22080990.440
        52.000          44.000
  21636806.640     1657212.79443   1287134.19642  21636807.139    21636809.266
        51.000          45.000
 03  7  1 16 54 20.0000000  0  9G23G 2G 3G21G18G 6G16G26G17
  21616288.573    11949600.70343   9316159.77342  21616289.934    21616289.627
        52.000          46.000
  24959584.003     -654465.72043   -504730.47042  24959586.118    24959589.538
        43.000          38.000
  24004052.154    -5215089.21843  -4025017.87542  24004052.753    24004058.866
        39.000          36.000
  20675782.462      -85934.40143    -67346.63942  20675783.378    20675781.996
        53.000          49.000
  20433477.215    14160381.29543  11036352.73442  20433479.057    20433476.745
        56.000          51.000
  22148653.334    20566609.07343  16013715.50442  22148654.632    22148654.378
        51.000          44.000
  23790323.124    17495319.53743  13630618.01142  23790322.931    23790325.855
        43.000          38.000
  22089124.102    18283525.01743  14242732.26642  22089125.830    22089126.126
        52.000          44.000
  21641814.180     1683524.81543   1307637.03742  21641814.753    21641816.495
        52.000          45.000
 03  7  1 16 54 40.0000000  0  9G23G 2G 3G21G18G 6G16G26G17
  21611061.731    11922134.05543   9294757.21542  21611063.398    21611062.039
        52.000          46.000
  24960404.534     -650159.69843   -501375.15242  24960405.072    24960409.752
        43.000          38.000
  23992339.072    -5276643.18543  -4072981.96242  23992339.061    23992342.959
        37.000          36.000
  20677413.087      -77365.78143    -60669.78342  20677414.076    20677412.573
        54.000          49.000
  20432792.473    14156783.33543  11033549.12542  20432793.923    20432791.907
        56.000          51.000
  22160278.109    20627703.56343  16061321.55042  22160278.588    22160280.357
        49.000          43.000
  23796181.148    17526103.35843  13654605.40642  23796183.110    23796184.235
        43.000          38.000
  22097306.333    18326525.10143  14276238.81942  22097308.795    22097307.398
        52.000          44.000
  21646839.908     1709934.12643   1328215.68442  21646840.468    21646840.432
        52.000          45.000
 03  7  1 16 55  0.0000000  0  8G23G 2G21G18G 6G16G26G17
  21605864.265    11894817.39843   9273471.54642  21605865.439    21605864.265
        54.000          46.000
  24961255.622     -645683.30143   -497887.06342  24961257.611    24961260.021
        43.000          38.000
  20679066.210      -68679.71643    -53901.41042  20679067.203    20679065.757
        54.000          49.000
  20432139.928    14153353.11543  11030876.23242  20432141.203    20432139.248
        56.000          51.000
  22171928.792    20688938.44743  16109037.00342  22171931.341    22171932.914
        47.000          43.000
  23802069.214    17557046.34743  13678716.82042  23802070.464    23802071.568
        43.000          38.000
  22105536.319    18369771.64243  14309937.40942  22105537.325    22105537.785
        51.000          44.000
  21651884.214     1736445.13843   1348873.57742  21651885.588    21651885.123
        52.000          45.000
 03  7  1 16 55 20.0000000  0  9G23G 2G 3G21G18G 6G16G26G17
  21600694.249    11867650.94643   9252302.91342  21600695.847    21600694.286
        54.000          47.000
  24962140.883     -641036.59143   -494266.26642  24962140.383    24962145.548
        42.000          38.000
  23968975.547    -5399419.84053  -4168652.07252  23968976.097    23968980.836
        36.000          36.000
  20680741.679      -59875.60643    -47041.05042  20680742.506    20680741.370
        54.000          49.000
  20431519.041    14150090.62643  11028334.03842  20431520.601    20431518.321
        56.000          51.000
  22183607.973    20750313.36943  16156861.59942  22183610.481    22183611.745
        47.000          43.000
  23807988.405    17588147.84543  13702951.73842  23807989.161    23807989.206
        43.000          38.000
  22113812.301    18413264.27443  14343827.75642  22113814.113    22113814.339
        51.000          44.000
  21656948.611     1763058.25443   1369611.03842  21656949.366    21656948.317
        52.000          45.000
 03  7  1 16 55 40.0000000  0  8G23G 2G21G18G 6G16G26G17
  21595551.774    11840628.82843   9231246.73742  21595553.031    21595553.123
        54.000          47.000
  24963055.329     -636225.58043   -490517.42342  24963055.848    24963061.932
        41.000          38.000
  20682438.576      -50958.85843    -40092.92042  20682439.439    20682438.144
        54.000          49.000
  20430928.717    14146989.79743  11025917.80342  20430930.236    20430928.319
        56.000          51.000
  22195313.775    20811821.97143  16204790.36142  22195316.565    22195317.194
        49.000          43.000
  23813936.668    17619401.33443  13727305.07942  23813938.105    23813937.285
        45.000          39.000
  22122134.271    18456996.51543  14377904.81442  22122135.231    22122137.062
        50.000          44.000
  21662030.755     1789768.28943   1390424.03242  21662031.579    21662032.906
        52.000          45.000
 03  7  1 16 56  0.0000000  0  9G23G 2G 3G21G18G 6G16G26G17
  21590437.812    11813753.17743   9210304.69342  21590439.012    21590438.607
        55.000          48.000
  24964001.242     -631248.34243   -486639.03742  24964003.145    24964007.524
        41.000          38.000
  23945692.731    -5521763.49353  -4263984.72052  23945692.904    23945695.553
        37.000          35.000
  20684156.590      -41927.11643    -33055.18842  20684157.859    20684156.129
        54.000          48.000
  20430370.118    14144052.88743  11023629.29942  20430371.398    20430369.373
        56.000          51.000
  22207047.003    20873465.88343  16252824.53042  22207048.679    22207047.981
        50.000          44.000
  23819913.526    17650808.35143  13751778.05742  23819916.353    23819914.675
        45.000          39.000
  22130502.414    18500969.86643  14412169.75142  22130505.358    22130503.944
        50.000          44.000
  21667132.288     1816577.45143   1411314.26542  21667133.176    21667133.749
        51.000          44.000
 03  7  1 16 56 20.0000000  0 11G23G 2G 3G21G18G 6G16G15G26G17G14
  21585351.003    11787019.73943   9189473.46042  21585352.051    21585351.633
        55.000          48.000
  24964981.313     -626109.39943   -482634.66942  24964981.989    24964986.603
        42.000          38.000
  23934083.676    -5582774.84253  -4311526.02952  23934084.772    23934089.066
        37.000          35.000
  20685897.058      -32784.14143    -25930.78342  20685898.125    20685895.757
        54.000          48.000
  20429841.944    14141275.31743  11021464.95742  20429843.135    20429840.819
        56.000          51.000
  22218802.909    20935240.36243  16300960.42442  22218804.290    22218802.531
        51.000          44.000
  23825919.006    17682363.96843  13776366.81742  23825919.911    23825918.985
        46.000          39.000
  21154356.253
        43.000
  22138915.124    18545179.57243  14446618.85742  22138916.698    22138917.825
        50.000          44.000
  21672252.734     1843481.26443   1432278.26142  21672252.654    21672253.056
        51.000          44.000
  24669903.190    -1371145.77453  -1058272.86652  24669907.355    24669905.451
        44.000          36.000
 03  7  1 16 56 40.0000000  0 10G23G 2G 3G21G18G 6G16G26G17G14
  21580291.112    11760430.12443   9168754.29542  21580292.566    21580292.157
        55.000          48.000
  24965990.045     -620807.43843   -478503.27442  24965991.221    24965997.714
        43.000          39.000
  23922494.471    -5643678.00353  -4358983.03152  23922493.748    23922500.342
        39.000          36.000
  20687658.264      -23528.09343    -18718.27642  20687659.908    20687657.005
        55.000          48.000
  20429343.683    14138658.61143  11019425.96442  20429345.399    20429343.114
        56.000          51.000
  22230582.796    20997146.40343  16349198.84142  22230585.098    22230584.560
        52.000          45.000
  23831954.031    17714069.29643  13801072.22142  23831954.936    23831952.535
        47.000          39.000
  22147372.900    18589626.55543  14481252.84542  22147374.461    22147375.019
        50.000          44.000
  21677390.150     1870482.04943   1453317.81142  21677391.340    21677391.865
        51.000          44.000
  24655474.351    -1446974.36043  -1117359.96842  24655478.299    24655474.926
        44.000          37.000
 03  7  1 16 57  0.0000000  0 11G23G 2G 3G21G18G 6G16G15G26G17G14
  21575260.014    11733991.42743   9148152.73142  21575261.416    21575261.305
        55.000          48.000
  24967032.702     -615335.40143   -474239.37642  24967032.119    24967036.984
        44.000          39.000
  23910926.510    -5704464.87553  -4406349.42352  23910926.953    23910929.967
        38.000          36.000
  20689443.108      -14151.51443    -11411.85442  20689444.237    20689440.855
        55.000          49.000
  20428877.606    14136209.52443  11017517.58042  20428879.179    20428877.360
        56.000          51.000
  22242389.096    21059190.54143  16397544.85042  22242391.284    22242389.758
        52.000          44.000
  23838016.431    17745930.66343  13825899.20542  23838018.509    23838016.221
        48.000          39.000
  21141425.419     -598364.43753   -443815.65052  21141424.116    21141420.900
        40.000          35.000
  22155877.318    18634317.27643  14516076.77342  22155879.839    22155880.180
        49.000          44.000
  21682548.644     1897587.31143   1474438.76642  21682549.214    21682550.446
        51.000          44.000
  24641045.744    -1522800.45943  -1176445.12742  24641048.116    24641046.135
        43.000          37.000
 03  7  1 16 57 20.0000000  0 11G23G 2G 3G21G18G 6G16G15G26G17G14
  21570257.920    11707704.83243   9127669.68742  21570259.542    21570258.616
        54.000          48.000
  24968106.717     -609692.47443   -469842.30842  24968107.968    24968111.062
        44.000          39.000
  23899382.009    -5765133.31853  -4453623.49852  23899382.791    23899386.713
        39.000          36.000
  20691250.522       -4652.77343     -4010.24042  20691252.079    20691248.890
        56.000          49.000
  20428443.822    14133929.13543  11015740.65242  20428445.056    20428443.873
        56.000          51.000
  22254222.053    21121373.44643  16445998.99242  22254223.621    22254222.888
        51.000          44.000
  23844108.737    17777948.71843  13850848.30342  23844110.183    23844108.036
        47.000          39.000
  21134983.304     -632211.32643   -470189.97842  21134980.727    21134981.424
        40.000          35.000
  22164429.283    18679252.39343  14551091.12442  22164429.919    22164432.016
        50.000          44.000
  21687727.302     1924798.65343   1495642.37642  21687727.758    21687727.995
        51.000          45.000
  24626616.326    -1598621.82843  -1235526.60442  24626620.214    24626616.703
        42.000          36.000
 03  7  1 16 57 40.0000000  0 10G23G 3G21G18G 6G16G15G26G17G14
  21565283.462    11681566.54143   9107302.20342  21565284.996    21565284.805
        53.000          47.000
  23887861.359    -5825686.49043  -4500807.76742  23887859.177    23887863.036
        39.000          36.000
  20693080.072        4964.50343      3483.73542  20693081.758    20693078.912
        56.000          49.000
  20428041.281    14131813.34643  11014091.98842  20428042.906    20428040.932
        56.000          50.000
  22266080.278    21183690.80543  16494557.91742  22266081.613    22266080.692
        51.000          43.000
  23850229.536    17810118.93443  13875915.96942  23850232.272    23850229.848
        45.000          38.000
  21128557.836     -665984.48343   -496506.77942  21128558.899    21128556.287
        42.000          36.000
  22173024.790    18724427.55243  14586292.52342  22173027.008    22173026.273
        49.000          43.000
  21692924.689     1952112.16243   1516925.60142  21692926.583    21692926.251
        52.000          45.000
  24612188.381    -1674441.32643  -1294606.63342  24612190.322    24612192.243
        39.000          35.000
 03  7  1 16 58  0.0000000  0  9G23G 3G21G18G 6G16G15G26G17
  21560339.598    11655590.43043   9087061.08042  21560341.525    21560341.655
        52.000          46.000
  23876362.284    -5886109.48543  -4547890.58642  23876365.188    23876366.105
        40.000          36.000
  20694935.030       14714.71843     11081.30542  20694936.800    20694934.589
        56.000          49.000
  20427672.454    14129876.05343  11012582.41442  20427673.976    20427671.966
        56.000          50.000
  22277966.000    21246155.92343  16543231.97442  22277967.838    22277967.830
        49.000          43.000
  23856380.659    17842454.60943  13901112.55542  23856381.489    23856382.838
        43.000          37.000
  21122147.774     -699669.71543   -522754.99242  21122149.119    21122143.973
        43.000          36.000
  22181669.246    18769855.98143  14621691.28442  22181673.258    22181671.417
        49.000          44.000
  21698144.226     1979542.20643   1538299.64042  21698145.995    21698146.279
        52.000          46.000
 03  7  1 16 58 20.0000000  0  9G23G 3G21G18G 6G16G15G26G17
  21555421.269    11629740.87643   9066918.57242  21555422.630    21555422.070
        52.000          46.000
  23864882.323    -5946437.06543  -4594899.05742  23864884.594    23864885.710
        39.000          36.000
  20696808.783       24562.43543     18754.84842  20696810.449    20696809.005
        56.000          49.000
  20427330.782    14128081.28743  11011183.90142  20427332.704    20427330.427
        55.000          50.000
  22289873.825    21308732.55943  16591992.92942  22289875.294    22289874.128
        49.000          42.000
  23862558.733    17874919.35543  13926409.72342  23862561.333    23862561.072
        43.000          37.000
  21115744.844     -733302.28743   -548962.19242  21115747.155    21115744.617
        43.000          37.000
  22190356.750    18815501.42543  14657259.15642  22190359.281    22190358.256
        50.000          44.000
  21703378.947     2007053.59543   1559737.07542  21703381.687    21703381.880
        52.000          46.000
 03  7  1 16 58 40.0000000  0  9G23G 3G21G18G 6G16G15G26G17
  21550530.984    11604040.28043   9046892.13542  21550532.256    21550531.376
        52.000          46.000
  23853424.078    -6006645.87643  -4641814.97442  23853424.359    23853429.756
        40.000          36.000
  20698705.932       34530.41143     26522.09742  20698706.732    20698705.886
        56.000          49.000
  20427020.679    14126451.45043  11009913.90642  20427022.447    20427020.046
        55.000          50.000
  22301808.020    21371442.65343  16640857.88442  22301808.976    22301808.951
        49.000          43.000
  23868764.220    17907534.96843  13951824.47342  23868765.368    23868767.194
        43.000          37.000
  21109361.433     -766859.24943   -575110.48242  21109360.569    21109359.279
        44.000          37.000
  22199087.671    18861385.78143  14693013.19342  22199089.094    22199089.790
        50.000          44.000
  21708634.242     2034668.94443   1581255.51642  21708635.429    21708636.978
        52.000          46.000
 03  7  1 16 59  0.0000000  0  9G23G 3G21G18G 6G16G15G26G17
  21545668.005    11578486.11843   9026979.81342  21545669.978    21545668.487
        53.000          46.000
  23841989.495    -6066737.66543  -4688639.70542  23841989.922    23841990.379
        40.000          36.000
  20700624.989       44616.63044     34381.48742  20700626.700    20700625.330
        57.000          49.000
  20426741.672    14124983.85943  11008770.33342  20426743.073    20426740.499
        55.000          49.000
  22313766.252    21434283.19543  16689824.48742  22313768.004    22313767.943
        49.000          43.000
  23875000.713    17940298.51143  13977354.47342  23875002.564    23875004.220
        43.000          37.000
  21102988.941     -800342.75643   -601201.53542  21102989.764    21102988.738
        45.000          38.000
  22207864.041    18907505.83243  14728950.88242  22207865.626    22207867.352
        50.000          44.000
  21713908.082     2062385.82843   1602853.08342  21713910.140    21713910.629
        52.000          46.000
 03  7  1 16 59 20.0000000  0 10G23G 3G21G18G 6G16G15G26G17G14
  21540831.818    11553073.16143   9007177.52042  21540833.962    21540832.321
        53.000          46.000
  23830576.389    -6126716.89643  -4735376.73342  23830578.295    23830580.262
        39.000          36.000
  20702566.141       54816.07844     42329.10842  20702567.831    20702566.240
        57.000          50.000
  20426492.087    14123673.13743  11007749.00342  20426493.701    20426490.900
        55.000          49.000
  22325749.167    21497248.44043  16738888.24842  22325749.359    22325750.298
        51.000          43.000
  23881261.920    17973203.91343  14002995.02642  23881263.699    23881266.787
        43.000          37.000
  21096628.369     -833757.40143   -627238.92242  21096630.301    21096630.070
        44.000          37.000
  22216684.222    18953855.82243  14765067.74542  22216686.757    22216687.659
        50.000          44.000
  21719201.126     2090199.15343   1624525.81442  21719202.033    21719203.311
        52.000          46.000
  24540055.660
        43.000
 03  7  1 16 59 40.0000000  0 10G23G 3G21G18G 6G16G15G26G17G14
  21536023.646    11527804.14243   8987487.40442  21536025.299    21536023.426
        53.000          46.000
  23819185.616    -6186579.84643  -4782023.14542  23819185.473    23819187.471
        39.000          36.000
  20704529.825       65131.84544     50367.36742  20704531.617    20704529.350
        58.000          50.000
  20426272.975    14122521.67943  11006851.77342  20426274.780    20426271.899
        55.000          49.000
  22337754.680    21560340.60543  16788050.90042  22337755.970    22337756.163
        51.000          44.000
  23887552.182    18006253.27243  14028747.75742  23887553.871    23887554.248
        44.000          38.000
  21090284.888     -867099.99043   -653220.15942  21090285.349    21090284.785
        44.000          36.000
  22225547.738    19000437.84243  14801365.41442  22225550.237    22225550.715
        49.000          44.000
  21724512.827     2118111.95043   1646276.04542  21724514.005    21724514.870
        52.000          46.000
  24525629.929     -641577.53353   -493570.81452  24525629.417    24525631.662
        45.000          37.000
 03  7  1 17  0  0.0000000  0 10G23G 3G21G18G 6G16G15G26G17G14
  21531243.608    11502683.38043   8967912.80942  21531245.190    21531243.531
        54.000          46.000
  23807813.681    -6246321.22953  -4828574.82052  23807815.975    23807820.978
        38.000          36.000
  20706515.635       75568.57744     58499.88342  20706517.507    20706515.818
        58.000          50.000
  20426084.948    14121533.76043  11006081.97142  20426086.812    20426084.027
        55.000          49.000
  22349786.041    21623563.42243  16837315.36942  22349786.756    22349786.221
        50.000          44.000
  23893869.486    18039450.32643  14054615.56542  23893870.571    23893870.978
        44.000          38.000
  21083953.437     -900365.91843   -679141.67842  21083953.834    21083954.329
        42.000          36.000
  22234456.703    19047255.53143  14837846.72142  22234459.326    22234460.645
        49.000          43.000
  21729844.284     2146129.17943   1668107.66142  21729845.692    21729846.500
        53.000          46.000
  24511205.054     -717379.42843   -552637.10142  24511206.429    24511204.496
        45.000          37.000
 03  7  1 17  0 20.0000000  0 10G23G 3G21G18G 6G16G15G26G17G14
  21526491.345    11477711.99943   8948454.61142  21526493.241    21526491.560
        54.000          46.000
  23796470.014    -6305939.17343  -4875030.29442  23796469.382    23796475.071
        38.000          36.000
  20708524.788       86127.91644     66727.93542  20708526.610    20708525.210
        58.000          50.000
  20425927.841    14120710.23543  11005440.27142  20425929.745    20425927.180
        55.000          49.000
  22361841.321    21686917.46443  16886682.09742  22361843.372    22361842.614
        50.000          44.000
  23900214.334    18072795.54143  14080598.83042  23900216.399    23900217.560
        44.000          38.000
  21077638.456     -933553.47243   -705002.13142  21077638.910    21077638.907
        41.000          35.000
  22243411.363    19094309.46043  14874512.08842  22243413.277    22243413.560
        49.000          43.000
  21735196.144     2174252.55743   1690021.98842  21735196.796    21735198.321
        53.000          46.000
  24496780.455     -793171.12743   -611695.47342  24496782.657    24496780.424
        46.000          37.000
 03  7  1 17  0 40.0000000  0 10G23G 3G21G18G 6G16G15G26G17G14
  21521765.915    11452881.46843   8929106.16842  21521767.513    21521766.743
        54.000          47.000
  23785147.480    -6365441.18743  -4921395.44942  23785146.369    23785152.512
        39.000          37.000
  20710555.523       96801.69244     75045.15642  20710557.333    20710556.247
        57.000          49.000
  20425800.701    14120042.54943  11004920.00642  20425801.920    20425799.911
        54.000          49.000
  22373919.127    21750393.65543  16936144.01942  22373921.311    22373922.453
        48.000          43.000
  23906586.589    18106279.70543  14106690.36442  23906587.248    23906588.182
        44.000          38.000
  21071335.248     -966670.83443   -730807.86542  21071336.769    21071336.314
        41.000          35.000
  22252408.238    19141590.48043  14911354.41742  22252410.326    22252410.000
        49.000          43.000
  21740565.966     2202473.41643   1712012.26942  21740567.528    21740568.678
        53.000          46.000
  24482358.286     -868960.38643   -670751.93642  24482361.681    24482359.213
        44.000          37.000
 03  7  1 17  1  0.0000000  0 10G23G 3G21G18G 6G16G15G26G17G14
  21517069.124    11428199.11743   8909873.18242  21517070.834    21517070.088
        54.000          47.000
  23773846.333    -6424819.16443  -4967663.95442  23773846.914    23773851.216
        39.000          37.000
  20712610.466      107597.51044     83457.47142  20712611.787    20712610.573
        58.000          49.000
  20425704.794    14119537.81643  11004526.71142  20425705.965    20425703.833
        54.000          49.000
  22386023.403    21813998.86443  16985706.48642  22386023.717    22386026.451
        48.000          43.000
  23912985.824    18139909.47843  14132895.36142  23912986.479    23912985.253
        44.000          38.000
  21065049.532     -999710.01843   -756552.66842  21065052.895    21065050.300
        41.000          35.000
  22261450.162    19189105.32943  14948378.95942  22261452.017    22261453.973
        49.000          43.000
  21745956.932     2230799.42143   1734084.47842  21745957.968    21745959.193
        53.000          46.000
  24467938.377     -944738.84643   -729799.99042  24467940.598    24467936.910
        43.000          36.000
 03  7  1 17  1 20.0000000  0 10G23G 3G21G18G 6G16G15G26G17G14
  21512400.005    11403664.19343   8890755.07142  21512401.763    21512401.402
        54.000          47.000
  23762571.536    -6484072.72343  -5013835.47042  23762573.338    23762578.581
        39.000          37.000
  20714687.917      118515.08844     91964.66442  20714689.509    20714687.183
        58.000          49.000
  20425639.686    14119195.23443  11004259.76442  20425640.932    20425639.159
        54.000          49.000
  22398150.117    21877731.81543  17035368.50042  22398151.522    22398154.827
        47.000          43.000
  23919412.276    18173683.57343  14159212.82742  23919415.493    23919413.809
        44.000          38.000
  21058777.695    -1032671.35243   -782236.82942  21058780.204    21058779.488
        41.000          35.000
  22270536.062    19236852.72943  14985584.70142  22270539.030    22270539.032
        48.000          44.000
  21751366.753     2259230.21443   1756238.33142  21751368.321    21751368.953
        52.000          46.000
  24453516.178    -1020506.18643   -788839.41042  24453519.224    24453518.335
        40.000          35.000
 03  7  1 17  1 40.0000000  0  9G23G 3G21G18G 6G16G15G26G17
  21507761.506    11379288.51743   8871761.04442  21507763.047    21507762.675
        54.000          47.000
  23751322.173    -6543189.41543  -5059900.38342  23751322.444    23751327.840
        40.000          37.000
  20716790.868      129566.52144    100576.15742  20716792.891    20716789.813
        58.000          49.000
  20425607.431    14119026.16643  11004128.01642  20425608.732    20425607.252
        54.000          49.000
  22410305.964    21941603.71243  17085138.79142  22410306.707    22410308.903
        48.000          43.000
  23925870.342    18207613.26143  14185651.50442  23925870.396    23925869.015
        44.000          38.000
  21052522.612    -1065542.64943   -807850.79242  21052521.449    21052524.471
        40.000          35.000
  22279668.533    19284843.76243  15022980.28442  22279671.369    22279672.115
        49.000          44.000
  21756799.896     2287778.04443   1778483.38142  21756800.787    21756801.942
        53.000          46.000
 03  7  1 17  2  0.0000000  0  9G23G 3G21G18G 6G16G15G26G17
  21503147.156    11355038.51843   8852864.95142  21503148.379    21503147.660
        54.000          47.000
  23740094.201    -6602201.86643  -5105884.04442  23740095.139    23740098.709
        40.000          37.000
  20718912.928      140718.68244    109266.13642  20718914.919    20718911.769
        58.000          49.000
  20425601.904    14118997.16943  11004105.42342  20425602.967    20425601.717
        54.000          49.000
  22422480.928    22005580.54143  17134990.83542  22422483.072    22422483.066
        48.000          43.000
  23932349.875    18241664.26943  14212184.70742  23932350.369    23932349.615
        45.000          38.000
  21046274.996    -1098356.92053   -833420.35552  21046274.949    21046280.258
        35.000          34.000
  22288840.873    19333044.34343  15060539.15342  22288842.741    22288843.483
        50.000          44.000
  21762247.899     2316409.61643   1800793.68542  21762249.070    21762250.154
        52.000          45.000
 03  7  1 17  2 20.0000000  0  8G23G 3G21G18G 6G16G26G17
  21498559.464    11330933.64943   8834081.93542  21498561.365    21498560.798
        54.000          47.000
  23728886.916    -6661089.71843  -5151770.63442  23728888.648    23728890.324
        41.000          37.000
  20721058.266      151991.15544    118049.85942  20721059.754    20721056.518
        58.000          49.000
  20425627.381    14119127.40943  11004206.91942  20425628.716    20425626.347
        55.000          49.000
  22434679.859    22069681.05443  17184939.22542  22434681.268    22434681.099
        50.000          44.000
  23938855.781    18275855.18743  14238826.94042  23938857.474    23938858.512
        44.000          38.000
  22298056.503    19381473.17843  15098275.88342  22298057.637    22298058.903
        50.000          44.000
  21767715.507     2345144.50943   1823184.49642  21767716.334    21767717.515
        52.000          45.000
 03  7  1 17  2 40.0000000  0  8G23G 3G21G18G 6G16G26G17
  21494000.923    11306977.23443   8815414.60242  21494002.729    21494002.270
        53.000          47.000
  23717706.069    -6719848.72243  -5197556.84342  23717708.241    23717709.671
        40.000          37.000
  20723226.947      163387.83744    126930.37042  20723228.520    20723225.855
        57.000          49.000
  20425682.700    14119419.94643  11004434.87042  20425684.392    20425682.065
        54.000          49.000
  22446901.292    22133908.07743  17234986.21242  22446904.034    22446903.504
        50.000          44.000
  23945390.325    18310188.88843  14265580.44942  23945391.079    23945390.074
        43.000          38.000
  22307317.048    19430132.98243  15136192.60342  22307318.661    22307319.290
        50.000          44.000
  21773204.711     2373986.00343   1845658.37642  21773204.986    21773206.409
        52.000          45.000
 03  7  1 17  3  0.0000000  0  9G23G 3G21G18G 6G16G26G17G14
  21489469.461    11283160.13143   8796855.83542  21489470.393    21489470.116
        53.000          47.000
  23706548.292    -6778487.07843  -5243249.03342  23706549.712    23706550.579
        41.000          36.000
  20725417.638      174899.92844    135900.81242  20725419.146    20725417.101
        57.000          49.000
  20425767.297    14119865.48943  11004782.05242  20425768.725    20425766.611
        54.000          49.000
  22459145.936    22198251.95943  17285124.24942  22459148.062    22459147.298
        50.000          43.000
  23951948.513    18344655.45843  14292437.50142  23951949.309    23951949.312
        43.000          37.000
  22316617.868    19479014.13943  15174281.80142  22316620.005    22316621.966
        50.000          45.000
  21778710.817     2402925.62243   1868208.72042  21778712.397    21778713.204
        52.000          44.000
  24381464.770
        42.000
 03  7  1 17  3 20.0000000  0  9G23G 3G21G18G 6G16G26G17G14
  21484964.313    11259487.93943   8778409.97142  21484965.769    21484965.437
        53.000          47.000
  23695413.605    -6836998.42143  -5288842.27042  23695413.736    23695416.120
        40.000          36.000
  20727631.446      186533.38644    144965.83342  20727632.865    20727631.159
        57.000          50.000
  20425882.021    14120469.59243  11005252.78442  20425883.583    20425881.333
        53.000          48.000
  22471413.125    22262717.72843  17335357.26742  22471415.218    22471415.013
        50.000          43.000
  23958532.718    18379259.84543  14319401.93542  23958536.672    23958533.809
        43.000          37.000
  22325963.434    19528121.31943  15212547.13142  22325965.445    22325966.105
        51.000          45.000
  21784238.086     2431969.86743   1890840.57342  21784237.692    21784240.793
        52.000          44.000
  24367051.039     -627823.41653   -477915.34352  24367057.361    24367074.706
        41.000          36.000
 03  7  1 17  3 40.0000000  0  9G23G 3G21G18G 6G16G26G17G14
  21480487.483    11235961.47943   8760077.67742  21480488.874    21480488.096
        53.000          47.000
  23684303.567    -6895381.03143  -5334335.18342  23684306.229    23684304.437
        41.000          35.000
  20729868.465      198289.60044    154126.51642  20729869.895    20729868.487
        57.000          50.000
  20426027.711    14121232.80743  11005847.50442  20426028.860    20426027.224
        53.000          48.000
  22483702.875    22327305.81143  17385685.58242  22483704.968    22483706.636
        49.000          42.000
  23965142.264    18414002.32843  14346473.98842  23965145.103    23965143.721
        42.000          37.000
  22335350.767    19577454.97543  15250988.93142  22335352.902    22335354.183
        50.000          45.000
  21789785.422     2461119.13943   1913554.27642  21789785.506    21789786.920
        52.000          44.000
  24352648.379     -703511.14843   -536892.67242  24352653.883    24352660.592
        42.000          35.000
 03  7  1 17  4  0.0000000  0  9G23G 3G21G18G 6G16G26G17G14
  21476037.447    11212578.07843   8741856.86042  21476038.947    21476037.696
        53.000          47.000
  23673217.221    -6953636.48043  -5379729.01042  23673219.091    23673223.103
        40.000          35.000
  20732128.560      210166.11844    163380.95142  20732130.013    20732128.769
        57.000          50.000
  20426202.514    14122152.43443  11006564.09942  20426203.407    20426201.264
        52.000          48.000
  22496016.725    22392013.02943  17436106.73042  22496017.793    22496018.142
        49.000          42.000
  23971781.720    18448879.52843  14373650.99942  23971782.791    23971781.948
        44.000          37.000
  22344781.795    19627011.79443  15289604.62042  22344784.137    22344784.194
        51.000          46.000
  21795351.212     2490370.95043   1936347.87542  21795352.040    21795352.821
        52.000          44.000
  24338249.012     -779184.75143   -595858.88542  24338251.022    24338240.820
        42.000          34.000
 03  7  1 17  4 20.0000000  0  9G23G 3G21G18G 6G16G26G17G14
  21471615.907    11189340.21243   8723749.44942  21471617.072    21471615.640
        54.000          47.000
  23662156.782    -7011761.36643  -5425021.11042  23662159.747    23662158.959
        42.000          35.000
  20734412.196      222165.50844    172731.12842  20734413.258    20734412.105
        57.000          50.000
  20426407.045    14123230.61843  11007404.23842  20426408.424    20426406.360
        52.000          47.000
  22508353.047    22456841.27243  17486622.17842  22508354.076    22508354.118
        49.000          41.000
  23978444.123    18483893.36843  14400934.50442  23978445.738    23978443.775
        43.000          37.000
  22354255.405    19676793.64943  15328395.66742  22354257.072    22354256.733
        52.000          46.000
  21800937.981     2519728.35543   1959223.77042  21800939.536    21800940.232
        52.000          44.000
  24323850.978     -854840.95443   -654811.65042  24323854.058    24323843.676
        41.000          34.000
 03  7  1 17  4 40.0000000  0  9G23G 3G21G18G 6G16G26G17G14
  21467220.761    11166243.59543   8705752.10242  21467221.841    21467220.809
        54.000          47.000
  23651121.083    -7069759.30243  -5470214.28342  23651122.463    23651123.607
        43.000          35.000
  20736718.661      234284.31944    182174.36042  20736719.616    20736718.091
        57.000          50.000
  20426642.069    14124463.02243  11008364.55142  20426643.424    20426640.881
        51.000          47.000
  22520711.474    22521785.69843  17537228.14742  22520712.414    22520710.704
        49.000          41.000
  23985132.092    18519038.95343  14428320.63642  23985133.660    23985132.642
        43.000          37.000
  22363769.753    19726795.53743  15367358.15942  22363771.372    22363772.285
        52.000          46.000
  21806544.190     2549187.59343   1982179.01042  21806544.399    21806546.572
        52.000          44.000
  24309456.357     -930482.83443   -713753.35642  24309461.778    24309454.343
        42.000          34.000
 03  7  1 17  5  0.0000000  0  9G23G 3G21G18G 6G16G26G17G14
  21462852.645    11143289.61243   8687865.89442  21462853.821    21462852.788
        54.000          47.000
  23640108.308    -7127627.82743  -5515306.60742  23640110.602    23640109.206
        43.000          36.000
  20739047.628      246524.05544    191711.81642  20739048.805    20739047.276
        57.000          50.000
  20426905.696    14125850.79343  11009445.92142  20426906.810    20426905.924
        51.000          47.000
  22533093.100    22586847.16643  17587925.30042  22533093.501    22533090.533
        49.000          41.000
  23991846.150    18554316.92743  14455809.94142  23991848.059    23991845.058
        44.000          37.000
  22373326.950    19777018.23443  15406492.71942  22373329.196    22373328.554
        52.000          45.000
  21812169.520     2578750.06143   2005214.69042  21812170.426    21812173.028
        52.000          44.000
  24295066.782    -1006108.10543   -772682.08542  24295067.929    24295065.485
        43.000          35.000
 03  7  1 17  5 20.0000000  0  9G23G 3G21G18G 6G16G26G17G14
  21458512.039    11120480.95843   8670092.93142  21458513.339    21458512.322
        54.000          47.000
  23629121.825    -7185363.39043  -5560295.32842  23629123.577    23629124.474
        44.000          36.000
  20741400.473      258887.97443    201346.03842  20741401.459    20741399.582
        56.000          50.000
  20427199.780    14127396.64343  11010650.47042  20427201.786    20427200.052
        51.000          47.000
  22545497.203    22652027.88343  17638715.36242  22545497.448    22545495.976
        50.000          41.000
  23998585.820    18589729.55643  14483404.16342  23998588.897    23998584.901
        46.000          37.000
  22382926.379    19827464.01943  15445801.10742  22382928.174    22382929.222
        51.000          45.000
  21817815.583     2608418.96743   2028333.29342  21817817.082    21817817.125
        51.000          44.000
  24280679.688    -1081713.08543   -831594.99742  24280682.827    24280683.393
        44.000          37.000
 03  7  1 17  5 40.0000000  0  9G23G 3G21G18G 6G16G26G17G14
  21454197.616    11097812.77643   8652429.41642  21454198.848    21454198.394
        53.000          47.000
  23618161.121    -7242969.90543  -5605183.49142  23618161.305    23618163.451
        44.000          37.000
  20743776.005      271371.47943    211073.44442  20743776.937    20743774.685
        56.000          50.000
  20427523.812    14129095.53143  11011974.27242  20427525.129    20427523.485
        51.000          47.000
  22557923.070    22717322.44643  17689594.16242  22557925.146    22557922.041
        50.000          41.000
  24005348.676    18625271.21043  14511098.92942  24005350.462    24005349.311
        46.000          38.000
  22392567.048    19878127.19843  15485278.89642  22392569.547    22392570.046
        51.000          45.000
  21823480.821     2638190.01543   2051531.49142  21823480.523    21823481.906
        51.000          44.000
  24266297.126    -1157301.75843   -890495.21042  24266298.567    24266299.412
        45.000          38.000
 03  7  1 17  6  0.0000000  0  9G23G 3G21G18G 6G16G26G17G14
  21449911.526    11075288.57743   8634878.10142  21449912.750    21449912.385
        53.000          46.000
  23607223.588    -7300443.08243  -5649967.75042  23607224.484    23607226.870
        44.000          37.000
  20746174.974      283978.59943    220897.17242  20746176.106    20746173.673
        56.000          50.000
  20427876.325    14130950.86943  11013419.98442  20427878.050    20427876.209
        51.000          47.000
  22570369.773    22782733.84143  17740563.99942  22570371.229    22570369.997
        49.000          42.000
  24012137.208    18660944.74143  14538896.44942  24012138.008    24012137.183
        46.000          38.000
  22402250.141    19929010.75643  15524928.40942  22402251.272    22402252.554
        51.000          45.000
  21829166.359     2668066.89643   2074812.15242  21829166.877    21829166.257
        51.000          44.000
  24251915.967    -1232869.63843   -949379.21342  24251918.209    24251919.873
        46.000          39.000
 03  7  1 17  6 20.0000000  0  9G23G 3G21G18G 6G16G26G17G14
  21445653.168    11052906.55443   8617437.57042  21445653.972    21445653.442
        53.000          46.000
  23596311.746    -7357783.66643  -5694648.68942  23596313.797    23596315.578
        44.000          37.000
  20748596.982      296707.82143    230816.04442  20748598.306    20748596.011
        56.000          50.000
  20428259.899    14132960.51643  11014985.93842  20428260.586    20428257.978
        51.000          47.000
  22582837.829    22848259.72343  17791623.05742  22582839.427    22582839.351
        49.000          43.000
  24018950.540    18696747.62343  14566794.72542  24018951.403    24018950.347
        46.000          38.000
  22411973.938    19980112.14243  15564747.64942  22411976.637    22411977.732
        51.000          45.000
  21834871.955     2698047.74643   2098173.81542  21834871.998    21834872.190
        51.000          44.000
  24237539.710    -1308417.63543  -1008247.72842  24237542.852    24237544.323
        44.000          39.000
 03  7  1 17  6 40.0000000  0  9G23G 3G21G18G 6G16G26G17G14
  21441421.880    11030668.59143   8600109.30742  21441422.491    21441421.519
        54.000          46.000
  23585426.072    -7414988.80043  -5739224.08142  23585427.718    23585429.679
        44.000          38.000
  20751042.792      309561.71443    240832.05942  20751044.160    20751042.288
        56.000          50.000
  20428672.268    14135126.33743  11016673.58042  20428673.867    20428671.043
        52.000          47.000
  22595329.716    22913901.52243  17842772.47342  22595330.223    22595334.394
        49.000          43.000
  24025787.687    18732681.12443  14594794.81442  24025790.281    24025788.426
        45.000          38.000
  22421740.664    20031432.68643  15604737.67042  22421742.297    22421743.151
        51.000          45.000
  21840597.141     2728135.20943   2121618.57542  21840598.053    21840598.852
        51.000          44.000
  24223166.883    -1383942.85143  -1067098.49042  24223169.378    24223171.831
        44.000          39.000
 03  7  1 17  7  0.0000000  0  9G23G 3G21G18G 6G16G26G17G14
  21437216.059    11008573.01343   8582891.99342  21437217.840    21437216.761
        53.000          46.000
  23574565.898    -7472059.14743  -5783694.46642  23574568.468    23574570.060
        44.000          38.000
  20753512.044      322538.63543    250943.94142  20753513.513    20753511.940
        56.000          50.000
  20429112.779    14137446.56643  11018481.55442  20429114.992    20429112.611
        51.000          47.000
  22607841.188    22979657.06943  17894010.52142  22607842.521    22607844.515
        49.000          43.000
  24032649.851    18768742.98543  14622894.93942  24032649.976    24032649.960
        45.000          38.000
  22431547.269    20082970.24543  15644896.78642  22431549.100    22431551.179
        51.000          45.000
  21846342.387     2758327.70443   2145145.17842  21846344.219    21846344.362
        52.000          45.000
  24208799.623    -1459445.81743  -1125931.94442  24208800.049    24208805.310
        44.000          38.000
 03  7  1 17  7 20.0000000  0  9G23G 3G21G18G 6G16G26G17G14
  21433038.531    10986617.08843   8565783.50742  21433039.641    21433038.606
        54.000          46.000
  23563730.529    -7528996.78343  -5828061.43542  23563732.161    23563734.411
        43.000          37.000
  20756004.546      335636.32143    261149.92842  20756006.081    20756004.809
        56.000          50.000
  20429583.388    14139918.25543  11020407.54042  20429585.003    20429583.177
        51.000          47.000
  22620376.111    23045523.04143  17945334.60742  22620377.861    22620378.383
        49.000          43.000
  24039535.577    18804929.89243  14651092.49942  24039535.132    24039538.789
        44.000          38.000
  22441395.849    20134721.22843  15685222.21742  22441397.544    22441398.648
        51.000          45.000
  21852107.156     2788622.71443   2168751.65742  21852108.032    21852109.760
        52.000          45.000
  24194434.060    -1534928.50143  -1184749.60442  24194435.412    24194438.840
        43.000          38.000
 03  7  1 17  7 40.0000000  0  9G23G 3G21G18G 6G16G26G17G14
  21428888.440    10964806.92643   8548788.59942  21428889.901    21428888.707
        54.000          46.000
  23552921.324    -7585794.61243  -5872319.47042  23552923.440    23552927.666
        43.000          38.000
  20758521.837      348861.34243    271455.13342  20758522.618    20758521.410
        56.000          50.000
  20430083.808    14142547.12843  11022456.00742  20430085.244    20430083.846
        51.000          47.000
  22632932.653    23111504.99643  17996749.06142  22632934.831    22632933.545
        49.000          43.000
  24046445.272    18841247.28243  14679391.73342  24046445.937    24046450.019
        42.000          37.000
  22451284.541    20186691.12843  15725718.21442  22451287.064    22451288.148
        51.000          45.000
  21857893.097     2819026.93743   2192443.24342  21857894.467    21857895.514
        52.000          45.000
  24180076.396    -1610383.67243  -1243545.80842  24180078.257    24180082.179
        43.000          38.000
 03  7  1 17  8  0.0000000  0  9G23G 3G21G18G 6G16G26G17G14
  21424764.392    10943136.11243   8531902.26642  21424766.682    21424764.758
        54.000          46.000
  23542138.674    -7642458.29943  -5916472.97242  23542138.845    23542143.207
        42.000          37.000
  20761061.769      362207.57043    281854.79142  20761062.914    20761060.905
        56.000          50.000
  20430612.951    14145326.68243  11024621.89342  20430614.643    20430612.666
        52.000          47.000
  22645509.190    23177595.93743  18048248.42242  22645511.309    22645512.444
        50.000          43.000
  24053379.801    18877688.17543  14707787.21142  24053381.748    24053386.281
        41.000          37.000
  22461214.687    20238872.94943  15766379.35142  22461216.992    22461218.396
        51.000          45.000
  21863698.783     2849534.40643   2216215.27442  21863700.237    21863700.946
        52.000          46.000
  24165721.256    -1685816.87743  -1302324.83742  24165723.944    24165725.112
        44.000          38.000
 03  7  1 17  8 20.0000000  0  9G23G 3G21G18G 6G16G26G17G14
  21420667.880    10921609.16843   8515128.04242  21420669.837    21420668.475
        54.000          47.000
  23531381.831    -7698982.21343  -5960517.56542  23531382.612    23531384.141
        43.000          37.000
  20763625.450      375679.89544    292352.70242  20763626.749    20763624.371
        57.000          50.000
  20431171.037    14148261.33643  11026908.62942  20431172.982    20431171.115
        52.000          47.000
  22658108.289    23243799.99743  18099835.92042  22658110.081    22658107.993
        49.000          43.000
  24060338.607    18914256.35243  14736281.87842  24060337.336    24060343.027
        41.000          36.000
  22471185.726    20291270.54343  15807208.62242  22471187.716    22471188.745
        51.000          45.000
  21869524.470     2880149.62243   2240071.27342  21869525.787    21869526.098
        52.000          46.000
  24151373.888    -1761222.63643  -1361082.49142  24151375.144    24151375.570
        45.000          38.000
 03  7  1 17  8 40.0000000  0  9G23G 3G21G18G 6G16G26G17G14
  21416597.806    10900220.13143   8498461.27442  21416599.472    21416598.368
        54.000          47.000
  23520652.606    -7755371.35343  -6004457.13442  23520653.133    23520656.826
        43.000          37.000
  20766211.766      389272.98843    302944.71242  20766213.256    20766211.128
        56.000          50.000
  20431757.588    14151345.09543  11029311.55742  20431759.327    20431757.693
        51.000          47.000
  22670725.176    23310110.63243  18151506.46242  22670727.324    22670728.672
        48.000          42.000
  24067320.808    18950945.06643  14764870.51542  24067321.686    24067324.576
        41.000          37.000
  22481196.429    20343877.30043  15848200.87142  22481199.090    22481198.941
        51.000          45.000
  21875369.604     2910867.19743   2264007.04242  21875371.223    21875371.369
        52.000          45.000
  24137027.261    -1836605.89043  -1419822.59342  24137030.927    24137029.321
        45.000          37.000
 03  7  1 17  9  0.0000000  0  9G23G 3G21G18G 6G16G26G17G14
  21412554.142    10878972.43543   8481904.64242  21412556.066    21412555.821
        54.000          47.000
  23509948.244    -7811621.35743  -6048288.27642  23509948.417    23509951.311
        44.000          37.000
  20768821.845      402990.65143    313633.79042  20768823.577    20768821.534
        56.000          50.000
  20432373.859    14154581.28143  11031833.25542  20432375.174    20432372.955
        52.000          47.000
  22683363.157    23376530.79843  18203262.38542  22683364.832    22683367.866
        46.000          42.000
  24074326.842    18987757.40543  14793555.47642  24074327.011    24074327.802
        42.000          37.000
  22491247.144    20396696.21743  15889358.44542  22491249.150    22491250.479
        51.000          45.000
  21881234.939     2941690.52743   2288025.21442  21881236.229    21881236.434
        51.000          45.000
  24122686.929    -1911962.16543  -1478541.66242  24122689.434    24122686.786
        45.000          36.000
 03  7  1 17  9 20.0000000  0  9G23G 3G21G18G 6G16G26G17G14
  21408537.931    10857865.81443   8465457.92842  21408539.365    21408538.733
        54.000          47.000
  23499270.522    -7867731.65743  -6092010.55642  23499270.566    23499275.303
        45.000          37.000
  20771456.399      416833.01843    324420.04242  20771457.432    20771455.712
        56.000          50.000
  20433018.527    14157969.27943  11034473.25242  20433020.214    20433017.447
        52.000          46.000
  22696022.819    23443059.63543  18255102.99242  22696024.714    22696027.627
        46.000          41.000
  24081356.738    19024692.31743  14822335.88342  24081358.323    24081356.884
        44.000          37.000
  22501338.887    20449726.27943  15930680.54942  22501340.367    22501341.669
        51.000          45.000
  21887120.094     2972620.28343   2312126.31542  21887121.739    21887122.995
        51.000          45.000
  24108352.814    -1987290.82943  -1537239.20542  24108353.281    24108348.654
        44.000          35.000
 03  7  1 17  9 40.0000000  0  9G23G 3G21G18G 6G16G26G17G14
  21404548.173    10836899.45543   8449120.50942  21404549.699    21404548.776
        54.000          48.000
  23488619.867    -7923702.09843  -6135623.84642  23488623.008    23488625.231
        45.000          37.000
  20774113.459      430799.54043    335303.03942  20774115.006    20774113.477
        56.000          49.000
  20433692.023    14161508.15943  11037230.81042  20433693.792    20433691.739
        52.000          46.000
  22708703.744    23509695.78243  18307027.22042  22708705.857    22708709.275
        46.000          42.000
  24088408.159    19061748.48643  14851210.77142  24088408.303    24088408.722
        44.000          37.000
  22511469.647    20502966.01243  15972166.02742  22511471.983    22511472.149
        51.000          45.000
  21893026.518     3003655.93543   2336309.92842  21893027.175    21893029.316
        52.000          46.000
  24094022.285    -2062591.82443  -1595915.18042  24094026.279    24094019.237
        42.000          34.000
 03  7  1 17 10  0.0000000  0  9G23G 3G21G18G 6G16G26G17G14
  21400585.524    10816075.89543   8432894.35742  21400586.548    21400586.997
        54.000          48.000
  23477997.121    -7979529.17843  -6179125.39142  23477999.197    23477997.701
        46.000          37.000
  20776795.792      444893.15743    346285.07342  20776797.154    20776795.458
        56.000          49.000
  20434394.808    14165200.46443  11040107.91842  20434396.542    20434394.103
        51.000          46.000
  22721407.638    23576441.34243  18359036.68842  22721409.209    22721410.833
        48.000          43.000
  24095483.847    19098927.82243  14880181.64642  24095484.844    24095482.940
        45.000          38.000
  22521641.365    20556417.24343  16013816.31442  22521643.193    22521644.202
        51.000          45.000
  21898953.331     3034800.02043   2360578.02842  21898954.234    21898955.223
        52.000          46.000
  24079697.253    -2137861.40143  -1654566.70442  24079694.930    24079693.963
        40.000          33.000
 03  7  1 17 10 20.0000000  0  9G23G 3G21G18G 6G16G26G17G14
  21396648.528    10795389.53343   8416775.11442  21396650.268    21396649.865
        54.000          48.000
  23467399.558    -8035217.65043  -6222518.97242  23467399.708    23467403.590
        47.000          37.000
  20779501.196      459108.73943    357362.14342  20779502.054    20779500.648
        56.000          49.000
  20435125.498    14169040.26543  11043099.95542  20435126.759    20435125.474
        51.000          46.000
  22734129.398    23643290.24043  18411126.67342  22734130.549    22734132.671
        49.000          43.000
  24102580.318    19136223.97343  14909243.52742  24102583.832    24102579.468
        45.000          38.000
  22531852.401    20610073.83143  16055626.62642  22531854.189    22531854.461
        51.000          45.000
  21904898.983     3066046.97843   2384926.29342  21904900.385    21904901.494
        52.000          45.000
  24065377.880    -2213104.26943  -1713197.43442  24065379.552    24065380.574
        39.000          33.000
 03  7  1 17 10 40.0000000  0  9G23G 3G21G18G 6G16G26G17G14
  21392739.548    10774843.81143   8400765.46542  21392740.776    21392739.647
        54.000          47.000
  23456830.506    -8090763.07343  -6265801.05342  23456831.987    23456834.411
        47.000          37.000
  20782230.292      473450.23943    368537.33442  20782231.472    20782230.273
        56.000          49.000
  20435884.957    14173030.89143  11046209.52142  20435886.345    20435885.094
        51.000          46.000
  22746870.574    23710245.42243  18463299.46842  22746871.470    22746873.294
        50.000          44.000
  24109699.802    19173639.72543  14938398.61942  24109700.794    24109699.161
        45.000          37.000
  22542101.850    20663938.57643  16097599.13642  22542104.833    22542104.120
        51.000          45.000
  21910866.260     3097401.10443   2409358.06642  21910866.783    21910867.555
        52.000          45.000
  24051066.537    -2288316.04053  -1771803.96152  24051065.842    24051071.747
        39.000          33.000
 03  7  1 17 11  0.0000000  0  9G23G 3G21G18G 6G16G26G17G14
  21388856.015    10754435.68143   8384863.03242  21388857.412    21388855.985
        55.000          48.000
  23446286.498    -8146167.54943  -6308973.28042  23446288.142    23446287.032
        47.000          37.000
  20784983.123      487914.94543    379808.52142  20784984.208    20784982.405
        56.000          49.000
  20436672.206    14177169.38443  11049434.30042  20436673.572    20436672.106
        51.000          46.000
  22759631.046    23777303.25743  18515552.24742  22759632.673    22759633.517
        51.000          44.000
  24116841.811    19211171.41543  14967644.04142  24116844.676    24116842.228
        45.000          37.000
  22552390.619    20718007.80443  16139730.98842  22552392.877    22552394.164
        50.000          45.000
  21916852.490     3128859.47643   2433871.07142  21916854.021    21916855.107
        52.000          45.000
  24036762.934    -2363498.66743  -1830387.75442  24036761.346    24036763.259
        40.000          34.000
 03  7  1 17 11 20.0000000  0  9G23G 3G21G18G 6G16G26G17G14
  21384999.704    10734167.92843   8369069.99242  21385001.283    21384999.202
        55.000          48.000
  23435771.894    -8201427.27643                  23435772.837
        48.000
  20787759.572      502506.04743    391178.19542  20787760.722    20787759.033
        56.000          48.000
  20437487.814    14181458.32343  11052776.31242  20437490.189    20437488.552
        51.000          45.000
  22772412.638    23844466.20843  18567886.92342  22772414.203    22772413.454
        51.000          44.000
  24124005.907    19248821.38643  14996981.64042  24124005.856    24124006.010
        44.000          37.000
  22562719.423    20772283.85643  16182024.00042  22562721.067    22562722.196
        50.000          45.000
  21922859.279     3160425.35543   2458467.84842  21922860.454    21922860.684
        52.000          45.000
  24022462.545    -2438648.32743  -1888945.86242  24022463.920    24022459.886
        41.000          35.000
 03  7  1 17 11 40.0000000  0  9G23G 3G21G18G 6G16G26G17G14
  21381169.017    10714038.76343   8353384.94042  21381170.556    21381168.564
        55.000          48.000
  23425283.512    -8256543.05243                  23425284.914
        49.000
  20790559.618      517222.33643    402645.41242  20790560.835    20790559.250
        55.000          48.000
  20438332.268    14185895.72543  11056234.01742  20438333.276    20438332.337
        51.000          45.000
  22785212.820    23911731.81943  18620301.59242  22785215.050    22785213.759
        50.000          43.000
  24131192.740    19286586.93843  15026409.29342  24131194.813    24131193.449
        44.000          36.000
  22573086.176    20826764.03643  16224476.06942  22573088.470    22573090.256
        50.000          45.000
  21928886.119     3192097.12043   2483147.12742  21928887.587    21928887.889
        52.000          45.000
  24008167.965    -2513765.85343  -1947478.89442  24008171.131    24008168.761
        44.000          36.000
 03  7  1 17 12  0.0000000  0  9G23G 3G21G18G 6G16G26G17G14
  21377364.716    10694049.11043   8337808.60942  21377366.619    21377365.009
        55.000          48.000
  23414822.888    -8311513.24843  -6437813.88142  23414826.555    23414824.427
        49.000          38.000
  20793383.781      532064.82943    414210.97542  20793385.029    20793383.517
        55.000          48.000
  20439205.302    14190482.20543  11059807.88042  20439206.757    20439205.086
        50.000          44.000
  22798032.457    23979100.42143  18672796.51542  22798033.839    22798033.776
        49.000          43.000
  24138401.036    19324468.43643  15055927.28942  24138401.621    24138402.516
        44.000          37.000
  22583492.672    20881448.70043  16267087.48142  22583494.713    22583496.627
        50.000          45.000
  21934932.988     3223876.27243   2507910.07742  21934933.905    21934934.181
        51.000          44.000
  23993879.411    -2588849.49543  -2005985.53042  23993882.906    23993878.602
        44.000          36.000
 03  7  1 17 12 20.0000000  0  9G23G 3G21G18G 6G16G26G17G14
  21373588.315    10674201.16343   8322342.68042  21373589.851    21373588.586
        55.000          48.000
  23404390.543    -8366334.64543  -6480531.81142  23404391.872    23404390.378
        49.000          39.000
  20796232.549      547036.35243    425877.08542  20796233.459    20796232.872
        55.000          48.000
  20440106.839    14195219.97743  11063499.62742  20440107.934    20440107.044
        51.000          44.000
  22810871.016    24046573.83943  18725373.12642  22810872.725    22810873.419
        48.000          42.000
  24145632.296    19362467.52543  15085536.93542  24145635.015    24145632.080
        44.000          37.000
  22593937.590    20936339.34843  16309859.40742  22593940.003    22593940.954
        49.000          44.000
  21941001.119     3255765.35043   2532758.69242  21941002.792    21941003.269
        51.000          43.000
  23979598.063    -2663895.88943  -2064463.11342  23979601.480    23979596.368
        44.000          36.000
 03  7  1 17 12 40.0000000  0  9G23G 3G21G18G 6G16G26G17G14
  21369837.026    10654490.90543   8306984.04742  21369838.666    21369837.885
        54.000          47.000
  23393986.637    -8421010.52843  -6523136.34142  23393987.761    23393989.048
        49.000          39.000
  20799105.371      562133.14843    437640.81942  20799106.787    20799105.665
        56.000          49.000
  20441036.700    14200104.86943  11067306.04242  20441038.024    20441037.057
        51.000          44.000
  22823728.805    24114147.53943  18778027.89242  22823732.221    22823733.116
        47.000          41.000
  24152883.020    19400579.57643  15115234.60442  24152886.942    24152886.345
        43.000          37.000
  22604421.843    20991431.48643  16352788.33442  22604422.796    22604425.014
        49.000          44.000
  21947090.008     3287760.89043   2557690.26942  21947090.835    21947092.783
        50.000          43.000
  23965323.357    -2738908.09243  -2122914.08242  23965327.395    23965321.327
        44.000          36.000
 03  7  1 17 13  0.0000000  0  9G23G 3G21G18G 6G16G26G17G14
  21366112.451    10634919.11843   8291733.31042  21366114.165    21366113.021
        54.000          47.000
  23383610.051    -8475539.15843  -6565626.14942  23383610.710    23383610.307
        50.000          39.000
  20802003.062      577356.45843    449503.12742  20802003.893    20802002.079
        56.000          49.000
  20441994.542    14205137.41243  11071227.48842  20441996.199    20441994.899
        51.000          43.000
  22836605.781    24181821.66243  18830760.92242  22836607.076    22836611.593
        46.000          41.000
  24160158.376    19438804.65643  15145020.33742  24160159.352    24160161.165
        43.000          38.000
  22614943.703    21046725.00643  16395874.17642  22614944.782    22614947.475
        49.000          44.000
  21953199.650     3319863.76543   2582705.48742  21953200.437    21953201.532
        50.000          43.000
  23951055.688    -2813884.36743  -2181337.06342  23951058.961    23951055.079
        44.000          36.000
 03  7  1 17 13 20.0000000  0  9G23G 3G21G18G 6G16G26G17G14
  21362414.542    10615486.36143   8276590.90642  21362415.735    21362414.896
        53.000          47.000
  23373261.779    -8529918.89543  -6607999.92542  23373264.237    23373262.915
        49.000          39.000
  20804924.061      592707.29843    461464.80942  20804925.325    20804923.550
        56.000          49.000
  20442980.651    14210317.98443  11075264.30142  20442981.876    20442979.513
        52.000          43.000
  22849501.611    24249596.21143  18883572.21942  22849504.036    22849509.877
        45.000          40.000
  24167454.529    19477142.60143  15174894.05542  24167455.686    24167456.215
        43.000          38.000
  22625504.070    21102219.91443  16439116.94342  22625505.615    22625507.043
        48.000          44.000
  21959329.594     3352074.62743   2607804.83942  21959330.041    21959331.128
        51.000          43.000
  23936795.526    -2888822.99543  -2239730.71042  23936799.813    23936797.220
        44.000          37.000
 03  7  1 17 13 40.0000000  0  9G23G 3G21G18G 6G16G26G17G14
  21358742.618    10596190.66743   8261555.29542  21358743.437    21358743.142
        53.000          46.000
  23362941.421    -8584150.76843  -6650258.47842  23362941.105    23362945.218
        49.000          38.000
  20807869.251      608184.10344    473524.64942  20807870.435    20807868.552
        57.000          49.000
  20443994.657    14215644.68843  11079414.98642  20443994.786    20443992.764
        52.000          43.000
  22862418.984    24317468.85043  18936459.93942  22862421.297    22862424.829
        46.000          40.000
  24174771.659    19515590.96943  15204853.79942  24174772.837    24174773.512
        43.000          38.000
  22636101.538    21157913.71943  16482514.69742  22636103.525    22636106.393
        48.000          43.000
  21965479.246     3384392.34243   2632987.44742  21965480.533    21965480.064
        51.000          43.000
  23922543.885    -2963725.04643  -2298095.88542  23922546.830    23922547.465
        45.000          38.000
 03  7  1 17 14  0.0000000  0  9G23G 3G21G18G 6G16G26G17G14
  21355096.580    10577032.35443   8246626.74642  21355097.517    21355096.952
        53.000          46.000
  23352650.457    -8638233.48143  -6692400.80942  23352651.878    23352650.851
        49.000          39.000
  20810838.091      623787.67743    485683.27142  20810839.595    20810837.791
        56.000          49.000
  20445035.412    14221117.58543  11083679.58142  20445036.969    20445035.321
        52.000          42.000
  22875354.553    24385439.35443  18989423.88442  22875355.508    22875356.203
        46.000          39.000
  24182109.026    19554149.31743  15234899.24342  24182111.792    24182112.359
        44.000          39.000
  22646738.079    21213806.00443  16526067.12042  22646740.346    22646741.585
        48.000          44.000
  21971649.274     3416817.06243   2658253.42542  21971650.610    21971651.900
        50.000          43.000
  23908297.025    -3038589.21943  -2356431.54642  23908300.938    23908302.407
        46.000          39.000
 03  7  1 17 14 20.0000000  0  9G23G 3G21G18G 6G16G26G17G14
  21351476.685    10558010.62843   8231804.63142  21351478.764    21351477.507
        53.000          46.000
  23342386.817    -8692166.88143                  23342386.795
        49.000
  20813831.521      639517.54843    497940.30442  20813832.866    20813831.406
        56.000          49.000
  20446104.826    14226735.76043  11088057.38742  20446104.419    20446104.472
        51.000          42.000
  22888306.962    24453506.45843  19042463.08242  22888306.960    22888304.783
        46.000          39.000
  24189467.197    19592816.37543  15265029.37642  24189468.656    24189467.615
        44.000          38.000
  22657411.271    21269895.52043  16569773.21042  22657412.792    22657415.128
        48.000          43.000
  21977839.461     3449348.35143   2683602.45642  21977840.513    21977840.431
        50.000          44.000
  23894058.769    -3113415.34043  -2414737.56742  23894061.948    23894062.460
        46.000          40.000
 03  7  1 17 14 40.0000000  0  9G23G 3G21G18G 6G16G26G17G14
  21347884.224    10539127.28043   8217090.34042  21347885.438    21347884.128
        54.000          46.000
  23332152.105    -8745948.43043  -6776334.44742  23332152.320    23332147.391
        48.000          37.000
  20816849.245      655375.92843    510297.47042  20816850.551    20816848.946
        56.000          49.000
  20447201.079    14232500.79143  11092549.60942  20447203.115    20447201.987
        51.000          42.000
  22901278.347    24521671.42743  19095578.54942  22901279.041    22901273.006
        46.000          38.000
  24196843.360    19631593.16343  15295245.02242  24196844.835    24196847.376
        42.000          37.000
  22668122.793    21326183.14043  16613633.68242  22668124.452    22668127.231
        48.000          43.000
  21984050.782     3481988.31743   2709036.15142  21984050.942    21984052.635
        51.000          44.000
  23879828.005    -3188200.57943  -2473011.73642  23879830.953    23879831.327
        47.000          40.000
 03  7  1 17 15  0.0000000  0  9G23G 3G21G18G 6G16G26G17G14
  21344317.274    10520381.74343   8202483.44242  21344318.384    21344317.123
        55.000          47.000
  23321947.060    -8799577.59643  -6818123.36442  23321952.831    23321949.587
        48.000          36.000
  20819891.633      671362.47344    522754.51442  20819892.890    20819891.371
        57.000          49.000
  20448326.304    14238412.17043  11097155.91242  20448325.814    20448326.576
        50.000          41.000
  22914268.273    24589933.15343  19148769.38342  22914268.899    22914264.952
        47.000          38.000
  24204244.607    19670478.47943  15325545.26042  24204245.961    24204247.407
        43.000          37.000
  22678871.555    21382667.75543  16657647.65142  22678874.042    22678874.539
        48.000          43.000
  21990283.069     3514737.04143   2734554.60142  21990283.297    21990284.795
        51.000          45.000
  23865602.904    -3262944.31543  -2531253.55542  23865607.722    23865609.937
        46.000          40.000
 03  7  1 17 15 20.0000000  0  9G23G 3G21G18G 6G16G26G17G14
  21340775.527    10501770.61343   8187981.28142  21340777.203    21340775.777
        55.000          47.000
  23311769.958    -8853056.75943  -6859795.34442  23311777.756    23311775.672
        48.000          37.000
  20822957.533      687474.76544    535309.53442  20822959.304    20822957.133
        57.000          50.000
  20449477.852    14244466.27143  11101873.40942  20449478.545    20449473.786
        49.000          41.000
  22927275.996    24658287.74943  19202032.57442  22927278.047    22927277.101
        47.000          39.000
  24211664.342    19709468.42843  15355926.97842  24211665.228    24211668.856
        42.000          37.000
  22689657.266    21439345.44143  16701812.06542  22689659.332    22689660.236
        48.000          43.000
  21996535.086     3547591.53143   2760155.46142  21996536.037    21996536.993
        51.000          45.000
  23851388.073    -3337648.96043  -2589464.91942  23851390.480    23851393.152
        45.000          40.000
 03  7  1 17 15 40.0000000  0  9G23G 3G21G18G 6G16G26G17G14
  21337260.747    10483299.35743   8173588.10842  21337262.087    21337260.833
        55.000          48.000
  23301622.470    -8906379.54443  -6901345.55342  23301623.820    23301622.934
        46.000          36.000
  20826048.805      703718.41344    547966.91042  20826050.243    20826048.229
        57.000          50.000
  20450658.756    14250668.59043  11106706.38942  20450659.160    20450655.624
        50.000          41.000
  22940303.001    24726740.23943  19255372.07342  22940306.069    22940305.860
        48.000          40.000
  24219105.278    19748568.00243  15386394.12342  24219105.991    24219107.615
        43.000          37.000
  22700480.286    21496221.05643  16746130.70342  22700482.659    22700483.247
        48.000          43.000
  22002808.499     3580557.53943   2785843.24442  22002809.777    22002809.972
        51.000          46.000
  23837179.091    -3412307.96243  -2647640.73642  23837181.675    23837185.216
        44.000          39.000
 03  7  1 17 16  0.0000000  0  9G23G 3G21G18G 6G16G26G17G14
  21333771.127    10464962.90443   8159299.96342  21333772.702    21333771.653
        55.000          48.000
  23291504.798    -8959550.14243  -6942777.09742  23291507.170    23291505.784
        47.000          35.000
  20829163.276      720088.83144    560723.07342  20829165.018    20829163.031
        57.000          50.000
  20451866.823    14257013.73443  11111650.64842  20451868.990    20451865.095
        49.000          41.000
  22953347.161    24795285.04943  19308783.52642  22953348.937    22953350.987
        48.000          41.000
  24226564.862    19787771.37043  15416942.14842  24226567.885    24226565.450
        43.000          37.000
  22711340.222    21553288.83343  16790599.08342  22711341.161    22711342.775
        48.000          43.000
  22009101.885     3613630.40243   2811614.28542  22009103.648    22009104.807
        52.000          46.000
  23822979.286    -3486925.53143  -2705784.25142  23822980.833    23822984.452
        44.000          38.000
 03  7  1 17 16 20.0000000  0  9G23G 3G21G18G 6G16G26G17G14
  21330307.551    10446762.26143   8145117.65142  21330309.230    21330308.182
        56.000          48.000
  23281415.661    -9012566.67143  -6984088.61242  23281416.052    23281418.762
        46.000          36.000
  20832303.540      736587.40344    573579.10242  20832304.790    20832302.874
        57.000          50.000
  20453102.208    14263502.35643  11116706.72042  20453104.762    20453099.227
        49.000          42.000
  22966409.146    24863922.52543  19362267.18342  22966411.456    22966411.828
        49.000          42.000
  24234044.487    19827078.80043  15447571.28242  24234047.490    24234044.206
        42.000          36.000
  22722236.588    21610549.17843  16835217.50542  22722238.149    22722238.789
        48.000          43.000
  22015415.601     3646811.50543   2837469.66742  22015417.262    22015418.392
        51.000          45.000
  23808788.563    -3561499.62543  -2763893.88442  23808787.662    23808791.552
        44.000          37.000
 03  7  1 17 16 40.0000000  0  9G23G 3G21G18G 6G16G26G17G14
  21326870.503    10428699.98043   8131043.14542  21326872.225    21326871.211
        56.000          48.000
  23271357.179    -9065425.62643  -7025277.38842  23271359.059    23271354.399
        45.000          36.000
  20835467.710      753217.03143    586537.26242  20835469.167    20835467.608
        56.000          50.000
  20454363.989    14270137.02143  11121876.57442  20454367.041    20454363.248
        49.000          42.000
  22979487.240    24932654.79143  19415824.72142  22979488.749    22979491.596
        48.000          42.000
  24241543.532    19866492.25743  15478283.03842  24241545.659    24241544.990
        41.000          36.000
  22733169.530    21668003.76543  16879987.28042  22733171.192    22733172.141
        48.000          43.000
  22021750.511     3680103.50843   2863411.46042  22021752.188    22021752.426
        51.000          45.000
  23794608.161    -3636026.70243  -2821966.86542  23794611.776    23794608.148
        45.000          37.000
 03  7  1 17 17  0.0000000  0  9G23G 3G21G18G 6G16G26G17G14
  21323458.626    10410771.23943   8117072.70642  21323460.144    21323459.509
        55.000          48.000
  23261327.824    -9118130.73643  -7066346.26242  23261330.056    23261323.633
        45.000          36.000
  20838656.464      769973.42444    599594.19542  20838657.684    20838656.528
        57.000          49.000
  20455653.931    14276912.87643  11127156.44242  20455657.090    20455653.711
        48.000          41.000
  22992583.524    25001476.54843  19469452.00242  22992584.869    22992586.928
        49.000          43.000
  24249063.545    19906006.33343  15509073.19742  24249065.256    24249065.864
        41.000          36.000
  22744139.424    21725647.33343  16924904.31942  22744140.274    22744140.828
        48.000          43.000
  22028106.622     3713502.19943   2889436.39242  22028107.260    22028109.108
        50.000          44.000
  23780433.290    -3710510.51243  -2880006.10742  23780435.595    23780434.493
        45.000          37.000
 03  7  1 17 17 20.0000000  0  9G23G 3G21G18G 6G16G26G17G14
  21320073.424    10392979.96043   8103209.37842  21320074.584    21320073.593
        55.000          48.000
  23251327.237    -9170677.26443  -7107291.55242  23251329.694    23251331.051
        45.000          36.000
  20841869.871      786860.77643    612753.17442  20841871.193    20841869.979
        56.000          49.000
  20456971.521    14283833.64743  11132549.23142  20456974.614    20456970.642
        47.000          41.000
  23005697.695    25070391.15143  19523151.61942  23005699.481    23005700.765
        48.000          43.000
  24256603.537    19945624.34443  15539944.34042  24256603.961    24256603.090
        43.000          36.000
  22755144.103    21783483.12543  16969971.14442  22755146.438    22755147.955
        47.000          43.000
  22034483.415     3747011.65843   2915547.64042  22034485.044    22034485.753
        50.000          44.000
  23766270.846    -3784946.01943  -2938007.71342  23766272.780    23766272.151
        46.000          38.000
 03  7  1 17 17 40.0000000  0  9G23G 3G21G18G 6G16G26G17G14
  21316712.812    10375321.85843   8089449.81842  21316714.115    21316713.319
        55.000          48.000
  23241357.155    -9223068.47043  -7148115.84242  23241361.200    23241362.185
        44.000          36.000
  20845108.202      803875.43044    626011.34342  20845109.262    20845107.598
        57.000          50.000
  20458315.761    14290895.21843  11138051.77042  20458317.811    20458314.314
        46.000          40.000
  23018829.623    25139393.94843  19576919.96442  23018830.995    23018832.385
        49.000          43.000
  24264161.608    19985341.43843  15570892.68742  24264162.392    24264161.894
        44.000          37.000
  22766185.474    21841506.28043  17015183.97342  22766186.638    22766187.683
        48.000          43.000
  22040879.780     3780628.20243   2941742.33242  22040880.085    22040882.538
        49.000          44.000
  23752113.080    -3859336.48943  -2995974.24442  23752116.449    23752117.354
        46.000          38.000
 03  7  1 17 18  0.0000000  0  9G23G 3G21G18G 6G16G26G17G14
  21313378.525    10357799.02343   8075795.67942  21313379.192    21313378.520
        55.000          48.000
  23231418.124    -9275301.31643  -7188816.75042  23231420.145    23231421.451
        44.000          36.000
  20848370.240      821019.77343    639370.56842  20848371.799    20848369.836
        56.000          50.000
  20459685.428    14298099.28443  11143665.30442  20459686.402    20459681.141
        45.000          39.000
  23031977.607    25208486.54343  19630758.25642  23031977.572    23031979.330
        49.000          43.000
  24271739.310    20025159.12543  15601919.39842  24271739.479    24271739.649
        43.000          37.000
  22777263.399    21899718.23843  17060543.91642  22777264.852    22777266.803
        48.000          43.000
  22047298.255     3814354.15043   2968022.26442  22047298.951    22047300.611
        49.000          43.000
  23737966.084    -3933678.87843  -3053903.32442  23737967.655    23737971.966
        46.000          39.000
 03  7  1 17 18 20.0000000  0  9G23G 3G21G18G 6G16G26G17G14
  21310069.901    10340412.62243   8062247.83642  21310071.415    21310070.508
        54.000          48.000
  23221510.505    -9327373.76043  -7229392.63542  23221512.229    23221510.180
        44.000          37.000
  20851658.026      838295.47944    652832.14342  20851659.493    20851657.046
        57.000          50.000
  20461082.255    14305446.89843  11149390.65842  20461085.594    20461080.500
        43.000          39.000
  23045142.622    25277669.47243  19684666.94142  23045143.714    23045145.545
        49.000          43.000
  24279334.500    20065077.69243  15633024.74942  24279336.852    24279337.372
        43.000          36.000
  22788376.980    21958119.39143  17106051.29942  22788378.575    22788379.544
        47.000          44.000
  22053736.714     3848191.09243   2994388.68042  22053737.822    22053738.448
        48.000          43.000
  23723829.023    -4007970.96043  -3111793.20642  23723831.595    23723834.814
        45.000          40.000
 03  7  1 17 18 40.0000000  0  9G23G 3G21G18G 6G16G26G17G14
  21306785.897    10323155.91243   8048801.05642  21306787.673    21306786.633
        54.000          48.000
  23211629.832    -9379291.41443  -7269847.92942  23211630.122    23211630.729
        44.000          37.000
  20854969.217      855696.31944    666391.22942  20854970.701    20854968.748
        57.000          49.000
  20462505.898    14312931.19943  11155222.57842  20462507.491    20462504.922
        42.000          39.000
  23058324.258    25346935.55443  19738640.41942  23058325.388    23058326.941
        49.000          43.000
  24286950.681    20105089.99043  15664203.09042  24286952.698    24286952.777
        44.000          37.000
  22799525.254    22016702.41743  17151700.38142  22799527.273    22799528.287
        48.000          44.000
  22060195.539     3882132.75343   3020836.70642  22060195.932    22060199.309
        47.000          42.000
  23709699.826    -4082218.35343  -3169648.24942  23709701.652    23709705.354
        46.000          40.000
 03  7  1 17 19  0.0000000  0  9G23G 3G21G18G 6G16G26G17G14
  21303527.878    10306034.78343   8035459.92042  21303529.657    21303528.667
        54.000          48.000
  23201782.079    -9431047.55543  -7310177.34942  23201784.063    23201784.312
        44.000          36.000
  20858305.119      873228.41843    680052.58242  20858306.275    20858305.097
        56.000          49.000
  20463956.208    14320558.11543  11161165.63142  20463958.654    20463956.169
        42.000          39.000
  23071521.843    25416290.33143  19792682.99842  23071524.074    23071523.579
        49.000          43.000
  24294582.423    20145201.23343  15695458.56342  24294584.750    24294585.233
        44.000          37.000
  22810708.273    22075472.59143  17197495.30042  22810710.664    22810711.327
        48.000          43.000
  22066675.548     3916185.01343   3047370.92442  22066675.477    22066678.457
        46.000          42.000
  23695581.912    -4156414.18043  -3227463.10542  23695584.330    23695585.376
        47.000          40.000
 03  7  1 17 19 20.0000000  0  9G23G 3G21G18G 6G16G26G17G14
  21300295.503    10289049.33743   8022224.50442  21300296.801    21300295.695
        54.000          48.000
  23191962.789    -9482641.27843  -7350380.23342  23191965.138    23191963.615
        44.000          36.000
  20861666.741      890892.45543    693816.74142  20861667.759    20861666.505
        56.000          49.000
  20465436.176    14328327.44243  11167219.62742  20465435.834    20465435.190
        43.000          40.000
  23084735.994    25485733.23043  19846794.26342  23084738.400    23084739.646
        48.000          42.000
  24302233.849    20185410.81743  15726790.68842  24302237.387    24302237.398
        44.000          37.000
  22821927.169    22134429.51343  17243435.73242  22821928.678    22821930.821
        48.000          43.000
  22073178.630     3950348.80343   3073992.05542  22073177.453    22073179.338
        47.000          42.000
  23681471.720    -4230557.30643  -3285236.88642  23681474.277    23681475.179
        46.000          40.000
 03  7  1 17 19 40.0000000  0  9G23G 3G21G18G 6G16G26G17G14
  21297088.724    10272196.14543   8009092.13542  21297089.592    21297088.709
        54.000          47.000
  23182175.187    -9534074.93343  -7390458.39642  23182176.640    23182175.126
        43.000          36.000
  20865052.537      908685.44143    707681.39142  20865053.711    20865052.000
        56.000          49.000
  20466939.994    14336235.62743  11173381.83542  20466941.473    20466941.073
        45.000          41.000
  23097964.753    25555260.42843  19900971.20442  23097965.494    23097970.258
        46.000          41.000
  24309901.987    20225714.81943  15758196.38242  24309905.115    24309907.425
        41.000          37.000
  22833180.551    22193568.95043  17289518.37742  22833183.491    22833184.792
        47.000          43.000
  22079699.956     3984620.29843   3100697.09942  22079699.683    22079700.446
        48.000          43.000
  23667373.185    -4304650.08743  -3342971.43542  23667375.753    23667376.407
        46.000          40.000
 03  7  1 17 20  0.0000000  0  9G23G 3G21G18G 6G16G26G17G14
  21293907.904    10255480.37943   7996066.89142  21293909.370    21293907.869
        54.000          48.000
  23172419.298    -9585342.38443  -7430407.00942  23172420.208    23172420.007
        42.000          36.000
  20868464.587      926612.75143    721650.70742  20868465.571    20868463.375
        56.000          49.000
  20468473.550    14344287.69743  11179656.16642  20468474.090    20468473.899
        46.000          41.000
  23111211.845    25624876.56443  19955217.43842  23111211.988    23111216.281
        44.000          40.000
  24317592.116    20266117.81243  15789679.19342  24317593.945    24317596.914
        43.000          37.000
  22844470.617    22252895.50243  17335746.82942  22844472.908    22844474.022
        47.000          43.000
  22086242.825     4019005.30843   3127490.57942  22086243.639    22086244.374
        50.000          44.000
  23653281.742    -4378686.24843  -3400661.86742  23653285.005    23653287.070
        44.000          39.000
 03  7  1 17 20 20.0000000  0 10G23G 3G21G18G 6G16G15G26G17G14
  21290752.031    10238896.79943   7983144.61642  21290753.447    21290752.154
        54.000          47.000
  23162694.021    -9636448.09543  -7470229.61142  23162697.699    23162694.571
        42.000          36.000
  20871900.453      944669.81844    735721.13242  20871902.224    20871899.385
        57.000          49.000
  20470032.316    14352478.33843  11186038.47642  20470033.609    20470032.750
        47.000          42.000
  23124472.120    25694575.82443  20009528.46742  23124473.435    23124479.165
        41.000          39.000
  24325297.753    20306613.81343  15821234.47042  24325299.740    24325302.515
        43.000          37.000
  20727047.055
        45.000
  22855794.785    22312403.31043  17382116.51242  22855796.569    22855797.799
        47.000          43.000
  22092806.045     4053499.13043   3154368.84342  22092807.513    22092808.324
        50.000          44.000
  23639201.360    -4452670.28543  -3458311.70042  23639204.264    23639209.495
        42.000          38.000
 03  7  1 17 20 40.0000000  0 10G23G 3G21G18G 6G16G15G26G17G14
  21287621.253    10222446.70243   7970326.34942  21287623.005    21287622.025
        53.000          47.000
  23153000.736    -9687389.65443  -7509924.30842  23153003.629    23153002.981
        43.000          36.000
  20875361.942      962858.50644    749894.12242  20875363.656    20875360.139
        57.000          49.000
  20471617.194    14360808.64243  11192529.60042  20471619.389    20471618.087
        47.000          42.000
  23137749.947    25764359.06843  20063904.95442  23137750.205    23137759.081
        41.000          39.000
  24333023.165    20347203.69643  15852862.91142  24333025.103    24333025.576
        43.000          37.000
  20721718.283     -589868.55053   -452882.03852  20721718.973    20721718.682
        46.000          39.000
  22867152.764    22372092.81543  17428627.78242  22867155.865    22867156.999
        46.000          43.000
  22099391.007     4088103.43743   3181333.19042  22099392.455    22099392.994
        51.000          44.000
  23625133.148    -4526599.66543  -3515918.95642  23625134.798    23625139.803
        43.000          38.000
 03  7  1 17 21  0.0000000  0 10G23G 3G21G18G 6G16G15G26G17G14
  21284516.249    10206128.83243   7957611.13942  21284517.569    21284516.946
        53.000          47.000
  23143337.712    -9738167.33943  -7549491.27242  23143340.574    23143340.411
        43.000          36.000
  20878847.990      981177.89744    764168.96242  20878849.351    20878846.072
        57.000          49.000
  20473229.436    14369277.41443  11199128.64842  20473230.788    20473228.930
        47.000          43.000
  23151044.529    25834224.50843  20118345.50642  23151046.813    23151054.173
        40.000          38.000
  24340762.009    20387885.43043  15884562.92542  24340765.446    24340765.852
        42.000          37.000
  20716408.245     -617771.49743   -474624.58142  20716409.193    20716407.338
        47.000          40.000
  22878546.219    22431962.40943  17475279.39442  22878548.171    22878549.135
        47.000          43.000
  22105996.958     4122817.54443   3208383.11442  22105997.694    22105998.993
        51.000          44.000
  23611078.132    -4600474.48043  -3573483.69642  23611076.809    23611083.486
        44.000          38.000
 03  7  1 17 21 20.0000000  0 10G23G 3G21G18G 6G16G15G26G17G14
  21281436.445    10189941.96143   7944997.99442  21281437.812    21281436.041
        54.000          47.000
  23133707.717    -9788781.53643  -7588930.86442  23133709.178    23133706.364
        43.000          36.000
  20882358.235      999627.00743    778544.87642  20882359.941    20882357.868
        56.000          49.000
  20474866.444    14377883.17543  11205834.44142  20474868.226    20474866.026
        48.000          43.000
  23164362.537    25904170.51943  20172848.86642  23164361.870    23164363.750
        43.000          39.000
  24348520.351    20428657.12743  15916333.02942  24348522.633    24348523.498
        41.000          36.000
  20711115.717     -645579.07043   -496292.82342  20711117.539    20711116.393
        47.000          40.000
  22889972.203    22492010.02143  17522069.72042  22889974.084    22889977.098
        46.000          42.000
  22112623.918     4157640.45743   3235517.81642  22112624.740    22112625.848
        52.000          44.000
  23597030.232    -4674294.98143  -3631006.06042  23597031.832    23597033.474
        46.000          39.000
 03  7  1 17 21 40.0000000  0 10G23G 3G21G18G 6G16G15G26G17G14
  21278381.197    10173887.29043   7932487.86142  21278382.192    21278381.483
        53.000          47.000
  23124105.136    -9839230.24243  -7628241.50542  23124109.476    23124108.112
        42.000          36.000
  20885894.308     1018207.52143    793023.18942  20885895.428    20885893.517
        56.000          49.000
  20476531.476    14386627.15443  11212647.92542  20476532.794    20476530.588
        48.000          43.000
  23177689.816    25974197.78143  20227415.45342  23177689.890    23177689.056
        46.000          40.000
  24356297.723    20469519.46743  15948173.77242  24356296.452    24356298.391
        41.000          35.000
  20705841.566     -673289.60043   -517885.43742  20705843.350    20705841.630
        46.000          40.000
  22901432.673    22552236.25443  17568999.23242  22901434.810    22901436.759
        46.000          43.000
  22119270.601     4192573.40343   3262738.25742  22119272.404    22119273.310
        51.000          44.000
  23582994.212    -4748059.04243  -3688484.44542  23582997.038    23582995.056
        47.000          38.000
 03  7  1 17 22  0.0000000  0 10G23G 3G21G18G 6G16G15G26G17G14
  21275350.450    10157965.10243   7920080.96542  21275352.484    21275351.160
        53.000          47.000
  23114537.935    -9889512.00443  -7667422.05442  23114539.208    23114540.648
        42.000          36.000
  20889455.392     1036920.35044    807604.60942  20889456.635    20889454.760
        57.000          49.000
  20478220.878    14395509.35243  11219569.11742  20478223.061    20478220.189
        48.000          43.000
  23191030.873    26044306.09443  20282045.16742  23191032.118    23191032.050
        48.000          41.000
  24364087.722    20510472.08343  15980084.85242  24364090.217    24364090.885
        39.000          34.000
  20700588.433     -700902.05343   -539401.63342  20700588.851    20700589.763
        46.000          40.000
  22912927.399    22612640.80543  17616067.68742  22912929.324    22912932.296
        46.000          43.000
  22125939.592     4227617.32043   3290045.17442  22125939.725    22125941.548
        50.000          44.000
  23568969.708    -4821765.34843  -3745917.77042  23568972.060    23568963.898
        49.000          38.000
 03  7  1 17 22 20.0000000  0 10G23G 3G21G18G 6G16G15G26G17G14
  21272345.570    10142174.51343   7907776.60542  21272346.680    21272345.990
        52.000          47.000
  23105001.390    -9939626.77243  -7706472.49042  23105001.392    23105001.173
        42.000          35.000
  20893041.366     1055764.91444    822288.68142  20893042.941    20893041.291
        57.000          50.000
  20479936.630    14404528.75343  11226597.22142  20479937.915    20479937.696
        48.000          43.000
  23204387.521    26114494.18443  20336737.06942  23204388.954    23204389.587
        49.000          42.000
  24371900.337    20551513.33643  16012065.03242  24371894.464    24371897.396
        40.000          34.000
  20695352.976     -728416.57143   -560841.50942  20695354.656    20695353.880
        47.000          40.000
  22924456.899    22673222.16343  17663273.92342  22924458.015    22924460.484
        47.000          43.000
  22132629.180     4262771.66143   3317438.13542  22132630.079    22132631.104
        50.000          43.000
  23554955.063    -4895413.62643  -3803305.88142  23554956.188    23554949.668
        48.000          38.000
 03  7  1 17 22 40.0000000  0 10G23G 3G21G18G 6G16G15G26G17G14
  21269365.848    10126512.45843   7895572.39842  21269367.149    21269365.959
        53.000          47.000
  23095496.251    -9989576.80343  -7745394.54442  23095499.369    23095499.027
        41.000          35.000
  20896651.901     1074738.65144    837073.39642  20896653.328    20896651.649
        57.000          50.000
  20481678.389    14413682.14143  11233729.72242  20481680.438    20481679.187
        47.000          42.000
  23217758.857    26184758.38643  20391488.27342  23217760.356    23217761.105
        50.000          42.000
  24379727.103    20592639.84243  16044111.59442  24379728.716    24379725.510
        40.000          34.000
  20690136.565     -755835.59843   -582206.98442  20690136.919    20690136.480
        48.000          40.000
  22936017.982    22733976.49743  17710614.93042  22936019.440    22936021.809
        47.000          43.000
  22139339.857     4298033.75643   3344915.06142  22139340.768    22139340.730
        50.000          43.000
  23540950.455    -4969005.94443  -3860650.38942  23540952.508    23540949.506
        49.000          39.000
 03  7  1 17 23  0.0000000  0 10G23G 3G21G18G 6G16G15G26G17G14
  21266411.002    10110984.80743   7883472.93442  21266412.250    21266411.210
        53.000          48.000
  23086023.689   -10039355.39243  -7784183.03642  23086026.143    23086026.200
        42.000          35.000
  20900288.146     1093847.59244    851963.47442  20900289.575    20900287.638
        57.000          50.000
  20483447.990    14422975.48143  11240971.29342  20483448.713    20483446.162
        48.000          43.000
  23231144.320    26255104.02543  20446302.93842  23231146.974    23231148.140
        50.000          42.000
  24387570.649    20633856.67743  16076228.54042  24387571.931    24387571.580
        43.000          36.000
  20684936.535     -783152.72543   -603493.03942  20684938.803    20684939.032
        46.000          40.000
  22947612.457    22794909.11243  17758094.86342  22947615.040    22947616.558
        48.000          43.000
  22146072.162     4333409.84043   3372480.78842  22146072.806    22146074.751
        50.000          43.000
  23526958.052    -5042535.24843  -3917945.84442  23526960.546    23526960.256
        49.000          40.000
 03  7  1 17 23 20.0000000  0 10G23G 3G21G18G 6G16G15G26G17G14
  21263480.143    10095584.43543   7871472.64042  21263482.144    21263480.398
        54.000          48.000
  23076582.116   -10088968.36643  -7822842.50242  23076583.291    23076577.979
        41.000          34.000
  20903948.884     1113085.16043    866953.77742  20903950.159    20903948.357
        56.000          49.000
  20485241.265    14432401.30143  11248316.07942  20485243.126    20485241.992
        48.000          42.000
  23244544.811    26325523.50443  20501175.13942  23244546.773    23244548.179
        50.000          42.000
  24395429.109    20675156.11443  16108409.84542  24395430.574    24395431.769
        44.000          37.000
  20679756.904     -810374.38743   -624704.70642  20679757.917    20679760.693
        44.000          40.000
  22959240.510    22856012.25743  17805707.66742  22959241.870    22959243.859
        47.000          42.000
  22152824.126     4368893.01843   3400129.96942  22152826.708    22152826.666
        50.000          43.000
  23512976.607    -5116007.70143  -3975197.00042  23512978.141    23512984.145
        48.000          40.000
 03  7  1 17 23 40.0000000  0 10G23G 3G21G18G 6G16G15G26G17G14
  21260575.528    10080317.76443   7859576.53642  21260577.078    21260575.348
        55.000          48.000
  23067173.671   -10138408.53843  -7861367.28342  23067177.929    23067178.021
        40.000          34.000
  20907635.300     1132458.38543    882049.78842  20907636.876    20907634.744
        56.000          49.000
  20487061.074    14441965.99443  11255769.08642  20487062.572    20487061.320
        47.000          42.000
  23257960.003    26396022.81243  20556109.55242  23257961.707    23257962.683
        49.000          41.000
  24403306.076    20716544.08743  16140660.15942  24403307.220    24403308.534
        44.000          38.000
  20674596.218     -837493.37843   -645836.37042  20674597.034    20674599.044
        44.000          39.000
  22970901.452    22917291.68743  17853457.83242  22970902.302    22970905.416
        46.000          42.000
  22159598.020     4404489.92343   3427867.78642  22159598.354    22159601.427
        49.000          43.000
  23499007.831    -5189415.81043  -4032398.06142  23499009.648    23499012.847
        47.000          40.000
 03  7  1 17 24  0.0000000  0 10G23G 3G21G18G 6G16G15G26G17G14
  21257695.383    10065182.46343   7847782.80042  21257696.980    21257695.562
        55.000          49.000
  23057798.134   -10187677.30043  -7899758.51942  23057799.599    23057795.244
        42.000          34.000
  20911347.908     1151965.43244    897250.06842  20911349.326    20911346.958
        57.000          49.000
  20488907.501    14451667.04143  11263328.33642  20488907.579    20488908.180
        48.000          42.000
  23271389.642    26466599.08443  20611103.93542  23271391.571    23271390.259
        48.000          40.000
  24411199.343    20758017.51343  16172977.05142  24411200.036    24411203.979
        44.000          38.000
  20669455.923     -864511.40643   -666889.39042  20669453.738    20669457.681
        43.000          38.000
  22982595.500    22978744.45243  17901343.07842  22982596.424    22982600.225
        46.000          41.000
  22166392.499     4440199.05443   3455693.06942  22166394.045    22166397.139
        47.000          42.000
  23485049.153    -5262760.95643  -4089550.04342  23485051.739    23485055.861
        45.000          39.000
 03  7  1 17 24 20.0000000  0 10G23G 3G21G18G 6G16G15G26G17G14
  21254840.178    10050176.34143   7836089.72342  21254841.522    21254840.198
        56.000          49.000
  23048455.623   -10236775.89143  -7938017.16342  23048458.648    23048451.813
        42.000          34.000
  20915085.353     1171604.40944    912553.14242  20915086.746    20915084.035
        57.000          49.000
  20490778.177    14461502.20543  11270992.08742  20490778.628    20490779.446
        48.000          42.000
  23284832.469    26537249.61843  20666156.18842  23284837.240    23284834.746
        46.000          39.000
  24419106.936    20799573.66343  16205358.41042  24419108.667    24419111.256
        44.000          38.000
  20664332.223     -891430.04343   -687864.97042  20664334.151    20664335.856
        41.000          38.000
  22994321.581    23040367.70943  17949361.16642  22994322.590    22994326.021
        46.000          41.000
  22173208.606     4476018.24043   3483604.11342  22173209.142    22173211.243
        46.000          42.000
  23471100.661    -5336044.08143  -4146653.75142  23471102.973    23471108.639
        42.000          38.000
 03  7  1 17 24 40.0000000  0 10G23G 3G21G18G 6G16G15G26G17G14
  21252008.979    10035301.07343   7824498.60642  21252010.678    21252009.812
        55.000          49.000
  23039146.096   -10285701.64943  -7976141.11142  23039146.465    23039145.429
        43.000          35.000
  20918847.823     1191377.54044    927960.75542  20918849.596    20918846.890
        57.000          49.000
  20492675.462    14471473.18543  11278761.68542  20492677.470    20492677.769
        47.000          42.000
  23298289.996    26607975.62243  20721267.24642  23298293.534    23298292.042
        45.000          38.000
  24427030.373    20841213.70843  16237805.17142  24427031.703    24427034.314
        44.000          38.000
  20659230.302     -918247.01543   -708761.31142  20659227.623    20659230.709
        41.000          37.000
  23006080.526    23102162.63443  17997513.02642  23006082.496    23006085.551
        45.000          40.000
  22180046.241     4511949.59943   3511602.54042  22180047.560    22180048.829
        46.000          42.000
  23457166.947    -5409262.45443  -4203707.00442  23457168.632    23457172.171
        42.000          38.000
 03  7  1 17 25  0.0000000  0 10G23G 3G21G18G 6G16G15G26G17G14
  21249202.826    10020556.83243   7813009.58742  21249204.684    21249203.663
        55.000          49.000
  23029870.320   -10334453.43243  -8014129.47342  23029868.422    23029867.886
        44.000          35.000
  20922635.988     1211285.30244    943473.27542  20922637.623    20922635.454
        57.000          49.000
  20494599.587    14481579.92043  11286637.05742  20494600.163    20494600.835
        47.000          42.000
  23311763.715    26678776.86143  20776436.91842  23311767.461    23311765.021
        45.000          38.000
  24434968.411    20882937.03743  16270316.80742  24434970.059    24434972.563
        42.000          38.000
  20654146.407     -944961.37143   -729577.67842  20654146.477    20654147.410
        41.000          37.000
  23017872.725    23164128.59043  18045798.13542  23017874.826    23017877.340
        45.000          40.000
  22186905.314     4547993.92243   3539688.98042  22186904.943    22186908.274
        46.000          41.000
  23443248.514    -5482414.95343  -4260708.88142  23443249.229    23443251.329
        44.000          38.000
 03  7  1 17 25 20.0000000  0 10G23G 3G21G18G 6G16G15G26G17G14
  21246421.365    10005938.22643   7801618.46742  21246423.077    21246421.955
        55.000          49.000
  23020624.926   -10383035.78243  -8051985.84542  23020624.673    23020621.820
        45.000          35.000
  20926448.524     1231322.90743    959086.96742  20926450.276    20926448.769
        56.000          49.000
  20496546.589    14491816.93843  11294613.96842  20496548.679    20496547.562
        47.000          42.000
  23325252.204    26749647.52643  20831660.69042  23325253.979    23325251.091
        47.000          39.000
  24442923.525    20924737.80843  16302888.80442  24442923.100    24442927.648
        40.000          37.000
  20649083.002     -971577.82243   -750317.78742  20649081.199    20649080.648
        42.000          37.000
  23029697.051    23226259.69643  18094211.94542  23029699.219    23029698.796
        46.000          40.000
  22193784.258     4584145.86843   3567859.30142  22193784.102    22193788.945
        46.000          41.000
  23429340.757    -5555505.84543  -4317662.71842  23429342.935    23429340.279
        46.000          38.000
 03  7  1 17 25 40.0000000  0 10G23G 3G21G18G 6G16G15G26G17G14
  21243664.598     9991449.15943   7790328.29242  21243665.880    21243664.187
        55.000          48.000
  23011412.650   -10431443.89843  -8089706.42442  23011414.758    23011413.540
        45.000          36.000
  20930286.928     1251494.57943    974805.13542  20930288.316    20930287.132
        56.000          49.000
  20498520.493    14502188.03943  11302695.33342  20498522.186    20498523.261
        46.000          42.000
  23338752.749    26820590.98643  20886941.19442  23338755.797    23338753.347
        47.000          40.000
  24450893.918    20966619.24443  16335523.65642  24450894.298    24450895.917
        41.000          36.000
  20644036.455     -998091.79043   -770978.01142  20644036.794    20644034.180
        41.000          37.000
  23041552.176    23288559.07643  18142756.90942  23041554.448    23041553.915
        46.000          40.000
  22200686.787     4620409.79643   3596116.87942  22200686.279    22200687.372
        47.000          42.000
  23415444.783    -5628530.33443  -4374564.78642  23415445.934    23415443.333
        46.000          38.000
 03  7  1 17 26  0.0000000  0 10G23G 3G21G18G 6G16G15G26G17G14
  21240931.643     9977090.27343   7779139.55542  21240933.196    21240931.885
        55.000          48.000
  23002233.318   -10479676.07843  -8127289.89342  23002235.518    23002232.811
        45.000          36.000
  20934151.363     1271801.42443    990628.63042  20934152.635    20934151.337
        56.000          49.000
  20500520.931    14512693.81543  11310881.64442  20500521.189    20500521.822
        48.000          42.000
  23352266.992    26891607.41143  20942278.52242  23352269.835    23352270.413
        48.000          40.000
  24458875.118    21008581.21543  16368221.26242  24458875.457    24458875.776
        39.000          34.000
  20639010.156    -1024501.92943   -791557.34342  20639009.651    20639010.043
        40.000          36.000
  23053439.001    23351026.86943  18191433.05542  23053441.093    23053441.859
        45.000          39.000
  22207609.587     4656786.53443   3624462.33642  22207610.268    22207610.489
        49.000          42.000
  23401561.780    -5701486.59943  -4431413.70542  23401563.217    23401562.256
        46.000          39.000
 03  7  1 17 26 20.0000000  0 10G23G 3G21G18G 6G16G15G26G17G14
  21238223.418     9962859.48043   7768050.64242  21238224.844    21238223.486
        55.000          48.000
  22993089.739   -10527733.36043  -8164737.09042  22993091.489    22993089.169
        46.000          36.000
  20938041.385     1292241.67443   1006556.08242  20938042.728    20938041.313
        55.000          49.000
  20502543.966    14523331.99143  11319171.11342  20502547.571    20502547.339
        47.000          42.000
  23365794.448    26962694.26743  20997670.76342  23365797.952    23365798.692
        48.000          41.000
  24466876.112    21050621.22343  16400979.69842  24466875.077    24466877.077
        38.000          33.000
  20634003.940    -1050809.81243   -812056.99842  20634001.824    20634004.808
        41.000          36.000
  23065357.813    23413660.31543  18240238.30242  23065359.542    23065360.933
        45.000          39.000
  22214553.040     4693274.64943   3652894.57142  22214554.020    22214553.166
        49.000          42.000
  23387691.253    -5774375.44643  -4488210.11542  23387693.381    23387693.852
        47.000          40.000
 03  7  1 17 26 40.0000000  0 10G23G 3G21G18G 6G16G15G26G17G14
  21235539.749     9948756.48543   7757061.30242  21235541.366    21235539.790
        55.000          47.000
  22983977.574   -10575615.19043  -8202047.57742  22983979.138    22983977.620
        46.000          37.000
  20941956.742     1312815.59343   1022587.69542  20941958.038    20941956.429
        56.000          48.000
  20504593.818    14534102.05743  11327563.34942  20504596.048    20504595.495
        47.000          41.000
  23379335.098    27033850.67343  21053117.20142  23379337.560    23379339.589
        48.000          41.000
  24474889.532    21092738.29243  16433798.13642  24474893.341    24474889.575
        38.000          32.000
  20629019.814    -1077014.97243   -832476.59342  20629018.037    20629016.465
        42.000          36.000
  23077308.794    23476458.43543  18289171.87042  23077309.584    23077312.256
        46.000          39.000
  22221516.974     4729874.12943   3681413.58542  22221518.032    22221518.267
        49.000          42.000
  23373833.461    -5847196.31543  -4544953.59042  23373835.180    23373838.748
        46.000          40.000
 03  7  1 17 27  0.0000000  0 10G23G 3G21G18G 6G16G15G26G17G14
  21232881.456     9934784.58143   7746174.12342  21232882.318    21232880.347
        55.000          47.000
  22974900.522   -10623317.53243  -8239218.20942  22974901.857    22974900.430
        46.000          37.000
  20945897.970     1333526.83743   1038726.30442  20945899.256    20945897.379
        56.000          48.000
  20506670.150    14545007.33943  11336060.94742  20506671.666    20506668.485
        47.000          41.000
  23392889.936    27105079.42843  21108620.01442  23392891.889    23392894.268
        48.000          41.000
  24482918.206    21134935.20443  16466678.77642  24482923.238    24482921.806
        37.000          33.000
  20624052.206    -1103113.45743   -852813.06242  20624051.916    20624051.133
        41.000          37.000
  23089289.952    23539423.82943  18338235.77842  23089291.035    23089292.385
        45.000          39.000
  22228503.120     4766588.44543   3710022.06642  22228504.578    22228502.635
        48.000          42.000
  23359989.207    -5919944.89943  -4601640.76342  23359991.694    23359994.646
        46.000          41.000
 03  7  1 17 27 20.0000000  0 10G23G 3G21G18G 6G16G15G26G17G14
  21230246.308     9920937.98143   7735384.59142  21230247.422    21230245.664
        55.000          47.000
  22965855.117   -10670845.27643  -8276252.77542  22965858.298    22965855.975
        46.000          38.000
  20949864.333     1354370.41043   1054968.02742  20949865.411    20949863.373
        56.000          48.000
  20508768.491    14556041.92143  11344659.30442  20508770.461    20508771.372
        47.000          41.000
  23406455.839    27176374.35843  21164174.39742  23406456.450    23406460.783
        47.000          41.000
  24490966.002    21177205.50543  16499616.63242  24490965.969    24490963.910
        38.000          34.000
  20619104.154    -1129110.31743   -873070.35342  20619104.926    20619102.508
        42.000          37.000
  23101303.626    23602550.14043  18387425.08742  23101306.313    23101304.458
        44.000          38.000
  22235510.650     4803412.33743   3738715.96742  22235512.259    22235512.989
        48.000          42.000
  23346159.397    -5992625.96143  -4658275.33042  23346161.729    23346164.403
        47.000          41.000
 03  7  1 17 27 40.0000000  0 10G23G 3G21G18G 6G16G15G26G17G14
  21227635.306     9907217.13843   7724693.03442  21227636.456    21227635.641
        55.000          47.000
  22956845.106   -10718196.83843  -8313150.04542  22956846.194    22956844.905
        45.000          38.000
  20953856.043     1375346.99543   1071313.39442  20953856.712    20953855.226
        55.000          48.000
  20510892.592    14567206.17243  11353358.70142  20510895.720    20510895.669
        46.000          41.000
  23420035.162    27247735.55943  21219780.42542  23420037.784    23420038.570
        47.000          40.000
  24499025.105    21219549.17343  16532611.62642  24499023.915    24499027.156
        41.000          35.000
  20614177.862    -1155004.33743   -893247.52742  20614177.178    20614175.792
        43.000          37.000
  23113345.494    23665837.29043  18436739.71542  23113345.394    23113348.436
        44.000          37.000
  22242539.923     4840346.71843   3767495.93242  22242539.649    22242540.383
        47.000          42.000
  23332342.574    -6065237.79043  -4714855.91542  23332345.230    23332346.911
        48.000          42.000
 03  7  1 17 28  0.0000000  0 10G23G 3G21G18G 6G16G15G26G17G14
  21225049.258     9893625.78543   7714102.37842  21225050.827    21225050.098
        55.000          48.000
  22947869.048   -10765367.44843  -8349906.32942  22947869.974    22947868.896
        45.000          38.000
  20957873.558     1396460.72843   1087765.62642  20957874.729    20957872.628
        56.000          49.000
  20513042.270    14578503.62743  11362161.89942  20513043.759    20513045.142
        45.000          40.000
  23433627.616    27319166.16143  21275440.51642  23433631.421    23433632.998
        45.000          39.000
  24507097.969    21261969.21743  16565666.14142  24507098.576    24507099.408
        43.000          36.000
  20609269.852    -1180791.12843   -913341.12942  20609273.765    20609266.767
        40.000          36.000
  23125419.374    23729288.12143  18486181.92042  23125423.492    23125424.680
        43.000          37.000
  22249589.188     4877395.59643   3796365.13542  22249590.339    22249590.877
        47.000          42.000
  23318538.888    -6137775.54043  -4771378.77942  23318541.790    23318543.202
        49.000          42.000
 03  7  1 17 28 20.0000000  0 10G23G 3G21G18G 6G16G15G26G17G14
  21222486.999     9880160.43043   7703609.89942  21222488.791    21222487.955
        55.000          48.000
  22938926.478   -10812359.68743  -8386523.59942  22938928.718    22938926.882
        45.000          38.000
  20961917.050     1417708.66943   1104322.43842  20961917.958    20961916.924
        56.000          49.000
  20515217.288    14589930.83943  11371066.19842  20515217.996    20515217.510
        45.000          40.000
  23447232.092    27390662.35543  21331151.72242  23447236.422    23447236.130
        45.000          39.000
  24515184.381    21304461.63743  16598777.06442  24515187.862    24515185.826
        45.000          36.000
  20604379.593    -1206473.52943   -933353.36842  20604380.198    20604382.910
        38.000          35.000
  23137524.451    23792898.92443  18535748.76342  23137527.794    23137529.885
        43.000          37.000
  22256660.742     4914555.89243   3825321.15542  22256661.979    22256660.455
        46.000          41.000
  23304748.866    -6210241.68943  -4827845.83842  23304750.412    23304752.786
        48.000          42.000
 03  7  1 17 28 40.0000000  0 10G23G 3G21G18G 6G16G15G26G17G14
  21219947.955     9866819.31443   7693214.23042  21219949.546    21219949.452
        55.000          48.000
  22930017.462   -10859174.45043  -8423002.59442  22930017.957    22930019.526
        45.000          38.000
  20965985.731     1439089.48243   1120982.79042  20965986.552    20965985.691
        56.000          49.000
  20517417.409    14601485.99243  11380070.18442  20517418.624    20517417.498
        45.000          39.000
  23460849.603    27462221.80743  21386912.19242  23460851.525    23460854.630
        44.000          38.000
  24523284.445    21347024.00343  16631942.48242  24523286.452    24523284.128
        45.000          37.000
  20599508.357    -1232052.57653   -953285.02252  20599512.081    20599516.642
        37.000          35.000
  23149660.293    23856666.97843  18585438.13042  23149663.617    23149662.479
        43.000          36.000
  22263752.271     4951826.14143   3854362.86442  22263752.873    22263755.136
        45.000          41.000
  23290972.737    -6282636.99643  -4884257.69642  23290973.777    23290974.643
        48.000          42.000
 03  7  1 17 29  0.0000000  0 10G23G 3G21G18G 6G16G15G26G17G14
  21217433.668     9853607.38343   7682919.22242  21217435.118    21217434.819
        55.000          48.000
  22921144.108   -10905805.84943  -8459338.71342  22921145.225    22921144.365
        46.000          39.000
  20970080.660     1460608.54843   1137750.88042  20970081.791    20970080.915
        56.000          50.000
  20519641.605    14613173.80143  11389177.56842  20519642.718    20519641.853
        45.000          39.000
  23474479.885    27533848.94543  21442725.43042  23474483.090    23474484.651
        44.000          38.000
  24531397.207    21389660.72543  16665165.82742  24531399.698    24531396.571
        44.000          37.000
  20594666.002    -1257522.68453   -973131.81552  20594662.347    20594668.674
        39.000          35.000
  23161825.888    23920596.68643  18635253.48242  23161828.167    23161828.394
        43.000          36.000
  22270867.418     4989211.76443   3883494.48142  22270868.457    22270867.712
        46.000          41.000
  23277210.654    -6354955.38943  -4940609.62842  23277213.800    23277213.516
        47.000          40.000
 03  7  1 17 29 20.0000000  0 10G23G 3G21G18G 6G16G15G26G17G14
  21214943.405     9840519.58243   7672720.94942  21214944.771    21214943.975
        55.000          48.000
  22912303.852   -10952257.96543  -8495535.13142  22912305.044    22912305.281
        45.000          39.000
  20974200.705     1482261.10643   1154622.99042  20974202.144    20974201.359
        56.000          50.000
  20521890.554    14624989.05943  11398384.25642  20521891.194    20521889.944
        45.000          39.000
  23488122.411    27605538.21543  21498587.03842  23488124.524    23488125.747
        43.000          38.000
  24539521.775    21432366.06043  16698442.61342  24539524.545    24539522.937
        43.000          36.000
  20589841.396    -1282888.22643   -992897.17142  20589840.206    20589842.244
        41.000          36.000
  23174021.823    23984682.44543  18685190.43642  23174023.755    23174021.296
        44.000          36.000
  22278002.480     5026708.14843   3912712.40542  22278002.740    22278004.441
        46.000          41.000
  23263463.678    -6427200.81343  -4996904.68742  23263464.182    23263462.387
        46.000          40.000
 03  7  1 17 29 40.0000000  0 10G23G 3G21G18G 6G16G15G26G17G14
  21212477.411     9827560.08243   7662622.64842  21212478.532    21212477.839
        55.000          47.000
  22903500.357   -10998525.77143  -8531587.92942  22903501.529    22903501.299
        46.000          39.000
  20978347.672     1504051.76543   1171602.70942  20978348.935    20978347.674
        56.000          50.000
  20524163.624    14636935.98743  11407693.53642  20524164.056    20524164.531
        44.000          38.000
  23501777.925    27677293.26443  21554499.91242  23501778.757    23501782.149
        44.000          38.000
  24547662.816    21475143.55943  16731775.66042  24547665.431    24547665.605
        41.000          36.000
  20585034.754    -1308144.28043  -1012577.21542  20585034.830    20585036.591
        43.000          37.000
  23186247.259    24048927.70943  18735251.64142  23186251.614    23186248.968
        44.000          36.000
  22285158.280     5064320.06643   3942020.35842  22285159.975    22285162.478
        46.000          41.000
  23249728.553    -6499368.14143  -5053138.90442  23249728.102    23249726.398
        45.000          38.000
 03  7  1 17 30  0.0000000  0 10G23G 3G21G18G 6G16G15G26G17G14
  21210034.882     9814725.74943   7652621.88342  21210036.395    21210035.743
        55.000          47.000
  22894729.742   -11044611.36343  -8567498.75242  22894731.517    22894731.078
        46.000          39.000
  20982520.285     1525977.96644   1188688.04542  20982521.649    20982520.098
        57.000          49.000
  20526462.715    14649011.23343  11417102.82542  20526463.971    20526459.587
        45.000          38.000
  23515442.831    27749110.61643  21610461.34942  23515445.023    23515449.720
        44.000          38.000
  24555815.722    21517989.67943  16765162.17842  24555814.555    24555820.466
        41.000          35.000
  20580248.347    -1333293.36843  -1032173.91542  20580249.175    20580250.363
        44.000          38.000
  23198502.852    24113328.58943  18785434.15142  23198502.944    23198500.781
        45.000          36.000
  22292338.261     5102044.20343   3971415.73742  22292338.367    22292341.544
        46.000          42.000
  23236007.271    -6571459.47243  -5109313.91742  23236010.498    23236013.469
        45.000          38.000
 03  7  1 17 30 20.0000000  0 10G23G 3G21G18G 6G16G15G26G17G14
  21207616.548     9802015.94343   7642718.15642  21207617.864    21207616.498
        55.000          47.000
  22885994.744   -11090514.65443  -8603267.51942  22885996.546    22885997.930
        47.000          39.000
  20986718.391     1548039.46243   1205878.80942  20986719.694    20986717.926
        56.000          49.000
  20528784.192    14661214.09443  11426611.55442  20528786.110    20528783.766
        45.000          38.000
  23529120.715    27820989.06743  21666470.41342  23529122.907    23529127.128
        43.000          39.000
  24563980.954    21560903.04443  16798601.10942  24563982.152    24563983.669
        40.000          35.000
  20575484.965    -1358335.51343  -1051687.27442  20575485.320    20575486.773
        46.000          38.000
  23210786.309    24177883.97643  18835736.99242  23210787.290    23210788.509
        45.000          35.000
  22299538.414     5139880.26643   4000898.33542  22299539.275    22299540.525
        47.000          42.000
  23222305.199    -6643474.22143  -5165429.27142  23222305.651    23222307.904
        46.000          39.000
 03  7  1 17 30 40.0000000  0 10G23G 3G21G18G 6G16G15G26G17G14
  21205221.375     9789430.74443   7632911.52742  21205223.327    21205220.704
        55.000          47.000
  22877294.737   -11136234.48643  -8638893.34542  22877296.051    22877295.407
        47.000          39.000
  20990942.395     1570236.84643   1223175.45042  20990943.959    20990941.329
        56.000          49.000
  20531129.785    14673544.54043  11436219.70642  20531132.900    20531128.303
        44.000          38.000
  23542810.150    27892928.24043  21722526.80042  23542811.844    23542817.718
        43.000          39.000
  24572159.770    21603883.12543  16832092.04542  24572160.467    24572167.244
        39.000          34.000
  20570738.373    -1383269.85143  -1071116.64342  20570741.343    20570740.264
        46.000          37.000
  23223100.312    24242593.24843  18886159.77842  23223102.436    23223098.591
        44.000          35.000
  22306759.633     5177828.80743   4030468.57842  22306759.408    22306761.001
        47.000          41.000
  23208616.634    -6715411.32943  -5221484.10542  23208618.435    23208620.208
        47.000          39.000
 03  7  1 17 31  0.0000000  0 10G23G 3G21G18G 6G16G15G26G17G14
  21202850.248     9776971.85343   7623203.31742  21202851.425    21202850.821
        54.000          47.000
  22868628.918   -11181768.17643  -8674374.12442  22868630.329    22868631.876
        47.000          40.000
  20995192.607     1592572.20243   1240579.59742  20995194.278    20995191.539
        56.000          49.000
  20533501.218    14686004.16443  11445928.51842  20533503.262    20533501.312
        44.000          38.000
  23556511.019    27964929.41643  21778631.49542  23556511.983    23556519.241
        43.000          39.000
  24580353.014    21646931.05243  16865635.82542  24580357.215    24580355.838
        40.000          34.000
  20566015.636    -1408093.86643  -1090460.03942  20566016.611    20566015.794
        47.000          37.000
  23235443.243    24307457.47443  18936703.30642  23235445.214    23235441.785
        44.000          35.000
  22314003.228     5215892.03543   4060128.16542  22314004.008    22314004.696
        49.000          42.000
  23194943.399    -6787267.97243  -5277476.23542  23194944.958    23194945.069
        47.000          40.000
 03  7  1 17 31 20.0000000  0 10G23G 3G21G18G 6G16G15G26G17G14
  21200501.952     9764633.37343   7613588.92042  21200503.439    21200502.551
        54.000          47.000
  22859999.815   -11227120.71043  -8709713.72542  22859999.821    22860000.836
        47.000          40.000
  20999468.135     1615040.22043   1258087.11742  20999469.369    20999467.386
        56.000          49.000
  20535894.843    14698587.02943  11455733.36242  20535898.215    20535894.266
        44.000          38.000
  23570224.069    28036986.22443  21834779.53942  23570224.457    23570230.946
        42.000          40.000
  24588556.855    21690040.39243  16899227.40942  24588558.367    24588559.453
        40.000          34.000
  20561310.811    -1432812.70743  -1109721.47642  20561313.975    20561308.928
        46.000          36.000
  23247815.653    24372470.16143  18987362.51842  23247818.444    23247810.348
        44.000          34.000
  22321267.475     5254064.28443   4089872.69942  22321268.761    22321268.289
        49.000          42.000
  23181283.778    -6859048.96443  -5333409.40542  23181284.727    23181284.195
        47.000          40.000
 03  7  1 17 31 40.0000000  0 10G23G 3G21G18G 6G16G15G26G17G14
  21198178.544     9752421.62243   7604073.27842  21198179.424    21198178.970
        53.000          47.000
  22851405.460   -11272284.96743  -8744906.61042  22851406.224    22851406.480
        48.000          40.000
  21003769.780     1637647.43043   1275703.10442  21003771.255    21003769.834
        56.000          49.000
  20538314.670    14711299.32243  11465639.06142  20538318.107    20538312.052
        44.000          37.000
  23583946.555    28109104.49743  21890975.47742  23583948.294    23583954.756
        42.000          39.000
  24596771.889    21733216.92143  16932871.38342  24596774.462    24596776.444
        39.000          34.000
  20556628.005    -1457419.48743  -1128895.62242  20556632.172    20556623.867
        46.000          36.000
  23260214.721    24437637.09443  19038141.94442  23260218.229    23260213.060
        43.000          34.000
  22328553.010     5292352.20943   4119707.37742  22328554.116    22328554.073
        49.000          42.000
  23167640.064    -6930746.92543  -5389277.87842  23167641.212    23167638.040
        47.000          39.000
 03  7  1 17 32  0.0000000  0 10G23G 3G21G18G 6G16G15G26G17G14
  21195878.818     9740333.42943   7594653.91642  21195879.706    21195878.912
        53.000          47.000
  22842845.959   -11317263.11843  -8779954.52542  22842846.888    22842848.268
        48.000          40.000
  21008098.002     1660391.21743   1293425.51542  21008099.185    21008097.888
        55.000          48.000
  20540757.397    14724137.62843  11475642.95742  20540758.604    20540753.837
        44.000          37.000
  23597683.910    28181280.59443  21947216.48042  23597683.073    23597690.700
        43.000          40.000
  24604998.421    21776456.69743  16966564.67942  24605002.198    24605001.955
        38.000          34.000
  20551966.195    -1481916.69643  -1147984.38442  20551966.978    20551963.342
        46.000          36.000
  23272645.487    24502954.32043  19089038.46242  23272646.859    23272642.158
        43.000          34.000
  22335860.208     5330752.92343   4149629.94142  22335862.770    22335862.114
        49.000          42.000
  23154011.334    -7002363.92643  -5445083.25942  23154012.918    23154006.975
        46.000          38.000
 03  7  1 17 32 20.0000000  0 10G23G 3G21G18G 6G16G15G26G17G14
  21193601.667     9728368.68043   7585330.72942  21193603.071    21193601.541
        53.000          47.000
  22834322.159   -11362054.39043  -8814856.78442  22834323.496    22834322.087
        48.000          40.000
  21012451.940     1683271.88043   1311254.58542  21012453.074    21012452.185
        55.000          48.000
  20543224.186    14737101.86543  11485744.98042  20543225.095    20543224.496
        43.000          37.000
  23611429.190    28253513.95643  22003502.10142  23611429.432    23611436.489
        43.000          40.000
  24613241.767    21819758.99643  17000306.67842  24613238.141    24613241.916
        40.000          34.000
  20547324.997    -1506303.61243  -1166987.22042  20547328.000    20547323.472
        45.000          36.000
  23285102.020    24568421.10743  19140051.56642  23285106.538    23285098.737
        42.000          34.000
  22343189.720     5369266.94043   4179640.80542  22343191.557    22343192.417
        49.000          42.000
  23140397.132    -7073899.07643  -5500824.86942  23140399.212    23140395.730
        43.000          37.000
 03  7  1 17 32 40.0000000  0 10G23G 3G21G18G 6G16G15G26G17G14
  21191347.829     9716527.22343   7576103.61342  21191349.418    21191348.435
        53.000          47.000
  22825834.565   -11406658.12943  -8849612.92342  22825835.509    22825835.689
        47.000          40.000
  21016831.863     1706289.71243   1329190.54142  21016833.132    21016831.819
        55.000          48.000
  20545713.245    14750191.99443  11495945.06642  20545714.115    20545714.799
        42.000          37.000
  23625187.559    28325804.00043  22059831.89442  23625187.855    23625191.642
        44.000          39.000
  24621493.901    21863123.25143  17034096.92642  24621497.395    24621495.909
        40.000          35.000
  20542705.456    -1530579.79643  -1185903.75942  20542706.156    20542705.450
        45.000          36.000
  23297587.710    24634036.70743  19191180.57742  23297590.644    23297585.408
        42.000          33.000
  22350539.737     5407894.25443   4209739.95742  22350541.278    22350543.227
        49.000          42.000
  23126795.581    -7145351.32543  -5556501.89342  23126797.304    23126800.001
        40.000          36.000
 03  7  1 17 33  0.0000000  0 10G23G 3G21G18G 6G16G15G26G17G14
  21189118.461     9704808.66343   7566972.26442  21189119.602    21189118.777
        53.000          47.000
  22817382.542   -11451073.65943  -8884222.42342  22817383.566    22817383.625
        48.000          40.000
  21021238.765     1729444.74843   1347233.41642  21021239.705    21021237.666
        56.000          48.000
  20548228.465    14763407.31743  11506242.66842  20548229.360    20548232.085
        42.000          37.000
  23638953.882    28398149.72243  22116205.05842  23638955.866    23638957.916
        45.000          39.000
  24629756.934    21906548.64943  17067934.81842  24629758.922    24629760.974
        42.000          35.000
  20538106.392    -1554744.90843  -1204733.75542  20538106.621    20538107.547
        43.000          36.000
  23310103.018    24699800.12043  19242424.74542  23310107.838    23310100.701
        42.000          34.000
  22357912.115     5446635.19243   4239927.65142  22357913.134    22357916.055
        49.000          42.000
  23113220.975    -7216719.94243  -5612113.81642  23113218.689    23113220.443
        43.000          36.000
 03  7  1 17 33 20.0000000  0 10G23G 3G21G18G 6G16G15G26G17G14
  21186911.719     9693210.62043   7557934.82842  21186912.685    21186911.463
        53.000          47.000
  22808966.216   -11495302.54643  -8918686.46042  22808968.307    22808968.053
        49.000          40.000
  21025670.973     1752735.09043   1365381.71742  21025672.368    21025669.525
        56.000          48.000
  20550767.658    14776745.36843  11516635.92842  20550767.474    20550769.569
        41.000          37.000
  23652731.567    28470548.32343  22172619.41242  23652734.295    23652734.084
        46.000          39.000
  24638031.333    21950032.02043  17101817.88042  24638031.998    24638033.607
        41.000          36.000
  20533530.975    -1578800.51743  -1223478.35842  20533530.629    20533528.996
        43.000          36.000
  23322644.089    24765708.36843  19293781.78542  23322645.229    23322645.555
        42.000          33.000
  22365304.170     5485487.63043   4270202.23942  22365304.798    22365307.345
        47.000          41.000
  23099658.120    -7288006.34243  -5667661.61342  23099657.003    23099656.942
        46.000          39.000
 03  7  1 17 33 40.0000000  0 10G23G 3G21G18G 6G16G15G26G17G14
  21184727.632     9681735.01843   7548992.80042  21184728.865    21184727.951
        53.000          47.000
  22800586.117   -11539341.80043  -8953002.73842  22800588.146    22800587.391
        49.000          40.000
  21030129.137     1776163.09143   1383637.28742  21030130.637    21030128.040
        56.000          48.000
  20553328.142    14790207.99743  11527126.24442  20553330.949    20553332.294
        41.000          37.000
  23666518.427    28543001.41143  22229076.22242  23666522.496    23666521.106
        46.000          39.000
  24646318.708    21993574.59843  17135747.06942  24646319.729    24646321.736
        43.000          37.000
  20528974.520    -1602743.97843  -1242135.58642  20528974.366    20528975.573
        43.000          36.000
  23335214.337    24831762.76143  19345252.67542  23335214.525    23335213.816
        42.000          33.000
  22372718.427     5524453.42143   4300565.16842  22372718.636    22372723.321
        45.000          41.000
  23086107.607    -7359207.47343  -5723142.94942  23086109.725    23086107.753
        48.000          40.000
 03  7  1 17 34  0.0000000  0 10G23G 3G21G18G 6G16G15G26G17G14
  21182567.286     9670381.03243   7540145.53542  21182568.678    21182567.106
        54.000          48.000
  22792240.743   -11583191.31243  -8987171.16042  22792243.850    22792243.209
        49.000          40.000
  21034613.658     1799728.30244   1401999.77442  21034615.112    21034612.539
        57.000          48.000
  20555913.074    14803794.24443  11537712.90042  20555916.880    20555918.244
        41.000          37.000
  23680316.654    28615507.69543  22285574.46842  23680319.319    23680318.386
        47.000          39.000
  24654616.335    22037175.05043  17169721.37142  24654616.384    24654619.092
        44.000          37.000
  20524440.003    -1626575.30943  -1260705.42742  20524440.298    20524441.835
        44.000          36.000
  23347810.913    24897961.88643  19396836.37642  23347818.198    23347811.281
        42.000          33.000
  22380156.556     5563532.52543   4331016.38742  22380156.687    22380158.441
        46.000          41.000
  23072575.367    -7430323.15943  -5778557.71642  23072577.563    23072574.770
        50.000          42.000
 03  7  1 17 34 20.0000000  0 10G23G 3G21G18G 6G16G15G26G17G14
  21180429.898     9659150.36143   7531394.35542  21180431.253    21180429.989
        54.000          48.000
  22783933.764   -11626848.42043  -9021189.66242  22783935.561    22783932.309
        49.000          40.000
  21039124.428     1823433.13644   1420471.05042  21039125.811    21039123.109
        57.000          48.000
  20558526.493    14817505.81143  11548397.19442  20558526.014    20558526.149
        42.000          37.000
  23694124.559    28688068.35543  22342115.08042  23694126.692    23694127.153
        47.000          40.000
  24662924.487    22080834.59443  17203741.72742  24662926.044    24662927.503
        45.000          38.000
  20519926.415    -1650292.21743  -1279186.10242  20519928.100    20519929.923
        44.000          36.000
  23360436.323    24964306.66943  19448533.59742  23360439.742    23360438.487
        42.000          34.000
  22387616.208     5602726.70043   4361557.24442  22387615.630    22387617.099
        47.000          41.000
  23059058.931    -7501350.59243  -5833903.70142  23059061.488    23059059.214
        51.000          42.000
 03  7  1 17 34 40.0000000  0 10G23G 3G21G18G 6G16G15G26G17G14
  21178315.496     9648040.28343   7522737.15242  21178317.350    21178316.122
        54.000          48.000
  22775661.213   -11670315.03743  -9055059.72742  22775664.328    22775662.468
        49.000          40.000
  21043661.208     1847275.06343   1439049.14942  21043662.620    21043660.475
        56.000          48.000
  20561157.326    14831339.88643  11559176.95842  20561160.269    20561159.021
        42.000          36.000
  23707942.474    28760680.20943  22398695.58342  23707944.525    23707945.575
        48.000          40.000
  24671243.069    22124549.82043  17237805.48642  24671244.990    24671246.795
        45.000          38.000
  20515433.244    -1673896.71743  -1297579.23942  20515435.373    20515437.369
        43.000          36.000
  23373089.143    25030793.89043  19500341.80642  23373091.716    23373094.317
        43.000          34.000
  22395096.470     5642033.61443   4392185.94242  22395098.053    22395096.736
        47.000          41.000
  23045559.184    -7572291.42243  -5889182.19542  23045561.472    23045559.527
        50.000          42.000
 03  7  1 17 35  0.0000000  0  9G23G 3G21G18G 6G15G26G17G14
  21176225.883     9637060.59943   7514181.55242  21176227.793    21176227.152
        54.000          48.000
  22767428.874   -11713580.43943  -9088772.99942  22767431.330    22767431.322
        49.000          40.000
  21048226.359     1871264.44243   1457742.14842  21048227.760    21048225.994
        56.000          48.000
  20563815.233    14845306.23343  11570059.77342  20563816.915    20563816.998
        41.000          36.000
  23721771.710    28833352.66043  22455323.31642  23721774.196    23721774.443
        48.000          40.000
  20510966.930    -1697378.35043  -1315876.62242  20510966.967    20510964.334
        45.000          36.000
  23385769.116    25097432.59843  19552267.98542  23385773.218    23385776.257
        43.000          35.000
  22402599.501     5681463.28143   4422910.29642  22402599.375    22402601.543
        47.000          41.000
  23032077.315    -7643134.83743  -5944384.77142  23032079.096    23032078.240
        49.000          42.000
 03  7  1 17 35 20.0000000  0  9G23G 3G21G18G 6G15G26G17G14
  21174158.331     9626193.05543   7505713.33042  21174159.592    21174158.855
        54.000          49.000
  22759230.823   -11756661.97643  -9122342.98142  22759232.800    22759234.251
        49.000          41.000
  21052816.274     1895383.34143   1476536.07542  21052817.181    21052816.093
        56.000          48.000
  20566495.235    14859386.38343  11581031.28142  20566495.363    20566500.725
        41.000          34.000
  23735609.108    28906066.86743  22511983.58342  23735610.609    23735612.879
        48.000          41.000
  20506518.893    -1720754.50343  -1334091.90642  20506521.346    20506518.115
        46.000          37.000
  23398476.872    25164203.94843  19604297.55842  23398481.385    23398480.726
        43.000          36.000
  22410122.188     5720998.17743   4453716.64842  22410123.085    22410124.276
        46.000          41.000
  23018611.421    -7713897.88543  -5999524.73742  23018611.812    23018611.524
        47.000          41.000
 03  7  1 17 35 40.0000000  0  9G23G 3G21G18G 6G15G26G17G14
  21172113.040     9615444.96343   7497338.19042  21172114.015    21172113.423
        54.000          49.000
  22751069.396   -11799551.36143  -9155763.26442  22751070.941    22751070.204
        49.000          41.000
  21057431.320     1919639.32643   1495436.82942  21057432.749    21057432.073
        55.000          48.000
  20569196.932                    11592097.09842                  20569204.557
        40.000          32.000
  23749455.555    28978829.75343  22568681.79042  23749456.165    23749460.111
        47.000          40.000
  20502091.307    -1744017.27743  -1352218.75442  20502093.221    20502092.179
        45.000          37.000
  23411209.503    25231114.70343  19656435.79742  23411215.057    23411211.431
        45.000          35.000
  22417667.259     5760646.20143   4484611.15542  22417668.131    22417670.200
        47.000          42.000
  23005160.298    -7784572.20843  -6054595.58842  23005159.722    23005164.038
        45.000          40.000
 03  7  1 17 36  0.0000000  0  9G23G 3G21G18G 6G15G26G17G14
  21170090.528     9604815.95743   7489055.84142  21170091.551    21170090.861
        55.000          49.000
  22742944.700   -11842248.11143  -9189033.43542  22742945.335    22742946.464
        50.000          41.000
  21062073.674     1944032.90243   1514444.79542  21062074.673    21062074.003
        55.000          48.000
  20571920.150
        39.000
  23763310.508    29051640.51943  22625417.29942  23763311.065    23763315.002
        46.000          40.000
  20497686.898    -1767166.26643  -1370256.90042  20497688.222    20497687.334
        44.000          37.000
  23423968.250    25298163.93043  19708681.94142  23423970.546    23423970.336
        44.000          35.000
  22425233.849     5800407.03743   4515593.57442  22425235.211    22425236.144
        47.000          41.000
  22991728.935    -7855157.00243  -6109596.70542  22991731.012    22991733.336
        46.000          40.000
 03  7  1 17 36 20.0000000  0  9G23G 3G21G18G 6G15G26G17G14
  21168091.379     9594311.40943   7480870.47342  21168092.669    21168091.941
        55.000          49.000
  22734857.371   -11884746.02043  -9222148.66442  22734859.260    22734859.646
        49.000          41.000
  21066742.816     1968569.73143   1533564.38342  21066743.858    21066742.741
        55.000          48.000
  20574671.670
        37.000
  23777175.135    29124504.10343  22682193.98142  23777175.315    23777180.529
        45.000          40.000
  20493304.297    -1790195.21043  -1388201.54742  20493305.661    20493309.056
        42.000          36.000
  23436754.089    25365356.35843  19761039.66642  23436757.518    23436751.848
        43.000          35.000
  22432821.777     5840285.92043   4546667.95742  22432822.766    22432823.877
        46.000          41.000
  22978317.856    -7925645.82943  -6164523.00642  22978318.222    22978318.625
        48.000          41.000
 03  7  1 17 36 40.0000000  0  9G23G 3G21G18G 6G15G26G17G14
  21166114.678     9583925.21543   7472777.33142  21166115.913    21166115.546
        55.000          49.000
  22726807.686   -11927050.27243  -9255113.01342  22726808.810    22726810.058
        49.000          41.000
  21071438.205     1993243.99043   1552791.05242  21071439.789    21071437.730
        55.000          48.000
  20577444.906
        36.000
  23791049.326    29197413.88143  22739006.66542  23791048.431    23791056.206
        43.000          39.000
  20488942.890    -1813109.73343  -1406057.00142  20488945.322    20488952.190
        39.000          34.000
  23449567.781    25432685.15143  19813503.66142  23449569.437    23449565.125
        44.000          35.000
  22440432.709     5880277.57843   4577830.23442  22440432.826    22440434.405
        46.000          41.000
  22964921.546    -7996043.88943  -6219378.55942  22964923.651    22964923.565
        50.000          42.000
 03  7  1 17 37  0.0000000  0  8G23G 3G21G 6G15G26G17G14
  21164160.033     9573653.31943   7464773.25742  21164161.298    21164160.399
        55.000          49.000
  22718793.229   -11969163.97043  -9287928.84542  22718794.449    22718797.234
        49.000          41.000
  21076159.164     2018052.11843   1572122.02742  21076160.491    21076158.568
        55.000          48.000
  23804929.543    29270365.38443  22795851.88542  23804930.476    23804938.192
        42.000          38.000
  20484604.300    -1835913.01853  -1423825.77152  20484609.107    20484606.377
        37.000          33.000
  23462403.613    25500145.64143  19866070.25442  23462408.232    23462402.737
        43.000          35.000
  22448062.602     5920378.64043   4609077.76342  22448063.057    22448065.547
        46.000          41.000
  22951541.887    -8066353.97743  -6274165.55542  22951543.991    22951544.465
        51.000          43.000
 03  7  1 17 37 20.0000000  0  8G23G 3G21G 6G15G26G17G14
  21162229.049     9563505.46343   7456865.82742  21162230.135    21162229.188
        55.000          49.000
  22710817.512   -12011076.38643  -9320587.84842  22710819.068    22710818.727
        49.000          41.000
  21080907.231     2043004.35043   1591565.28942  21080909.190    21080906.534
        56.000          48.000
  23818821.209    29343367.88143  22852736.84842  23818821.756    23818831.796
        42.000          37.000
  20480291.450                    -1441499.65742  20480291.533
        38.000          31.000
  23475268.844    25567747.05043  19918746.64442  23475272.348    23475269.409
        43.000          34.000
  22455715.953     5960598.72243   4640418.04342  22455716.601    22455718.625
        45.000          40.000
  22938181.993    -8136565.27343  -6328875.57242  22938184.374    22938183.899
        51.000          43.000
 03  7  1 17 37 40.0000000  0  8G23G 3G21G 6G15G26G17G14
  21160322.385     9553485.85743   7449058.33742  21160323.673    21160322.344
        55.000          49.000
  22702881.135   -12052782.37043  -9353085.99342  22702882.564    22702884.757
        49.000          41.000
  21085684.022     2068105.41943   1611124.53042  21085685.491    21085683.262
        56.000          48.000
  23832726.072    29416425.17643  22909664.50542  23832726.013    23832732.984
        43.000          37.000
  20476002.206
        40.000
  23488159.798    25635492.89743  19971535.61542  23488161.729    23488159.596
        43.000          35.000
  22463393.228     6000942.43243   4671854.65642  22463394.484    22463396.409
        45.000          40.000
  22924841.124    -8206672.48643  -6383504.48642  22924843.266    22924841.963
        50.000          43.000
 03  7  1 17 38  0.0000000  0  8G23G 3G21G 6G15G26G17G14
  21158432.796     9543556.39243   7441321.09142  21158434.483    21158433.335
        55.000          49.000
  22694977.044   -12094319.23943  -9385452.35642  22694979.256    22694979.205
        48.000          41.000
  21090481.340     2093317.73443   1630770.45942  21090482.944    21090480.909
        56.000          48.000
  23846632.224    29489498.74743  22966604.82442  23846634.246    23846639.357
        44.000          38.000
  20471719.736
        39.000
  23501070.947    25703344.55743  20024407.00242  23501072.560    23501071.593
        42.000          35.000
  22471087.577     6041371.94443   4703358.13442  22471086.890    22471090.039
        46.000          40.000
  22911511.770    -8276712.58343  -6438081.12242  22911513.735    22911515.019
        49.000          42.000
 03  7  1 17 38 20.0000000  0  8G23G 3G21G 6G15G26G17G14
  21156568.625     9533761.12443   7433688.41242  21156570.288    21156569.572
        55.000          49.000
  22687113.571   -12135642.03043  -9417651.89242  22687115.713    22687113.897
        48.000          41.000
  21095308.529     2118685.46943   1650537.49542  21095310.472    21095308.498
        56.000          49.000
  23860550.357    29562632.08343  23023591.68542  23860553.184    23860556.273
        46.000          38.000
  20467467.157
        36.000
  23514011.327    25771345.39043  20077394.61642  23514014.465    23514014.140
        42.000          34.000
  22478805.280     6081931.78143   4734963.16142  22478807.765    22478809.206
        47.000          40.000
  22898201.491    -8346640.59243  -6492570.42842  22898203.094    22898208.533
        43.000          40.000
 03  7  1 17 38 40.0000000  0  8G23G 3G21G 6G15G26G17G14
  21154728.155     9524089.55243   7426152.11642  21154729.407    21154729.246
        55.000          49.000
  22679289.383   -12176760.35143  -9449692.13442  22679289.138    22679290.506
        48.000          41.000
  21100163.751     2144198.73543   1670417.93942  21100165.228    21100163.761
        56.000          49.000
  23874476.281    29635814.38743  23080616.70042  23874478.730    23874481.720
        46.000          37.000
  20463244.463
        38.000
  23526978.947    25839484.32143  20130489.87742  23526982.298    23526976.213
        43.000          34.000
  22486547.551     6122611.83343   4766661.82842  22486547.856    22486549.150
        47.000          40.000
  22884906.567    -8416465.75143  -6546979.66742  22884909.128    22884919.408
        39.000          38.000
 03  7  1 17 39  0.0000000  0  8G23G 3G21G 6G15G26G17G14
  21152909.736     9514533.01543   7418705.46242  21152911.132    21152910.616
        56.000          49.000
  22671500.912   -12217681.94243  -9481579.05942  22671502.429    22671503.721
        48.000          40.000
  21105045.183     2169849.39843   1690405.44542  21105046.462    21105045.536
        56.000          49.000
  23888409.990    29709036.47043  23137672.68142  23888414.196    23888413.480
        46.000          36.000
  20459042.766
        40.000
  23539969.092    25907752.08843  20183685.53442  23539968.442    23539965.105
        42.000          34.000
  22494309.760     6163404.03343   4798447.88042  22494311.111    22494311.571
        47.000          39.000
  22871644.814    -8486195.66243  -6601314.71042  22871644.326    22871649.401
        41.000          38.000
 03  7  1 17 39 20.0000000  0  8G23G 3G21G 6G15G26G17G14
  21151113.492     9505093.05643   7411349.64842  21151115.125    21151114.329
        56.000          49.000
  22663752.192   -12258404.34043  -9513310.76842  22663753.248    22663752.032
        48.000          40.000
  21109953.014     2195639.34943   1710501.48642  21109954.412    21109953.622
        56.000          49.000
  23902351.723    29782299.41543  23194760.47542  23902354.909    23902351.827
        45.000          35.000
  20454862.539
        42.000
  23552983.412    25976149.68343  20236982.37442  23552983.886    23552983.470
        39.000          33.000
  22502092.871     6204310.32043   4830322.83542  22502092.697    22502093.313
        46.000          39.000
  22858398.403    -8555827.83543  -6655573.46542  22858397.789    22858396.765
        46.000          40.000
 03  7  1 17 39 40.0000000  0  8G23G 3G21G 6G15G26G17G14
  21149339.810     9495771.45043   7404086.06142  21149341.215    21149340.328
        56.000          50.000
  22656040.543   -12298925.02243  -9544885.29842  22656043.175    22656042.119
        47.000          40.000
  21114888.190     2221570.63444   1730707.67142  21114889.375    21114888.677
        57.000          49.000
  23916301.572    29855604.48143  23251881.09042  23916307.236    23916295.394
        44.000          34.000
  20450704.964
        44.000
  23566024.894    26044678.06443  20290381.06842  23566029.230    23566027.139
        40.000          33.000
  22509899.376     6245332.75443   4862288.29942  22509897.849    22509902.423
        45.000          38.000
  22845166.998    -8625359.48843  -6709753.87342  22845167.489    22845164.462
        49.000          41.000
 03  7  1 17 40  0.0000000  0  8G23G 3G21G 6G15G26G17G14
  21147586.677     9486557.05143   7396906.01242  21147587.876    21147587.034
        56.000          50.000
  22648365.894   -12339254.18143  -9576310.59442  22648367.532    22648366.566
        46.000          40.000
  21119846.715     2247632.70843   1751015.76642  21119848.620    21119848.053
        56.000          49.000
  23930255.136    29928940.15643  23309025.55142  23930256.397    23930251.912
        42.000          33.000
  20446566.580
        43.000
  23579088.587    26113325.56443  20343872.61542  23579093.584    23579088.676
        40.000          33.000
  22517725.737     6286460.18143   4894335.57842  22517724.641    22517727.287
        44.000          37.000
  22831952.163    -8694800.58443  -6763863.70742  22831954.419    22831949.823
        50.000          41.000
 03  7  1 17 40 20.0000000  0  8G23G 3G21G 6G15G26G17G14
  21145856.703     9477466.46243   7389822.43442  21145858.180    21145857.459
        56.000          50.000
  22640730.839   -12379374.26243  -9607572.95742  22640733.959    22640733.771
        46.000          40.000
  21124834.482     2273842.58643   1771439.03342  21124836.098    21124835.177
        56.000          49.000
  23944215.641                    23366206.45842                  23944210.567
        40.000          32.000
  20442454.006    -2057420.29253                                  20442456.570
        42.000
  23592176.824    26182108.19443  20397469.48842  23592176.992    23592184.375
        38.000          33.000
  22525576.140     6327709.46143   4926477.81642  22525576.288    22525578.414
        43.000          37.000
  22818758.556    -8764133.39643  -6817889.18242  22818761.042    22818757.861
        51.000          42.000
 03  7  1 17 40 40.0000000  0  9G23G 3G21G18G 6G15G26G17G14
  21144149.583     9468493.23244   7382830.31042  21144150.756    21144149.471
        57.000          50.000
  22633135.684   -12419290.75343  -9638676.68642  22633137.470    22633136.841
        46.000          40.000
  21129849.044     2300194.09143   1791972.65442  21129850.076    21129849.076
        56.000          48.000
  20612477.718
        42.000
  23958185.962
        38.000
  20438363.167    -2078910.11653                                  20438354.729
        39.000
  23605289.459     8175166.16752                                  23605290.910
        35.000          32.000
  22533446.972     6369074.20743   4958710.03942  22533446.800    22533447.564
        43.000          37.000
  22805584.817    -8833363.30843  -6871834.48342  22805586.616    22805585.024
        51.000          42.000
 03  7  1 17 41  0.0000000  0  8G23G 3G21G18G 6G15G17G14
  21142464.709     9459642.33444   7375933.51242  21142466.363    21142465.418
        57.000          50.000
  22625578.988   -12458997.91243  -9669617.30542  22625582.054    22625581.962
        46.000          40.000
  21134891.584     2326692.80343   1812620.97942  21134893.230    21134891.268
        55.000          48.000
  20615542.385     -499512.40253   -401690.03152  20615545.722    20615539.923
        42.000          36.000
  23972167.849
        40.000
  20434298.718    -2100271.92743   -471418.96052  20434301.227    20434300.628
        38.000          33.000
  22541342.119     6410560.22043   4991036.71842  22541342.936    22541344.211
        42.000          38.000
  22792431.294    -8902484.23543  -6925694.86742  22792433.212    22792432.192
        50.000          43.000
 03  7  1 17 41 20.0000000  0  8G23G 3G21G18G 6G15G17G14
  21140798.805     9450887.33444   7369111.44342  21140800.175    21140799.302
        57.000          50.000
  22618058.170   -12498521.19243  -9700414.64042  22618061.007    22618061.507
        46.000          40.000
  21139957.743     2353312.73943   1833363.75642  21139958.321    21139956.633
        55.000          47.000
  20618628.823     -483302.02343   -389058.59742  20618627.978    20618626.185
        41.000          36.000
  23986153.727    30222695.54443  23537925.24242  23986157.428    23986148.465
        41.000          32.000
  20430255.866    -2121531.13343   -487984.55342  20430251.669    20430253.759
        37.000          33.000
  22549255.440     6452141.65643   5023437.79742  22549254.603    22549258.901
        43.000          38.000
  22779292.981    -8971521.41243  -6979490.00742  22779295.643    22779294.464
        50.000          42.000
 03  7  1 17 41 40.0000000  0  7G23G 3G21G18G 6G17G14
  21139156.053     9442255.56344   7362385.39342  21139157.657    21139156.368
        57.000          50.000
  22610577.616   -12537832.50543  -9731046.79542  22610580.191    22610580.574
        46.000          41.000
  21145051.585     2380081.57043   1854222.56242  21145052.196    21145051.229
        55.000          47.000
  20621736.438     -466968.28843   -376331.01842  20621740.000    20621735.180
        42.000          36.000
  24000146.825    30296224.17543  23595220.09742  24000144.575    24000141.745
        41.000          33.000
  22557190.808     6493845.82443   5055934.51842  22557190.199    22557192.978
        42.000          38.000
  22766176.515    -9040446.61743  -7033197.91842  22766178.811    22766179.162
        49.000          42.000
 03  7  1 17 42  0.0000000  0  7G23G 3G21G18G 6G17G14
  21137535.356     9433739.83844   7355749.77342  21137536.996    21137536.377
        57.000          50.000
  22603135.210   -12576938.12543  -9761518.67042  22603137.378    22603140.376
        46.000          41.000
  21150172.973     2406992.58043   1875192.15342  21150174.179    21150171.979
        55.000          47.000
  20624868.108     -450518.16343   -363512.73842  20624867.572    20624866.291
        40.000          36.000
  24014147.157    30369789.61343  23652543.65342  24014147.567    24014143.005
        43.000          34.000
  22565149.109     6535666.09843   5088521.70642  22565149.201    22565152.787
        42.000          38.000
  22753078.968    -9109265.86543  -7086823.28942  22753079.953    22753083.690
        48.000          42.000
 03  7  1 17 42 20.0000000  0  7G23G 3G21G18G 6G17G14
  21135937.009     9425339.64043   7349204.17642  21135938.515    21135937.535
        56.000          49.000
  22595734.022   -12615837.76843  -9791830.05342  22595734.856    22595736.084
        47.000          41.000
  21155320.984     2434045.72843   1896272.50842  21155321.910    21155320.451
        56.000          48.000
  20628020.425     -433952.61143   -350604.49742  20628026.322    20628019.001
        36.000          35.000
  24028153.498    30443390.76643  23709895.00242  24028155.797    24028148.294
        43.000          34.000
  22573130.053     6577602.47143   5121199.33242  22573131.290    22573134.291
        44.000          38.000
  22740002.257    -9177978.62343  -7140365.68142  22740004.912    22740007.953
        47.000          42.000
 03  7  1 17 42 40.0000000  0  6G23G 3G21G 6G17G14
  21134358.232     9417042.20943   7342738.65242  21134359.280    21134359.106
        56.000          49.000
  22588367.650   -12654543.27343  -9821990.15342  22588369.397    22588370.605
        46.000          41.000
  21160493.421     2461228.63643   1917453.97142  21160494.796    21160492.633
        56.000          48.000
  24042162.886    30517014.53443  23767263.96642  24042163.006    24042157.028
        43.000          34.000
  22581130.088     6619642.37543   5153957.64542  22581129.535    22581133.353
        44.000          38.000
  22726947.154    -9246596.60143  -7193834.20142  22726948.511    22726950.035
        49.000          42.000
 03  7  1 17 43  0.0000000  0  6G23G 3G21G 6G17G14
  21132803.068     9408871.02643   7336371.51442  21132804.994    21132804.139
        56.000          49.000
  22581044.041   -12693030.31143  -9851980.01242  22581047.026    22581047.741
        46.000          41.000
  21165694.789     2488565.26143   1938755.21942  21165696.275    21165694.741
        55.000          47.000
  24056181.262    30590684.01943  23824668.59042  24056182.041    24056178.486
        43.000          34.000
  22589153.205     6661809.70743   5186815.24342  22589153.319    22589157.126
        44.000          38.000
  22713912.828    -9315095.23343  -7247209.68642  22713914.557    22713914.312
        50.000          43.000
 03  7  1 17 43 20.0000000  0  6G23G 3G21G 6G17G14
  21131268.826     9400809.41643   7330089.74742  21131270.380    21131270.254
        56.000          49.000
  22573758.971   -12731314.57043  -9881811.86642  22573760.927    22573761.276
        48.000          41.000
  21170923.322     2516039.26443   1960163.51442  21170924.734    21170922.547
        55.000          47.000
  24070205.382    30664381.97743  23882095.39842  24070205.127    24070201.919
        42.000          34.000
  22597198.436     6704087.81543   5219759.16642  22597199.557    22597200.449
        44.000          38.000
  22700898.628    -9383490.13343  -7300504.34242  22700900.333    22700896.936
        51.000          42.000
 03  7  1 17 43 40.0000000  0  6G23G 3G21G 6G17G14
  21129756.796     9392862.19743   7323897.11642  21129757.871    21129758.148
        56.000          49.000
  22566513.917   -12769390.48243  -9911481.39142  22566515.173    22566516.480
        48.000          42.000
  21176178.563     2543655.99043   1981683.00742  21176179.545    21176176.941
        56.000          47.000
  24084236.350    30738112.91243  23939547.90142  24084237.250    24084230.526
        42.000          34.000
  22605266.457     6746481.81843   5252793.36542  22605266.473    22605266.378
        44.000          37.000
  22687904.982    -9451775.30043  -7353713.46742  22687906.289    22687901.339
        51.000          42.000
 03  7  1 17 44  0.0000000  0  6G23G 3G21G 6G17G14
  21128265.423     9385024.47143   7317789.80842  21128267.132    21128266.676
        56.000          50.000
  22559306.820   -12807262.03443  -9940991.64642  22559309.612    22559308.106
        48.000          42.000
  21181459.986     2571410.92343   2003310.19942  21181461.275    21181458.237
        55.000          47.000
  24098272.290    30811871.44943  23997021.82942  24098275.179    24098271.488
        42.000          34.000
  22613354.599     6788987.15443   5285914.31542  22613355.498    22613356.587
        44.000          37.000
  22674929.929    -9519954.53743  -7406840.02742  22674931.570    22674925.556
        51.000          41.000
 03  7  1 17 44 20.0000000  0  7G23G 3G21G18G 6G17G14
  21126796.190     9377303.93743   7311773.81742  21126797.711    21126797.226
        56.000          50.000
  22552141.097   -12844920.69343  -9970336.03442  22552141.668    22552143.191
        49.000          43.000
  21186769.762     2599312.17443   2025051.40242  21186770.748    21186768.068
        55.000          47.000
  20647390.799
        41.000
  24112313.953    30885664.91943  24054522.91942  24112317.388    24112325.108
        40.000          34.000
  22621463.808     6831612.21843   5319128.56442  22621465.981    22621466.499
        43.000          36.000
  22661976.488    -9588019.10943  -7459877.26442  22661978.892    22661973.859
        49.000          41.000
 03  7  1 17 44 40.0000000  0  7G23G 3G21G18G 6G17G14
  21125348.794     9369698.61443   7305847.59842  21125350.274    21125350.284
        56.000          50.000
  22545015.619   -12882367.66543  -9999515.45642  22545017.550    22545017.682
        50.000          43.000
  21192106.659     2627358.17243   2046905.39842  21192107.984    21192105.527
        55.000          47.000
  20650685.645     -514571.07753   -403257.27952  20650688.894    20650684.304
        40.000          35.000
  24126362.356    30959490.80843  24112049.29142  24126363.126    24126384.199
        41.000          35.000
  22629600.109     6874355.30243   5352434.79542  22629601.998    22629603.794
        43.000          37.000
  22649044.112    -9655969.97443  -7512825.93942  22649045.691    22649046.463
        46.000          41.000
 03  7  1 17 45  0.0000000  0  7G23G 3G21G18G 6G17G14
  21123921.663     9362198.15343   7300003.08842  21123922.838    21123922.792
        56.000          49.000
  22537928.187   -12919612.35743 -10028537.27342  22537929.529    22537928.200
        50.000          43.000
  21197469.591     2655539.11643   2068864.54742  21197470.718    21197468.334
        55.000          47.000
  20654010.325     -497106.90443   -389648.88842  20654010.749    20654006.801
        40.000          34.000
  24140416.545    31033338.38343  24169592.71442  24140417.772    24140433.393
        41.000          36.000
  22637755.644     6917206.35843   5385825.14342  22637754.990    22637757.397
        45.000          37.000
  22636132.514    -9723816.25843  -7565693.14542  22636135.309    22636136.722
        47.000          41.000
 03  7  1 17 45 20.0000000  0  7G23G 3G21G18G 6G17G14
  21122515.902     9354809.59543   7294245.77842  21122517.001    21122516.886
        56.000          49.000
  22530880.715   -12956646.77743 -10057395.25042  22530881.639    22530881.774
        50.000          43.000
  21202859.110     2683862.12043   2090934.38842  21202860.206    21202858.026
        55.000          48.000
  20657354.523     -479531.07943   -375953.47142  20657358.400    20657352.878
        41.000          34.000
  24154473.798    31107214.19743  24227158.14742  24154474.781    24154488.454
        39.000          36.000
  22645931.393     6960172.46643   5419305.14942  22645931.510    22645933.479
        45.000          38.000
  22623245.013    -9791549.98243  -7618472.66142  22623246.654    22623246.291
        48.000          42.000
 03  7  1 17 45 40.0000000  0  7G23G 3G21G18G 6G17G14
  21121130.472     9347531.79943   7288574.78142  21121131.898    21121131.427
        56.000          49.000
  22523873.384   -12993471.17143 -10086089.56242  22523875.476    22523873.525
        50.000          43.000
  21208275.666     2712326.68243   2113114.53642  21208276.868    21208274.872
        55.000          48.000
  20660716.712     -461845.17643   -362172.24342  20660721.524    20660713.134
        40.000          34.000
  24168536.116    31181116.67743  24284744.33342  24168538.231    24168551.418
        39.000          36.000
  22654128.183     7003253.28743   5452874.55142  22654129.926    22654134.088
        44.000          38.000
  22610379.050    -9859171.25543  -7671164.52342  22610379.742    22610379.292
        50.000          43.000
 03  7  1 17 46  0.0000000  0  7G23G 3G21G18G 6G17G14
  21119767.343     9340367.92043   7282992.55342  21119768.566    21119768.357
        56.000          49.000
  22516906.693   -13030081.76343 -10114617.28042  22516907.793    22516907.284
        50.000          43.000
  21213719.088     2740936.28943   2135407.71642  21213720.361    21213719.571
        54.000          48.000
  20664108.109     -444045.91243   -348302.69442  20664112.310    20664104.866
        41.000          33.000
  24182606.591    31255048.63743  24342353.48042  24182607.048    24182619.683
        40.000          37.000
  22662349.051     7046452.19943   5486535.99042  22662351.171    22662354.908
        43.000          38.000
  22597533.021    -9926675.65043  -7723765.29742  22597535.689    22597533.236
        52.000          43.000
 03  7  1 17 46 20.0000000  0  7G23G 3G21G18G 6G17G14
  21118424.627     9333312.33043   7277494.70242  21118425.822    21118426.134
        55.000          48.000
  22509979.050   -13066483.23243 -10142982.04742  22509981.430    22509980.521
        50.000          43.000
  21219190.561     2769685.76143   2157809.88742  21219191.153    21219190.481
        54.000          48.000
  20667513.084     -426138.93743   -334349.22342  20667512.399    20667509.334
        42.000          33.000
  24196680.608    31329004.06243  24399980.91942  24196681.792    24196692.796
        42.000          38.000
  22670591.622     7089763.76043   5520285.20642  22670591.047    22670595.952
        42.000          38.000
  22584708.897    -9994067.67043  -7776278.49642  22584711.122    22584708.114
        52.000          43.000
 03  7  1 17 46 40.0000000  0  7G23G 3G21G18G 6G17G14
  21117102.697     9326366.64943   7272082.49542  21117103.705    21117104.183
        55.000          48.000
  22503092.292   -13102673.09243 -10171181.90742  22503094.751    22503094.442
        50.000          43.000
  21224688.690     2798577.30543   2180322.76842  21224689.345    21224688.679
        54.000          48.000
  20670940.151     -408122.62643   -320310.52842  20670944.208    20670938.952
        42.000          34.000
  24210759.554    31402984.14943  24457627.56042  24210760.364    24210771.438
        42.000          38.000
  22678854.850     7133189.92043   5554123.70942  22678855.426    22678859.881
        41.000          37.000
  22571906.424   -10061344.78543  -7828702.12942  22571909.207    22571903.663
        52.000          43.000
 03  7  1 17 47  0.0000000  0  7G23G 3G21G18G 6G17G14
  21115801.157     9319529.68843   7266755.00842  21115802.737    21115802.715
        54.000          48.000
  22496246.092   -13138651.55143 -10199217.06442  22496247.926    22496247.868
        49.000          43.000
  21230213.429     2827610.14843   2202945.74542  21230214.146    21230213.602
        54.000          48.000
  20674390.008     -389998.32343   -306187.67642  20674392.455    20674387.873
        43.000          34.000
  24224841.336    31476987.18643  24515292.06842  24224844.185    24224853.155
        42.000          39.000
  22687139.851     7176729.81343   5588050.85142  22687139.704    22687147.908
        40.000          36.000
  22559125.789   -10128507.13443  -7881036.31042  22559127.507    22559121.616
        51.000          42.000
 03  7  1 17 47 20.0000000  0  7G23G 3G21G18G 6G17G14
  21114521.096     9312800.91843   7261511.83142  21114522.006    21114522.037
        54.000          48.000
  22489440.147   -13174418.48243 -10227087.38242  22489442.709    22489442.109
        49.000          43.000
  21235765.320     2856784.11443   2225678.67642  21235766.068    21235764.809
        55.000          48.000
  20677859.291     -371766.53543   -291981.08642  20677863.136    20677861.204
        44.000          36.000
  24238928.107    31551012.15543  24572973.65942  24238930.851    24238939.040
        43.000          39.000
  22695447.439     7220383.72743   5622066.86042  22695446.187    22695453.592
        40.000          36.000
  22546366.537   -10195554.19743  -7933280.66842  22546367.967    22546364.008
        50.000          41.000
 03  7  1 17 47 40.0000000  0  7G23G 3G21G18G 6G17G14
  21113262.527     9306184.91843   7256356.51542  21113263.273    21113262.898
        54.000          48.000
  22482675.020   -13209968.48543 -10254788.67642  22482677.208    22482677.442
        49.000          43.000
  21241344.620     2886104.04443   2248525.34942  21241345.622    21241343.958
        55.000          48.000
  20681350.276     -353422.74743   -277687.24942  20681350.813    20681352.335
        45.000          36.000
  24253019.231    31625063.29143  24630675.62842  24253020.595    24253030.996
        42.000          39.000
  22703777.169     7264155.84543   5656174.97142  22703777.135    22703779.808
        42.000          36.000
  22533629.656   -10262480.10843  -7985430.64342  22533631.771    22533629.141
        48.000          41.000
 03  7  1 17 48  0.0000000  0  7G23G 3G21G18G 6G17G14
  21112023.089     9299676.27343   7251284.86042  21112024.750    21112024.573
        54.000          48.000
  22475950.298   -13245306.08143 -10282324.44242  22475952.367    22475951.832
        48.000          43.000
  21246950.281     2915565.06843   2271481.96442  21246951.991    21246950.135
        55.000          48.000
  20684861.337     -334972.51743   -263310.45542  20684863.311    20684866.089
        46.000          37.000
  24267115.482    31699134.84843  24688393.52542  24267116.924    24267126.305
        42.000          39.000
  22712128.603     7308041.20043   5690371.25142  22712125.802    22712130.357
        42.000          36.000
  22520914.228   -10329289.31743  -8037489.71342  22520916.709    22520919.424
        46.000          41.000
 03  7  1 17 48 20.0000000  0  7G23G 3G21G18G 6G17G14
  21110805.540     9293275.28043   7246297.08242  21110806.634    21110807.298
        54.000          48.000
  22469266.664   -13280430.16243 -10309693.84842  22469267.017    22469267.670
        48.000          43.000
  21252583.415     2945167.84243   2294549.03742  21252584.788    21252583.656
        55.000          48.000
  20688392.587     -316415.72743   -248850.60842  20688394.284    20688396.397
        47.000          38.000
  24281212.838    31773226.57443  24746127.13142  24281215.877    24281225.359
        42.000          38.000
  22720500.361     7352040.95143   5724656.65642  22720504.618    22720504.147
        42.000          35.000
  22508222.014   -10395980.45243  -8089456.82142  22508224.470    22508230.857
        46.000          42.000
 03  7  1 17 48 40.0000000  0  7G23G 3G21G18G 6G17G14
  21109608.890     9286985.84743   7241396.24142  21109610.140    21109610.411
        54.000          48.000
  22462623.254   -13315335.91643 -10336893.12242  22462624.850    22462625.816
        48.000          43.000
  21258244.835     2974916.88443   2317730.08842  21258246.097    21258244.925
        55.000          48.000
  20691944.120     -297748.16443   -234304.47542  20691946.743    20691947.349
        47.000          39.000
  24295318.943    31847341.99043  24803879.19742  24295320.736    24295328.953
        42.000          38.000
  22728897.849     7396159.05743   5759034.34342  22728899.459    22728902.451
        43.000          36.000
  22495557.008   -10462548.60543  -8141328.09142  22495558.250    22495562.816
        47.000          43.000
 03  7  1 17 49  0.0000000  0  7G23G 3G21G18G 6G17G14
  21108432.272     9280801.49943   7236577.27942  21108433.416    21108433.707
        54.000          47.000
  22456021.502   -13350029.10043 -10363926.76642  22456022.807    22456023.046
        47.000          42.000
  21263932.852     3004806.09643   2341020.35742  21263934.165    21263933.045
        55.000          48.000
  20695516.849     -278976.55843   -219677.25342  20695518.111    20695518.864
        48.000          39.000
  24309427.698    31921474.20043  24861644.33442  24309428.965    24309434.855
        42.000          39.000
  22737314.389     7440389.03243   5793499.17542  22737314.978    22737312.802
        42.000          36.000
  22482913.680   -10528999.06543  -8193107.63942  22482915.398    22482917.542
        50.000          44.000
 03  7  1 17 49 20.0000000  0  8G23G 3G21G18G 6G31G17G14
  21107273.958     9274719.46543   7231838.03942  21107275.727    21107276.080
        53.000          47.000
  22449460.148   -13384511.76943 -10390796.36642  22449460.208    22449461.064
        47.000          42.000
  21269646.740     3034832.73043   2364417.70542  21269648.424    21269647.160
        56.000          48.000
  20699108.890     -260103.69643   -204971.13142  20699110.567    20699108.924
        49.000          40.000
  24323538.783    31995619.94443  24919419.99342  24323539.799    24323545.121
        44.000          39.000
  24350704.486    -2025411.93953  -1519563.96152  24350705.708    24350708.783
        44.000          39.000
  22745751.997     7484728.48443   5828049.35542  22745755.538    22745751.872
        41.000          36.000
  22470291.160   -10595333.60543  -8244796.84942  22470293.246    22470294.155
        51.000          45.000
 03  7  1 17 49 40.0000000  0  8G23G 3G21G18G 6G31G17G14
  21106138.845     9268750.30643   7227186.76242  21106140.059    21106139.735
        54.000          47.000
  22442940.093   -13418772.50743 -10417493.03342  22442941.711    22442942.178
        47.000          42.000
  21275388.861     3065007.85643   2387930.75942  21275390.595    21275389.280
        56.000          48.000
  20702721.707     -241119.19743   -190178.01942  20702723.672    20702721.864
        50.000          40.000
  24337653.480    32069789.36643  24977214.09042  24337656.272    24337657.428
        46.000          40.000
  24339427.537    -2084669.63043  -1565738.73842  24339430.079    24339433.021
        45.000          39.000
  22754210.608     7529188.20643   5862693.25542  22754213.967    22754212.891
        40.000          34.000
  22457691.793   -10661540.73943  -8296386.77142  22457694.148    22457694.228
        52.000          45.000
 03  7  1 17 50  0.0000000  0  8G23G 3G21G18G 6G31G17G14
  21105023.493     9262888.98443   7222619.50842  21105024.561    21105024.440
        54.000          47.000
  22436462.561   -13452815.44543 -10444019.98242  22436464.272    22436463.474
        47.000          42.000
  21281158.338     3095326.79643   2411555.86542  21281160.117    21281158.214
        55.000          48.000
  20706354.893     -222028.11243   -175301.85042  20706356.639    20706353.927
        50.000          40.000
  24351770.907    32143977.07843  25035022.42742  24351772.523    24351775.905
        47.000          40.000
  24328177.707    -2143787.77743  -1611804.77842  24328179.312    24328182.988
        45.000          40.000
  22762693.968     7573764.13443   5897427.69542  22762696.954    22762695.458
        39.000          34.000
  22445116.868   -10727624.35343  -8347880.44542  22445119.098    22445118.024
        52.000          45.000
 03  7  1 17 50 20.0000000  0  8G23G 3G21G18G 6G31G17G14
  21103928.226     9257135.35343   7218136.17842  21103929.093    21103929.005
        53.000          47.000
  22430026.588   -13486639.91343 -10470376.70042  22430028.431    22430026.453
        47.000          42.000
  21286954.869     3125789.94143   2435293.34642  21286956.518    21286955.002
        55.000          47.000
  20710007.658     -202830.50443   -160342.67442  20710009.093    20710005.236
        50.000          40.000
  24365892.247    32218182.51143  25092844.57042  24365894.184    24365897.954
        47.000          40.000
  24316954.997    -2202765.34643  -1657761.27142  24316956.171    24316958.881
        45.000          40.000
  22771199.307     7618456.29343   5932252.72242  22771197.759    22771201.479
        39.000          33.000
  22432565.512   -10793583.44543  -8399277.07742  22432567.841    22432565.394
        52.000          44.000
 03  7  1 17 50 40.0000000  0  8G23G 3G21G18G 6G31G17G14
  21102852.528     9251485.26343   7213733.52342  21102854.085    21102853.698
        53.000          47.000
  22423632.107   -13520249.13943 -10496565.70242  22423633.293    22423630.412
        48.000          42.000
  21292778.125     3156393.53843   2459140.26642  21292779.967    21292778.018
        54.000          47.000
  20713680.276     -183530.65143   -145303.84842  20713682.025    20713677.666
        50.000          40.000
  24380013.943    32292401.16043  25150676.99942  24380016.415    24380021.696
        45.000          40.000
  24305757.581    -2261605.42343  -1703610.61042  24305759.117    24305762.970
        45.000          40.000
  22779727.034                     5967164.77442                  22779725.201
        38.000          33.000
  22420036.303   -10859420.96243  -8450578.97142  22420038.632    22420036.459
        52.000          44.000
 03  7  1 17 51  0.0000000  0  8G23G 3G21G18G 6G31G17G14
  21101798.591     9245945.05243   7209416.48042  21101799.395    21101799.434
        53.000          47.000
  22417277.332   -13553636.09943 -10522581.49942  22417280.689    22417278.355
        47.000          42.000
  21298630.985     3187144.31743   2483101.87242  21298631.385    21298629.999
        54.000          47.000
  20717373.566     -164122.23343   -130180.38942  20717375.541    20717370.991
        50.000          40.000
  24394140.743    32366638.79443  25208524.22742  24394143.215    24394148.907
        45.000          40.000
  24294589.371    -2320300.71143  -1749347.14342  24294589.960    24294593.309
        46.000          40.000
  22788275.277                     6002169.24552                  22788275.480
        37.000          32.000
  22407532.505   -10925129.63043  -8501780.47242  22407534.074    22407530.982
        51.000          43.000
 03  7  1 17 51 20.0000000  0  7G23G 3G21G18G 6G31G14
  21100764.018     9240508.22643   7205180.00042  21100764.604    21100764.855
        53.000          46.000
  22410964.402   -13586806.51643 -10548428.56442  22410967.417    22410965.676
        47.000          42.000
  21304509.610     3218036.26443   2507173.48342  21304510.583    21304508.721
        55.000          47.000
  20721085.833     -144611.79143   -114977.44142  20721087.932    20721085.345
        50.000          40.000
  24408270.986    32440888.44543  25266380.84342  24408272.381    24408279.509
        45.000          40.000
  24283445.478    -2378856.59043  -1794975.05842  24283446.961    24283450.593
        46.000          41.000
  22395050.438   -10990715.13543  -8552885.98142  22395051.893    22395050.103
        50.000          41.000
 03  7  1 17 51 40.0000000  0  7G23G 3G21G18G 6G31G14
  21099750.294     9235178.76043   7201027.18742  21099751.311    21099750.441
        53.000          46.000
  22404694.696   -13619755.51643 -10574103.10242  22404696.869    22404696.652
        46.000          41.000
  21310416.045     3249073.78243   2531358.52142  21310417.299    21310415.630
        55.000          47.000
  20724817.513     -124995.31643    -99691.89942  20724820.243    20724817.948
        49.000          40.000
  24422402.512    32515153.78343  25324249.67242  24422403.697    24422411.975
        43.000          40.000
  24272330.611    -2437268.00243  -1840490.38742  24272331.565    24272334.934
        46.000          41.000
  22382593.208   -11056172.18443  -8603891.39342  22382594.959    22382591.745
        48.000          40.000
 03  7  1 17 52  0.0000000  0  7G23G 3G21G18G 6G31G14
  21098755.812     9229953.62443   7196955.66642  21098757.349    21098756.712
        53.000          46.000
  22398466.162   -13652485.44843 -10599606.92942  22398467.037    22398467.119
        44.000          41.000
  21316349.015     3280254.09043   2555654.82642  21316351.194    21316348.364
        55.000          47.000
  20728571.468     -105275.98143    -84326.20542  20728572.130    20728570.905
        50.000          41.000
  24436536.609    32589431.31643  25382128.01542  24436538.426    24436548.371
        43.000          39.000
  24261241.673    -2495536.89943  -1885894.68542  24261243.159    24261246.688
        45.000          41.000
  22370161.859   -11121502.83943  -8654798.32842  22370162.799    22370158.150
        49.000          41.000
 03  7  1 17 52 20.0000000  0  7G23G 3G21G18G 6G31G14
  21097781.932     9224834.65143   7192966.87542  21097782.199    21097782.447
        54.000          46.000
  22392277.023   -13684993.67643 -10624937.97642  22392279.972    22392281.016
        43.000          41.000
  21322310.552     3311579.48043   2580064.19442  21322311.646    21322309.818
        55.000          47.000
  20732343.332      -85452.02743    -68878.97542  20732345.071    20732343.268
        49.000          41.000
  24450673.237    32663722.41443  25440016.93742  24450676.315    24450684.230
        43.000          40.000
  24250181.241    -2553660.22843  -1931185.53842  24250182.100    24250186.074
        45.000          40.000
  22357755.748   -11186704.14643  -8705604.48042  22357756.070    22357753.139
        50.000          42.000
 03  7  1 17 52 40.0000000  0  7G23G 3G21G18G 6G31G14
  21096826.943     9219818.58643   7189058.26842  21096828.178    21096827.720
        53.000          46.000
  22386134.442   -13717282.45143 -10650098.02942  22386135.471    22386137.744
        44.000          40.000
  21328297.748     3343047.11643   2604584.41342  21328299.340    21328298.046
        54.000          47.000
  20736134.716      -65526.53243    -53352.63042  20736136.588    20736133.168
        49.000          41.000
  24464813.622    32738023.50343  25497913.63242  24464815.966    24464824.536
        43.000          40.000
  24239148.329    -2611640.24143  -1976364.73342  24239149.893    24239153.733
        42.000          40.000
  22345374.078   -11251778.23043  -8756311.49442  22345373.875    22345372.926
        52.000          43.000
 03  7  1 17 53  0.0000000  0  7G23G 3G21G18G 6G31G14
  21095892.959     9214908.40943   7185232.17342  21095894.345    21095893.339
        53.000          46.000
  22380032.812   -13749348.11643 -10675084.23442  22380034.383    22380035.187
        44.000          41.000
  21334313.914     3374660.40843   2629218.12942  21334315.254    21334314.332
        54.000          47.000
  20739945.955      -45496.79943    -37745.05542  20739947.336    20739947.853
        48.000          41.000
  24478956.159    32812337.12543  25555820.03042  24478958.480    24478967.671
        45.000          40.000
  24228142.467    -2669473.00343  -2021429.22642  24228146.378    24228148.673
        44.000          38.000
  22333015.206   -11316721.05443  -8806916.24342  22333017.472    22333015.101
        53.000          44.000
 03  7  1 17 53 20.0000000  0  7G23G 3G21G18G 6G31G14
  21094978.287     9210099.81143   7181485.22742  21094979.760    21094979.112
        54.000          46.000
  22373972.923   -13781194.39643 -10699899.47542  22373974.719    22373974.546
        45.000          41.000
  21340357.076     3406415.33243   2653962.21042  21340358.257    21340357.152
        54.000          47.000
  20743776.924      -25367.19043    -22059.64642  20743777.069    20743774.446
        47.000          41.000
  24493099.895    32886658.69043  25613732.64842  24493102.926    24493110.045
        45.000          40.000
  24217165.806    -2727161.42443  -2066381.16542  24217166.494    24217169.573
        46.000          41.000
  22320681.385   -11381535.88043  -8857421.24742  22320682.840    22320682.542
        53.000          45.000
 03  7  1 17 53 40.0000000  0  7G23G 3G21G18G 6G31G14
  21094082.682     9205394.89343   7177819.07042  21094083.908    21094083.204
        53.000          46.000
  22367956.019   -13812818.23743 -10724541.41042  22367956.849    22367957.476
        45.000          41.000
  21346427.800     3438314.49043   2678818.67342  21346428.964    21346426.796
        55.000          47.000
  20747626.430       -5135.37143     -6294.60542  20747627.592    20747626.232
        46.000          41.000
  24507244.923    32960989.95543  25671652.85942  24507247.242    24507254.949
        46.000          41.000
  24206215.080    -2784702.53443  -2111218.35142  24206217.164    24206220.112
        46.000          41.000
  22308372.089   -11446219.55743  -8907824.05942  22308374.172    22308374.181
        52.000          45.000
 03  7  1 17 54  0.0000000  0  7G23G 3G21G18G 6G31G14
  21093206.341     9200790.65543   7174231.36342  21093208.447    21093207.426
        53.000          46.000
  22361978.935   -13844221.87543 -10749011.76342  22361980.313    22361980.685
        45.000          41.000
  21352524.560     3470355.21843   2703785.44442  21352525.848    21352523.999
        55.000          47.000
  20751494.794       15195.45043      9547.59842  20751495.902    20751495.486
        44.000          40.000
  24521391.467    33035327.34343  25729577.84342  24521393.541    24521401.352
        46.000          41.000
  24195293.317    -2842098.24743  -2155942.22942  24195295.374    24195297.335
        46.000          41.000
  22296087.376   -11510773.97743  -8958126.16242  22296089.178    22296089.244
        51.000          44.000
 03  7  1 17 54 20.0000000  0  6G23G 3G21G18G31G14
  21092352.102     9196299.02343   7170731.39942  21092353.425    21092352.458
        54.000          46.000
  22356047.023   -13875392.85143 -10773300.81342  22356048.020    22356050.197
        44.000          40.000
  21358650.646     3502549.64943   2728871.97942  21358652.475    21358649.896
        56.000          48.000
  20755382.382       35636.98243     25476.04742  20755383.412    20755386.076
        42.000          39.000
  24184400.970    -2899335.70743  -2200542.79742  24184403.116    24184405.965
        46.000          41.000
  22283828.578   -11575186.37943  -9008317.61342  22283830.221    22283830.131
        49.000          43.000
 03  7  1 17 54 40.0000000  0  6G23G 3G21G18G31G14
  21091517.878     9191916.93543   7167316.79342  21091519.443    21091518.629
        53.000          46.000
  22350158.109   -13906333.25543 -10797410.18442  22350160.183    22350161.807
        44.000          41.000
  21364805.931     3534895.25143   2754076.29942  21364808.022    21364804.604
        56.000          48.000
  20759294.848       56186.35943     41488.53642  20759294.786    20759297.120
        42.000          39.000
  24173539.223    -2956416.76443  -2245021.49442  24173541.757    24173543.198
        47.000          41.000
  22271595.982   -11639458.55343  -9058399.80942  22271598.797    22271599.529
        47.000          42.000
 03  7  1 17 55  0.0000000  0  6G23G 3G21G18G31G14
  21090700.967     9187624.48043   7163972.02242  21090702.329    21090702.314
        53.000          46.000
  22344312.399   -13937062.11943 -10821354.71842  22344313.767    22344315.174
        45.000          41.000
  21370986.002     3567372.81843   2779383.44542  21370987.914    21370984.907
        56.000          47.000
  20763223.940       76823.68143     57569.59542  20763224.226    20763222.045
        42.000          39.000
  24162703.424    -3013360.24343  -2289392.97942  24162705.004    24162707.570
        47.000          41.000
  22259388.558   -11703609.33643  -9108387.42642  22259391.113    22259391.852
        47.000          42.000
 03  7  1 17 55 20.0000000  0  6G23G 3G21G18G31G14
  21089903.138     9183432.13543   7160705.26342  21089904.313    21089903.620
        52.000          46.000
  22338507.151   -13967568.31043 -10845125.75042  22338508.430    22338509.253
        46.000          41.000
  21377193.096     3599992.84343   2804801.60142  21377195.075    21377192.791
        56.000          47.000
  20767168.942       97559.27843     73727.23942  20767171.204    20767169.077
        40.000          39.000
  24151895.293    -3070154.68843  -2333648.33242  24151896.812    24151899.418
        47.000          40.000
  22247208.323   -11767627.32943  -9158271.54842  22247209.260    22247208.224
        48.000          42.000
 03  7  1 17 55 40.0000000  0  6G23G 3G21G18G31G14
  21089125.114     9179343.13343   7157519.03442  21089126.348    21089126.600
        52.000          46.000
  22332745.315   -13997847.83443 -10868720.16042  22332746.351    22332747.520
        46.000          42.000
  21383428.549     3632758.72843   2830333.42442  21383430.159    21383428.276
        56.000          47.000
  20771134.543      118396.29143     89963.88942  20771133.363    20771132.945
        41.000          38.000
  24141117.028    -3126795.67243  -2377784.10942  24141118.799    24141120.486
        47.000          40.000
  22235052.955   -11831508.43643  -9208048.98342  22235054.397    22235053.143
        50.000          43.000
 03  7  1 17 56  0.0000000  0  7G23G 3G21G18G15G31G14
  21088364.989     9175351.50343   7154408.68342  21088366.779    21088366.010
        51.000          45.000
  22327026.396   -14027905.83343 -10892141.95442  22327026.845    22327027.102
        47.000          42.000
  21389690.290     3665665.13443   2855974.75442  21389692.064    21389690.233
        56.000          47.000
  20775119.374      139328.80343    106274.92742  20775119.127    20775116.590
        42.000          39.000
  20276545.735
        42.000
  24130367.061    -3183288.15643  -2421804.16342  24130369.645    24130368.361
        47.000          39.000
  22222922.228   -11895257.40643  -9257723.46542  22222923.578    22222922.920
        51.000          44.000
